ftp/pub/palmer/observations_modified/2019/January/AR190101_BASE.txt

Download

Sample DateTime	Unit Id	WS Avg 2min	WD Avg 2min	WGS 10min	WGD 10min	Air Temp	Rel Humidity	Dew Point	Pyranometer	Quantum	Air Pressure	Snow Level	Rainfall	PW Current	Visibility	CBase 1	CBase 2	CBase 3	Vert Vis
2019/01/01 00:00:00	BASE	2.92	116	3.40	116	1.5	100	1.5	47	117	972.7	NA	0.0000		9999	10560	0	0	0
2019/01/01 00:01:00	BASE	2.83	117	3.34	112	1.5	100	1.5	47	117	972.7	NA	0.0000		9999	10600	0	0	0
2019/01/01 00:02:00	BASE	2.83	117	3.34	112	1.5	100	1.5	47	116	972.7	NA	0.0000		9999	10790	11750	0	0
2019/01/01 00:03:00	BASE	2.78	118	3.34	112	1.5	100	1.5	47	116	972.7	NA	0.0000		9999	10790	11680	0	0
2019/01/01 00:04:00	BASE	2.75	122	3.34	112	1.5	100	1.5	47	116	972.8	NA	0.0000		9999	11610	0	0	0
2019/01/01 00:05:00	BASE	2.77	127	3.34	112	1.5	100	1.5	47	116	972.8	NA	0.0000		9999	9090	11750	0	0
2019/01/01 00:06:00	BASE	2.68	129	3.34	112	1.5	100	1.5	47	115	972.8	NA	0.0000		9999	9090	11880	0	0
2019/01/01 00:07:00	BASE	2.57	130	3.34	112	1.5	100	1.5	46	114	972.8	NA	0.0000		9999	8690	11780	0	0
2019/01/01 00:08:00	BASE	2.60	127	3.24	115	1.6	100	1.6	46	113	972.8	NA	0.0000		9999	8830	11840	0	0
2019/01/01 00:09:00	BASE	2.70	123	2.98	122	1.6	100	1.6	46	112	972.8	NA	0.0000		9999	8790	0	0	0
2019/01/01 00:10:00	BASE	2.80	121	2.98	126	1.6	100	1.6	45	110	972.8	NA	0.0000		9999	8630	10830	0	0
2019/01/01 00:11:00	BASE	2.93	120	3.19	124	1.5	100	1.5	45	109	972.8	NA	0.0000		9999	8600	10890	0	0
2019/01/01 00:12:00	BASE	3.03	120	3.24	116	1.5	100	1.5	44	108	972.8	NA	0.0000		9999	8560	10730	0	0
2019/01/01 00:13:00	BASE	2.94	120	3.24	116	1.5	100	1.5	44	107	972.8	NA	0.0000		9999	8530	11910	0	0
2019/01/01 00:14:00	BASE	2.79	120	3.24	116	1.5	100	1.5	43	106	972.8	NA	0.0000		9999	8830	11910	0	0
2019/01/01 00:15:00	BASE	2.74	122	3.24	116	1.5	100	1.5	43	105	972.8	NA	0.0000		9999	8730	10960	0	0
2019/01/01 00:16:00	BASE	2.64	123	3.24	116	1.5	100	1.5	43	104	972.8	NA	0.0000		9999	8660	10960	0	0
2019/01/01 00:17:00	BASE	2.58	121	3.24	116	1.5	100	1.5	42	102	972.8	NA	0.0000		9999	8760	11910	0	0
2019/01/01 00:18:00	BASE	2.65	119	3.24	116	1.5	100	1.5	42	101	972.8	NA	0.0000		9999	8690	11940	0	0
2019/01/01 00:19:00	BASE	2.65	118	3.24	116	1.5	100	1.5	41	100	972.9	NA	0.0000		9999	8690	10990	0	0
2019/01/01 00:20:00	BASE	2.63	117	3.24	116	1.5	100	1.5	41	99	972.9	NA	0.0000		9999	8630	11020	0	0
2019/01/01 00:21:00	BASE	2.58	120	3.24	116	1.5	100	1.5	41	99	972.9	NA	0.0000		9999	8630	10960	11840	0
2019/01/01 00:22:00	BASE	2.44	121	2.98	121	1.5	100	1.5	40	98	972.9	NA	0.0000		9999	8530	10990	11840	0
2019/01/01 00:23:00	BASE	2.52	122	2.88	117	1.5	100	1.5	40	97	972.9	NA	0.0000		9999	8530	11060	11810	0
2019/01/01 00:24:00	BASE	2.62	125	2.88	117	1.5	100	1.5	40	96	972.9	NA	0.0000		9999	11880	0	0	0
2019/01/01 00:25:00	BASE	2.61	125	2.88	117	1.5	100	1.5	39	95	972.9	NA	0.0000		9999	8500	11840	0	0
2019/01/01 00:26:00	BASE	2.54	125	2.88	117	1.5	100	1.5	39	94	972.9	NA	0.0000		9999	11810	0	0	0
2019/01/01 00:27:00	BASE	2.44	127	2.88	117	1.5	100	1.5	38	93	972.9	NA	0.0000		9999	8600	11840	0	0
2019/01/01 00:28:00	BASE	2.43	126	2.83	114	1.5	100	1.5	38	92	972.9	NA	0.0000		9999	8530	11120	11840	0
2019/01/01 00:29:00	BASE	2.46	126	2.83	114	1.5	100	1.5	38	91	972.9	NA	0.0000		9999	8530	11160	11910	0
2019/01/01 00:30:00	BASE	2.33	129	2.78	123	1.5	100	1.5	37	90	972.9	NA	0.0000		9999	8530	11880	0	0
2019/01/01 00:31:00	BASE	2.04	138	2.78	123	1.5	100	1.5	37	90	972.9	NA	0.0000		9999	8530	11810	0	0
2019/01/01 00:32:00	BASE	1.79	145	2.78	123	1.6	100	1.6	37	89	972.9	NA	0.0000		9999	8460	11750	0	0
2019/01/01 00:33:00	BASE	1.82	139	2.78	123	1.6	100	1.6	37	88	972.9	NA	0.0000		9999	8460	11750	0	0
2019/01/01 00:34:00	BASE	2.28	122	2.98	114	1.6	100	1.6	36	87	972.9	NA	0.0000		9999	8400	11710	0	0
2019/01/01 00:35:00	BASE	2.84	114	3.19	113	1.6	100	1.6	36	87	972.9	NA	0.0000		9999	950	8500	11810	0
2019/01/01 00:36:00	BASE	2.90	116	3.19	113	1.6	100	1.6	36	87	972.9	NA	0.0000		9999	950	8560	11840	0
2019/01/01 00:37:00	BASE	2.59	120	3.19	113	1.5	100	1.5	36	86	972.9	NA	0.0000		9999	8370	11580	0	0
2019/01/01 00:38:00	BASE	2.31	125	3.19	113	1.5	100	1.5	36	86	972.9	NA	0.0000		9999	8330	11710	0	0
2019/01/01 00:39:00	BASE	1.85	129	3.19	113	1.4	100	1.4	36	85	972.9	NA	0.0000		9999	8370	11810	0	0
2019/01/01 00:40:00	BASE	0.95	131	3.19	113	1.5	100	1.5	35	84	972.9	NA	0.0000		9999	8240	11580	0	0
2019/01/01 00:41:00	BASE	0.61	121	3.19	113	1.6	100	1.6	35	83	972.9	NA	0.0000		9999	8200	11780	0	0
2019/01/01 00:42:00	BASE	1.22	107	3.19	113	1.6	100	1.6	35	82	972.9	NA	0.0000		9999	8140	11810	0	0
2019/01/01 00:43:00	BASE	1.68	101	3.19	113	1.6	100	1.6	35	82	973.0	NA	0.0000		9999	8140	11750	0	0
2019/01/01 00:44:00	BASE	2.02	99	3.19	113	1.7	100	1.7	34	81	973.0	NA	0.0000		9999	8100	10830	11420	0
2019/01/01 00:45:00	BASE	2.29	98	2.83	120	1.6	100	1.6	34	81	973.0	NA	0.0000		9999	11390	0	0	0
2019/01/01 00:46:00	BASE	2.33	98	2.68	124	1.6	100	1.6	34	80	973.0	NA	0.0000		9999	11880	0	0	0
2019/01/01 00:47:00	BASE	2.29	97	2.62	97	1.6	100	1.6	34	79	973.0	NA	0.0000		9999	750	11980	0	0
2019/01/01 00:48:00	BASE	2.19	101	2.62	97	1.6	100	1.6	34	79	973.0	NA	0.0000		9999	690	0	0	0
2019/01/01 00:49:00	BASE	2.04	108	2.62	97	1.6	100	1.6	34	79	973.0	NA	0.0000		9999	11840	0	0	0
2019/01/01 00:50:00	BASE	1.94	114	2.62	97	1.6	100	1.6	34	79	973.0	NA	0.0000		9999	10700	11910	0	0
2019/01/01 00:51:00	BASE	1.98	119	2.62	97	1.5	100	1.5	34	78	973.0	NA	0.0000		9999	10700	0	0	0
2019/01/01 00:52:00	BASE	1.88	119	2.62	97	1.5	100	1.5	34	78	973.0	NA	0.0000		9999	10700	0	0	0
2019/01/01 00:53:00	BASE	1.74	114	2.62	97	1.5	100	1.5	33	78	973.0	NA	0.0000		9999	10890	11880	0	0
2019/01/01 00:54:00	BASE	1.70	111	2.62	97	1.5	100	1.5	33	77	973.0	NA	0.0000		9999	11320	0	0	0
2019/01/01 00:55:00	BASE	1.73	110	2.47	90	1.5	100	1.5	33	77	973.0	NA	0.0000		9999	10890	11250	11980	0
2019/01/01 00:56:00	BASE	1.83	111	2.47	90	1.5	100	1.5	33	76	973.0	NA	0.0000		9999	11880	0	0	0
2019/01/01 00:57:00	BASE	2.05	108	2.62	106	1.5	100	1.5	33	76	973.0	NA	0.0000		9999	11980	0	0	0
2019/01/01 00:58:00	BASE	2.30	109	2.68	116	1.5	100	1.5	33	75	973.0	NA	0.0000		9999	10960	11980	0	0
2019/01/01 00:59:00	BASE	2.18	111	2.68	116	1.5	100	1.5	32	74	973.0	NA	0.0000		9999	11940	0	0	0
2019/01/01 01:00:00	BASE	2.06	109	2.68	116	1.5	100	1.5	32	73	973.0	NA	0.0000		9999	11810	0	0	0
2019/01/01 01:01:00	BASE	2.17	114	2.68	116	1.5	100	1.5	31	72	973.0	NA	0.0000		9999	11750	0	0	0
2019/01/01 01:02:00	BASE	1.95	127	2.68	116	1.5	100	1.5	31	70	973.1	NA	0.0000		9999	10890	11980	0	0
2019/01/01 01:03:00	BASE	1.31	131	2.68	116	1.5	100	1.5	30	69	973.1	NA	0.0000		9999	10760	0	0	0
2019/01/01 01:04:00	BASE	1.11	114	2.68	116	1.6	100	1.6	29	67	973.1	NA	0.0000		9999	10830	11910	0	0
2019/01/01 01:05:00	BASE	1.51	98	2.68	116	1.6	100	1.6	29	66	973.2	NA	0.0000		9999	11910	0	0	0
2019/01/01 01:06:00	BASE	1.65	99	2.68	116	1.6	100	1.6	28	65	973.2	NA	0.0000		9999	10960	11880	0	0
2019/01/01 01:07:00	BASE	1.71	102	2.68	116	1.6	100	1.6	28	64	973.2	NA	0.0000		9999	11940	0	0	0
2019/01/01 01:08:00	BASE	1.83	108	2.42	122	1.6	100	1.6	27	63	973.2	NA	0.0000		9999	11910	0	0	0
2019/01/01 01:09:00	BASE	1.65	109	2.42	122	1.6	100	1.6	27	62	973.2	NA	0.0000		9999	10930	11710	0	0
2019/01/01 01:10:00	BASE	1.52	107	2.42	122	1.5	100	1.5	26	61	973.2	NA	0.0000		9999	11810	0	0	0
2019/01/01 01:11:00	BASE	1.57	104	2.06	114	1.5	100	1.5	26	60	973.2	NA	0.0000		9999	11940	0	0	0
2019/01/01 01:12:00	BASE	1.59	105	2.06	114	1.5	100	1.5	25	58	973.2	NA	0.0000		9999	10830	0	0	0
2019/01/01 01:13:00	BASE	1.66	107	2.06	114	1.5	100	1.5	24	57	973.2	NA	0.0000		9999	10890	11880	0	0
2019/01/01 01:14:00	BASE	1.61	109	2.06	114	1.5	100	1.5	24	55	973.2	NA	0.0000		9999	11840	0	0	0
2019/01/01 01:15:00	BASE	1.57	113	2.06	114	1.5	100	1.5	23	54	973.2	NA	0.0000		9999	10960	11750	0	0
2019/01/01 01:16:00	BASE	1.46	111	2.06	114	1.5	100	1.5	22	53	973.3	NA	0.0000		9999	10990	11710	0	0
2019/01/01 01:17:00	BASE	1.18	106	2.06	114	1.5	100	1.5	22	52	973.3	NA	0.0000		9999	11020	11910	0	0
2019/01/01 01:18:00	BASE	1.29	102	1.85	111	1.5	100	1.5	21	50	973.3	NA	0.0000		9999	11020	0	0	0
2019/01/01 01:19:00	BASE	1.56	105	1.85	111	1.6	100	1.6	20	49	973.3	NA	0.0000		9999	11090	11940	0	0
2019/01/01 01:20:00	BASE	1.59	111	1.85	111	1.6	100	1.6	20	48	973.3	NA	0.0000		9999	11910	0	0	0
2019/01/01 01:21:00	BASE	1.53	112	1.85	111	1.6	100	1.6	19	47	973.3	NA	0.0000		9999	12040	0	0	0
2019/01/01 01:22:00	BASE	1.38	109	1.85	111	1.5	100	1.5	19	46	973.3	NA	0.0000		9999	12040	0	0	0
2019/01/01 01:23:00	BASE	1.31	104	1.80	116	1.5	100	1.5	18	46	973.3	NA	0.0000		9999	12070	0	0	0
2019/01/01 01:24:00	BASE	1.34	104	1.80	116	1.5	100	1.5	18	45	973.3	NA	0.0000		9999	12040	0	0	0
2019/01/01 01:25:00	BASE	1.36	107	1.75	116	1.5	100	1.5	18	45	973.3	NA	0.0000		9999	12170	0	0	0
2019/01/01 01:26:00	BASE	1.33	108	1.75	116	1.5	100	1.5	18	44	973.3	NA	0.0000		9999	12070	0	0	0
2019/01/01 01:27:00	BASE	1.30	109	1.75	116	1.5	100	1.5	17	43	973.3	NA	0.0000		9999	12070	0	0	0
2019/01/01 01:28:00	BASE	1.38	115	1.75	116	1.5	100	1.5	17	42	973.3	NA	0.0000		9999	12140	0	0	0
2019/01/01 01:29:00	BASE	1.28	119	1.75	116	1.5	100	1.5	16	41	973.3	NA	0.0000		9999	12170	0	0	0
2019/01/01 01:30:00	BASE	0.74	115	1.75	116	1.5	100	1.5	16	40	973.3	NA	0.0000		9999	12110	0	0	0
2019/01/01 01:31:00	BASE	0.18	111	1.54	116	1.5	100	1.5	15	39	973.4	NA	0.0000		9999	12070	0	0	0
2019/01/01 01:32:00	BASE	0.48	114	1.54	116	1.5	100	1.5	15	38	973.4	NA	0.0000		9999	12110	0	0	0
2019/01/01 01:33:00	BASE	1.13	116	1.54	116	1.5	100	1.5	14	38	973.4	NA	0.0000		9999	12070	0	0	0
2019/01/01 01:34:00	BASE	1.38	114	1.75	111	1.5	100	1.5	14	37	973.4	NA	0.0000		9999	12110	0	0	0
2019/01/01 01:35:00	BASE	1.61	116	1.90	124	1.5	100	1.5	14	36	973.4	NA	0.0000		9999	12070	0	0	0
2019/01/01 01:36:00	BASE	1.57	121	1.90	124	1.5	100	1.5	14	36	973.4	NA	0.0000		9999	12040	0	0	0
2019/01/01 01:37:00	BASE	1.35	121	1.90	124	1.5	100	1.5	13	35	973.4	NA	0.0000		9999	12010	0	0	0
2019/01/01 01:38:00	BASE	1.44	122	1.95	125	1.4	100	1.4	13	34	973.4	NA	0.0000		9999	12010	0	0	0
2019/01/01 01:39:00	BASE	1.84	122	2.52	105	1.4	100	1.4	12	33	973.4	NA	0.0000		9999	12040	0	0	0
2019/01/01 01:40:00	BASE	1.92	126	2.68	125	1.4	100	1.4	12	32	973.4	NA	0.0000		9999	12110	0	0	0
2019/01/01 01:41:00	BASE	1.71	121	2.73	108	1.4	100	1.4	11	31	973.4	NA	0.0000		9999	11940	0	0	0
2019/01/01 01:42:00	BASE	2.25	113	3.55	130	1.4	100	1.4	11	31	973.4	NA	0.0000		9999	12210	0	0	0
2019/01/01 01:43:00	BASE	2.82	119	3.55	130	1.4	100	1.4	10	30	973.4	NA	0.0000		9999	6300	12140	0	0
2019/01/01 01:44:00	BASE	2.96	124	3.55	130	1.4	100	1.4	10	29	973.4	NA	0.0000		9999	12170	0	0	0
2019/01/01 01:45:00	BASE	3.05	124	3.55	130	1.5	100	1.5	10	29	973.4	NA	0.0000		9999	12210	0	0	0
2019/01/01 01:46:00	BASE	2.72	125	3.55	130	1.5	100	1.5	10	29	973.4	NA	0.0000		9999	12270	0	0	0
2019/01/01 01:47:00	BASE	2.56	128	3.55	130	1.5	100	1.5	10	28	973.4	NA	0.0000		9999	12270	0	0	0
2019/01/01 01:48:00	BASE	3.01	136	3.65	141	1.6	100	1.6	10	28	973.4	NA	0.0000		9999	12340	0	0	0
2019/01/01 01:49:00	BASE	3.25	144	3.65	141	1.6	100	1.6	10	27	973.4	NA	0.0000		9999	12370	0	0	0
2019/01/01 01:50:00	BASE	3.10	139	3.65	141	1.6	100	1.6	10	27	973.4	NA	0.0000		9999	12370	0	0	0
2019/01/01 01:51:00	BASE	2.66	134	3.65	141	1.7	100	1.7	10	27	973.4	NA	0.0000		9999	12400	0	0	0
2019/01/01 01:52:00	BASE	2.74	134	3.76	132	1.7	100	1.7	10	28	973.4	NA	0.0000		9999	12340	0	0	0
2019/01/01 01:53:00	BASE	2.90	130	3.76	132	1.7	100	1.7	10	27	973.4	NA	0.0000		9999	11250	12530	0	0
2019/01/01 01:54:00	BASE	2.55	128	3.76	132	1.7	99	1.6	10	27	973.4	NA	0.0000		9999	11220	12430	0	0
2019/01/01 01:55:00	BASE	2.44	128	3.76	132	1.7	99	1.5	10	27	973.4	NA	0.0000		9999	11220	12370	0	0
2019/01/01 01:56:00	BASE	2.38	123	3.76	132	1.7	98	1.4	10	27	973.4	NA	0.0000		9999	12270	0	0	0
2019/01/01 01:57:00	BASE	2.50	117	3.76	132	1.6	98	1.3	10	27	973.4	NA	0.0000		9999	11220	12270	0	0
2019/01/01 01:58:00	BASE	2.76	122	3.76	132	1.6	97	1.2	10	26	973.4	NA	0.0000		9999	11250	12140	0	0
2019/01/01 01:59:00	BASE	2.84	125	3.76	132	1.6	97	1.1	10	26	973.4	NA	0.0000		9999	11220	12400	0	0
2019/01/01 02:00:00	BASE	2.79	120	3.76	132	1.6	96	1.0	10	25	973.4	NA	0.0000		9999	11220	12400	0	0
2019/01/01 02:01:00	BASE	2.82	117	3.76	132	1.6	95	0.9	10	25	973.4	NA	0.0000		9999	12430	0	0	0
2019/01/01 02:02:00	BASE	2.96	114	3.55	125	1.5	95	0.8	10	24	973.4	NA	0.0000		9999	11190	12530	0	0
2019/01/01 02:03:00	BASE	3.68	112	4.63	110	1.5	93	0.6	9	24	973.4	NA	0.0000		9999	11060	12470	0	0
2019/01/01 02:04:00	BASE	4.00	116	4.63	110	1.5	92	0.4	9	23	973.4	NA	0.0000		9999	11160	12270	0	0
2019/01/01 02:05:00	BASE	3.58	122	4.63	110	1.6	91	0.2	9	23	973.4	NA	0.0000		9999	12430	0	0	0
2019/01/01 02:06:00	BASE	3.43	124	4.63	110	1.6	89	-0.0	9	22	973.4	NA	0.0000		9999	6100	12500	0	0
2019/01/01 02:07:00	BASE	3.22	122	4.63	110	1.6	88	-0.2	8	22	973.4	NA	0.0000		9999	11190	12300	0	0
2019/01/01 02:08:00	BASE	2.89	119	4.63	110	1.6	87	-0.3	8	21	973.4	NA	0.0000		9999	11160	12300	0	0
2019/01/01 02:09:00	BASE	2.75	115	4.63	110	1.6	87	-0.3	8	20	973.4	NA	0.0000		9999	11120	12570	0	0
2019/01/01 02:10:00	BASE	2.68	112	4.63	110	1.6	87	-0.3	8	20	973.4	NA	0.0000		9999	11090	12430	0	0
2019/01/01 02:11:00	BASE	2.66	111	4.63	110	1.6	88	-0.2	7	20	973.4	NA	0.0000		9999	6070	0	0	0
2019/01/01 02:12:00	BASE	2.52	107	4.63	110	1.5	89	-0.1	7	19	973.4	NA	0.0000		9999	6040	11090	0	0
2019/01/01 02:13:00	BASE	2.47	103	4.01	110	1.5	90	-0.0	7	19	973.4	NA	0.0000		9999	6040	11090	0	0
2019/01/01 02:14:00	BASE	2.62	103	3.70	123	1.5	90	0.1	7	18	973.4	NA	0.0000		9999	6070	11120	0	0
2019/01/01 02:15:00	BASE	2.79	101	3.70	123	1.5	91	0.2	7	18	973.4	NA	0.0000		9999	6100	11160	0	0
2019/01/01 02:16:00	BASE	2.84	96	3.29	120	1.6	91	0.2	6	18	973.4	NA	0.0000		9999	6100	0	0	0
2019/01/01 02:17:00	BASE	2.83	89	3.24	98	1.6	91	0.3	6	17	973.4	NA	0.0000		9999	6070	0	0	0
2019/01/01 02:18:00	BASE	2.97	86	3.45	92	1.6	92	0.5	6	17	973.4	NA	0.0000		9999	6040	11120	12530	0
2019/01/01 02:19:00	BASE	3.13	87	3.45	87	1.6	93	0.6	6	17	973.4	NA	0.0000		9999	5970	12530	0	0
2019/01/01 02:20:00	BASE	3.37	90	3.96	90	1.6	95	0.8	6	16	973.4	NA	0.0000		9999	5970	11120	12530	0
2019/01/01 02:21:00	BASE	3.50	92	3.96	90	1.6	96	1.0	6	16	973.4	NA	0.0000		9999	5940	11120	0	0
2019/01/01 02:22:00	BASE	3.55	92	4.22	92	1.6	96	1.0	6	16	973.4	NA	0.0000		9999	5970	0	0	0
2019/01/01 02:23:00	BASE	3.66	94	4.22	92	1.7	95	0.9	5	16	973.4	NA	0.0000		9999	5970	11020	0	0
2019/01/01 02:24:00	BASE	3.66	97	4.22	92	1.7	94	0.8	5	15	973.4	NA	0.0000		9999	5970	12400	0	0
2019/01/01 02:25:00	BASE	3.54	98	4.22	92	1.7	93	0.6	5	15	973.4	NA	0.0000		9999	5940	12240	0	0
2019/01/01 02:26:00	BASE	3.35	94	4.22	92	1.7	92	0.5	5	15	973.4	NA	0.0000		9999	5940	11090	12400	0
2019/01/01 02:27:00	BASE	3.22	91	4.22	92	1.7	91	0.5	5	14	973.5	NA	0.0000		9999	5940	10990	12470	0
2019/01/01 02:28:00	BASE	3.30	92	4.22	92	1.7	92	0.5	5	14	973.5	NA	0.0000		9999	6000	10990	12370	0
2019/01/01 02:29:00	BASE	3.63	95	4.22	92	1.7	93	0.6	5	14	973.4	NA	0.0000		9999	10760	12170	0	0
2019/01/01 02:30:00	BASE	3.81	98	4.22	92	1.6	93	0.6	5	14	973.4	NA	0.0000		9999	11090	12270	0	0
2019/01/01 02:31:00	BASE	3.59	97	4.22	92	1.6	94	0.7	4	13	973.4	NA	0.0000		9999	11060	12340	0	0
2019/01/01 02:32:00	BASE	3.39	95	4.17	93	1.6	94	0.7	4	13	973.4	NA	0.0000		9999	11060	12400	0	0
2019/01/01 02:33:00	BASE	3.65	93	4.22	89	1.6	93	0.6	4	13	973.4	NA	0.0000		9999	11060	12400	0	0
2019/01/01 02:34:00	BASE	3.91	92	4.22	89	1.6	93	0.5	4	12	973.4	NA	0.0000		9999	12170	0	0	0
2019/01/01 02:35:00	BASE	3.86	94	4.22	89	1.6	92	0.5	4	12	973.5	NA	0.0000		9999	11060	12400	0	0
2019/01/01 02:36:00	BASE	3.79	96	4.22	89	1.6	92	0.5	4	12	973.5	NA	0.0000		9999	10790	0	0	0
2019/01/01 02:37:00	BASE	3.76	96	4.22	89	1.6	93	0.6	4	12	973.4	NA	0.0000		9999	10760	0	0	0
2019/01/01 02:38:00	BASE	3.78	97	4.22	89	1.6	93	0.6	4	11	973.4	NA	0.0000		9999	10760	12400	0	0
2019/01/01 02:39:00	BASE	3.71	98	4.22	89	1.6	93	0.6	3	11	973.4	NA	0.0000		9999	10760	12400	0	0
2019/01/01 02:40:00	BASE	3.63	97	4.22	89	1.6	93	0.6	3	11	973.4	NA	0.0000		9999	10760	12140	0	0
2019/01/01 02:41:00	BASE	3.54	94	4.22	89	1.6	93	0.5	3	10	973.4	NA	0.0000		9999	10760	0	0	0
2019/01/01 02:42:00	BASE	3.50	93	4.22	89	1.6	92	0.4	3	10	973.5	NA	0.0000		9999	10760	0	0	0
2019/01/01 02:43:00	BASE	3.43	91	4.12	90	1.6	91	0.3	3	10	973.5	NA	0.0000		9999	10760	0	0	0
2019/01/01 02:44:00	BASE	3.18	88	4.06	101	1.5	91	0.2	3	10	973.5	NA	0.0000		9999	10760	0	0	0
2019/01/01 02:45:00	BASE	3.04	90	4.06	101	1.5	91	0.2	3	10	973.5	NA	0.0000		9999	10730	11160	0	0
2019/01/01 02:46:00	BASE	3.02	93	4.06	101	1.5	91	0.2	3	9	973.5	NA	0.0000		9999	10760	12430	0	0
2019/01/01 02:47:00	BASE	3.07	93	4.06	101	1.5	91	0.2	3	9	973.5	NA	0.0000		9999	10790	12370	0	0
2019/01/01 02:48:00	BASE	3.05	94	3.91	95	1.5	91	0.2	3	9	973.5	NA	0.0000		9999	10760	12300	0	0
2019/01/01 02:49:00	BASE	3.05	95	3.91	95	1.5	91	0.2	3	9	973.5	NA	0.0000		9999	10760	0	0	0
2019/01/01 02:50:00	BASE	3.10	94	3.65	92	1.5	91	0.2	3	8	973.5	NA	0.0000		9999	10760	0	0	0
2019/01/01 02:51:00	BASE	3.15	93	3.60	93	1.5	90	0.1	3	8	973.5	NA	0.0000		9999	10760	12370	0	0
2019/01/01 02:52:00	BASE	3.35	96	3.65	98	1.5	90	0.0	3	8	973.5	NA	0.0000		9999	10790	12300	0	0
2019/01/01 02:53:00	BASE	3.31	99	3.65	98	1.6	89	-0.0	2	8	973.5	NA	0.0000		9999	12270	0	0	0
2019/01/01 02:54:00	BASE	3.22	96	3.65	98	1.6	89	-0.1	2	7	973.5	NA	0.0000		9999	12370	0	0	0
2019/01/01 02:55:00	BASE	3.32	93	3.65	98	1.6	88	-0.2	2	7	973.5	NA	0.0000		9999	11120	12400	0	0
2019/01/01 02:56:00	BASE	3.39	90	3.65	98	1.6	88	-0.3	2	7	973.5	NA	0.0000		9999	10930	12340	0	0
2019/01/01 02:57:00	BASE	3.42	90	3.65	98	1.5	87	-0.3	2	7	973.5	NA	0.0000		9999	10860	12340	0	0
2019/01/01 02:58:00	BASE	3.34	89	3.65	98	1.5	87	-0.4	2	7	973.5	NA	0.0000		9999	10960	12370	0	0
2019/01/01 02:59:00	BASE	3.23	88	3.65	98	1.5	86	-0.5	2	7	973.5	NA	0.0000		9999	10960	12340	0	0
2019/01/01 03:00:00	BASE	3.09	90	3.65	98	1.5	86	-0.7	2	7	973.5	NA	0.0000		9999	10830	0	0	0
2019/01/01 03:01:00	BASE	2.93	92	3.65	98	1.5	85	-0.8	2	6	973.5	NA	0.0000		9999	10890	0	0	0
2019/01/01 03:02:00	BASE	2.93	94	3.50	90	1.5	84	-0.9	2	6	973.5	NA	0.0000		9999	10890	0	0	0
2019/01/01 03:03:00	BASE	3.04	96	3.50	90	1.5	84	-1.0	2	6	973.5	NA	0.0000		9999	10890	0	0	0
2019/01/01 03:04:00	BASE	3.18	97	3.65	103	1.5	83	-1.0	2	6	973.5	NA	0.0000		9999	10890	0	0	0
2019/01/01 03:05:00	BASE	3.09	95	3.65	103	1.6	83	-1.1	2	6	973.5	NA	0.0000		9999	10860	0	0	0
2019/01/01 03:06:00	BASE	2.91	91	3.65	103	1.6	82	-1.1	2	6	973.5	NA	0.0000		9999	10890	0	0	0
2019/01/01 03:07:00	BASE	2.98	91	3.65	103	1.6	82	-1.1	2	6	973.5	NA	0.0000		9999	10930	0	0	0
2019/01/01 03:08:00	BASE	3.20	90	3.65	103	1.6	81	-1.3	2	5	973.5	NA	0.0000		9999	10960	0	0	0
2019/01/01 03:09:00	BASE	3.57	89	4.12	91	1.6	80	-1.4	2	5	973.5	NA	0.0000		9999	10890	0	0	0
2019/01/01 03:10:00	BASE	3.80	89	4.12	91	1.6	80	-1.5	2	5	973.5	NA	0.0000		9999	8990	10960	0	0
2019/01/01 03:11:00	BASE	3.77	90	4.12	91	1.6	79	-1.6	2	5	973.5	NA	0.0000		9999	8960	10960	0	0
2019/01/01 03:12:00	BASE	3.98	90	4.68	91	1.7	78	-1.7	2	5	973.5	NA	0.0000		9999	8990	10960	0	0
2019/01/01 03:13:00	BASE	4.19	92	4.68	91	1.7	78	-1.8	2	5	973.5	NA	0.0000		9999	8920	0	0	0
2019/01/01 03:14:00	BASE	4.07	94	4.68	91	1.7	77	-2.0	2	5	973.5	NA	0.0000		9999	8920	11090	0	0
2019/01/01 03:15:00	BASE	4.00	93	4.68	91	1.7	76	-2.1	2	5	973.5	NA	0.0000		9999	8920	10990	0	0
2019/01/01 03:16:00	BASE	4.15	91	4.68	91	1.7	75	-2.3	2	5	973.5	NA	0.0000		9999	8920	10960	0	0
2019/01/01 03:17:00	BASE	4.24	90	4.68	91	1.8	73	-2.6	2	5	973.5	NA	0.0000		9999	8990	11020	0	0
2019/01/01 03:18:00	BASE	4.12	91	4.68	91	1.8	71	-2.8	2	5	973.5	NA	0.0000		9999	8960	10990	0	0
2019/01/01 03:19:00	BASE	3.95	89	4.68	91	1.8	70	-3.1	2	4	973.5	NA	0.0000		9999	8920	10990	0	0
2019/01/01 03:20:00	BASE	3.68	90	4.68	91	1.8	69	-3.3	1	4	973.5	NA	0.0000		9999	10930	0	0	0
2019/01/01 03:21:00	BASE	3.44	93	4.68	91	1.9	67	-3.5	1	4	973.5	NA	0.0000		9999	10960	0	0	0
2019/01/01 03:22:00	BASE	3.51	96	4.58	92	1.8	67	-3.6	1	4	973.5	NA	0.0000		9999	10960	0	0	0
2019/01/01 03:23:00	BASE	3.72	94	4.58	92	1.8	67	-3.7	1	4	973.5	NA	0.0000		9999	10960	0	0	0
2019/01/01 03:24:00	BASE	3.61	90	4.58	92	1.8	66	-3.8	1	4	973.5	NA	0.0000		9999	10960	0	0	0
2019/01/01 03:25:00	BASE	3.38	92	4.58	92	1.8	66	-3.8	1	4	973.5	NA	0.0000		9999	10960	12110	0	0
2019/01/01 03:26:00	BASE	3.39	93	4.58	92	1.8	66	-3.9	1	4	973.5	NA	0.0000		9999	10930	12110	0	0
2019/01/01 03:27:00	BASE	3.46	94	4.32	99	1.8	65	-4.0	1	4	973.5	NA	0.0000		9999	8920	10960	0	0
2019/01/01 03:28:00	BASE	3.56	96	4.32	99	1.9	65	-4.1	1	4	973.5	NA	0.0000		9999	8920	10960	0	0
2019/01/01 03:29:00	BASE	3.86	98	4.37	104	1.9	64	-4.2	1	4	973.5	NA	0.0000		9999	10960	0	0	0
2019/01/01 03:30:00	BASE	3.84	101	4.37	104	1.9	63	-4.4	1	4	973.5	NA	0.0000		9999	10930	0	0	0
2019/01/01 03:31:00	BASE	3.53	103	4.37	104	1.9	62	-4.6	1	4	973.5	NA	0.0000		9999	10930	0	0	0
2019/01/01 03:32:00	BASE	3.28	105	4.37	104	1.9	61	-4.9	1	4	973.5	NA	0.0000		9999	10930	0	0	0
2019/01/01 03:33:00	BASE	3.15	106	4.37	104	1.9	60	-5.0	1	4	973.5	NA	0.0000		9999	10930	12110	0	0
2019/01/01 03:34:00	BASE	3.40	108	4.37	104	1.9	60	-5.0	1	4	973.5	NA	0.0000		9999	10930	12040	0	0
2019/01/01 03:35:00	BASE	3.44	108	4.37	104	1.9	60	-5.1	1	3	973.5	NA	0.0000		9999	10930	12140	0	0
2019/01/01 03:36:00	BASE	3.61	104	4.37	104	1.9	60	-5.1	1	3	973.5	NA	0.0000		9999	10990	12170	0	0
2019/01/01 03:37:00	BASE	3.71	100	4.37	104	1.9	60	-5.1	1	3	973.5	NA	0.0000		9999	12040	0	0	0
2019/01/01 03:38:00	BASE	3.42	100	4.37	104	1.9	60	-5.1	1	3	973.5	NA	0.0000		9999	12040	0	0	0
2019/01/01 03:39:00	BASE	3.47	94	4.27	98	1.9	59	-5.2	1	3	973.5	NA	0.0000		9999	10960	12010	0	0
2019/01/01 03:40:00	BASE	3.64	87	4.27	98	2.0	59	-5.1	1	3	973.5	NA	0.0000		9999	10890	12110	0	0
2019/01/01 03:41:00	BASE	3.59	87	4.27	98	2.0	60	-5.1	1	3	973.5	NA	0.0000		9999	10960	11980	0	0
2019/01/01 03:42:00	BASE	3.61	87	4.27	98	1.9	60	-5.0	1	3	973.5	NA	0.0000		9999	10960	0	0	0
2019/01/01 03:43:00	BASE	3.65	86	4.27	98	1.9	61	-4.9	1	3	973.5	NA	0.0000		9999	10930	12040	0	0
2019/01/01 03:44:00	BASE	3.43	85	4.27	98	2.0	61	-4.8	1	3	973.5	NA	0.0000		9999	10890	12070	0	0
2019/01/01 03:45:00	BASE	3.25	86	4.27	98	1.9	62	-4.7	1	3	973.5	NA	0.0000		9999	10960	12070	0	0
2019/01/01 03:46:00	BASE	3.32	87	4.01	85	1.9	62	-4.6	1	3	973.5	NA	0.0000		9999	10960	12010	0	0
2019/01/01 03:47:00	BASE	3.53	91	4.01	85	1.8	63	-4.4	1	3	973.5	NA	0.0000		9999	11980	0	0	0
2019/01/01 03:48:00	BASE	3.64	96	4.01	85	1.7	65	-4.2	1	3	973.5	NA	0.0000		9999	10960	12010	0	0
2019/01/01 03:49:00	BASE	3.64	95	4.01	85	1.6	67	-3.9	1	3	973.5	NA	0.0000		9999	10930	11880	0	0
2019/01/01 03:50:00	BASE	3.66	89	4.12	82	1.6	68	-3.8	1	3	973.5	NA	0.0000		9999	10930	11840	0	0
2019/01/01 03:51:00	BASE	4.00	82	4.68	82	1.6	68	-3.8	1	3	973.5	NA	0.0000		9999	10960	11750	0	0
2019/01/01 03:52:00	BASE	4.37	79	4.84	76	1.6	66	-4.0	1	3	973.5	NA	0.0000		9999	11780	0	0	0
2019/01/01 03:53:00	BASE	4.33	80	4.84	76	1.7	65	-4.3	1	3	973.6	NA	0.0000		9999	11750	0	0	0
2019/01/01 03:54:00	BASE	4.39	84	4.94	86	1.7	63	-4.6	1	3	973.6	NA	0.0000		9999	8990	11810	0	0
2019/01/01 03:55:00	BASE	4.38	90	4.94	86	1.7	62	-4.8	1	3	973.6	NA	0.0000		9999	8920	11840	0	0
2019/01/01 03:56:00	BASE	4.08	94	4.94	86	1.7	62	-4.8	1	3	973.6	NA	0.0000		9999	8890	11940	0	0
2019/01/01 03:57:00	BASE	3.82	93	4.94	86	1.7	63	-4.7	1	3	973.6	NA	0.0000		9999	8990	11750	0	0
2019/01/01 03:58:00	BASE	3.55	91	4.94	86	1.6	63	-4.6	1	3	973.6	NA	0.0000		9999	8960	11710	0	0
2019/01/01 03:59:00	BASE	3.34	94	4.94	86	1.6	64	-4.5	1	3	973.6	NA	0.0000		9999	8960	11650	0	0
2019/01/01 04:00:00	BASE	3.18	96	4.94	86	1.7	63	-4.7	1	3	973.6	NA	0.0000		9999	11550	0	0	0
2019/01/01 04:01:00	BASE	3.18	100	4.94	86	1.7	61	-4.9	1	3	973.6	NA	0.0000		9999	11680	0	0	0
2019/01/01 04:02:00	BASE	3.20	107	4.94	86	1.8	60	-5.1	1	3	973.6	NA	0.0000		9999	11680	0	0	0
2019/01/01 04:03:00	BASE	3.16	108	4.94	86	1.8	59	-5.3	1	3	973.6	NA	0.0000		9999	11680	0	0	0
2019/01/01 04:04:00	BASE	3.31	107	4.58	94	1.9	58	-5.6	1	3	973.6	NA	0.0000		9999	11650	0	0	0
2019/01/01 04:05:00	BASE	3.54	108	4.37	91	1.9	57	-5.7	1	3	973.6	NA	0.0000		9999	11680	0	0	0
2019/01/01 04:06:00	BASE	3.55	109	3.91	95	1.9	56	-5.9	1	3	973.6	NA	0.0000		9999	11650	0	0	0
2019/01/01 04:07:00	BASE	3.54	106	3.91	95	1.9	55	-6.1	1	3	973.6	NA	0.0000		9999	11680	0	0	0
2019/01/01 04:08:00	BASE	3.60	102	3.91	104	2.0	54	-6.3	1	3	973.6	NA	0.0000		9999	11650	0	0	0
2019/01/01 04:09:00	BASE	3.62	103	3.96	110	2.0	54	-6.3	1	3	973.6	NA	0.0000		9999	11680	0	0	0
2019/01/01 04:10:00	BASE	3.60	103	3.96	110	1.9	54	-6.3	1	3	973.6	NA	0.0000		9999	11680	0	0	0
2019/01/01 04:11:00	BASE	3.55	100	3.96	110	1.9	54	-6.3	1	3	973.6	NA	0.0000		9999	11680	0	0	0
2019/01/01 04:12:00	BASE	3.53	100	3.96	110	1.9	55	-6.2	1	3	973.6	NA	0.0000		9999	9220	11680	0	0
2019/01/01 04:13:00	BASE	3.48	102	3.96	110	1.9	56	-6.0	1	3	973.6	NA	0.0000		9999	11610	0	0	0
2019/01/01 04:14:00	BASE	3.47	105	3.96	110	1.8	57	-5.9	1	3	973.6	NA	0.0000		9999	9220	11880	0	0
2019/01/01 04:15:00	BASE	3.51	105	3.96	110	1.8	58	-5.7	1	3	973.6	NA	0.0000		9999	11910	13880	0	0
2019/01/01 04:16:00	BASE	3.66	103	4.06	97	1.8	58	-5.6	1	3	973.6	NA	0.0000		9999	11810	13910	0	0
2019/01/01 04:17:00	BASE	4.01	98	4.48	95	1.8	59	-5.5	1	3	973.6	NA	0.0000		9999	11810	0	0	0
2019/01/01 04:18:00	BASE	4.20	97	4.48	95	1.7	59	-5.4	1	3	973.6	NA	0.0000		9999	9190	11810	13880	0
2019/01/01 04:19:00	BASE	4.15	100	4.48	95	1.7	59	-5.4	1	3	973.6	NA	0.0000		9999	9190	11940	13810	0
2019/01/01 04:20:00	BASE	4.15	99	4.48	95	1.8	59	-5.5	1	3	973.6	NA	0.0000		9999	9190	11940	13810	0
2019/01/01 04:21:00	BASE	4.22	94	4.48	88	1.8	58	-5.5	1	3	973.6	NA	0.0000		9999	9190	13850	0	0
2019/01/01 04:22:00	BASE	4.24	91	4.48	88	1.8	58	-5.5	1	3	973.6	NA	0.0000		9999	9220	11880	13810	0
2019/01/01 04:23:00	BASE	4.37	90	4.78	90	1.8	58	-5.6	1	3	973.6	NA	0.0000		9999	9220	13810	0	0
2019/01/01 04:24:00	BASE	4.53	90	4.89	90	1.8	58	-5.7	1	3	973.6	NA	0.0000		9999	13810	0	0	0
2019/01/01 04:25:00	BASE	4.57	91	4.89	90	1.8	58	-5.7	1	3	973.6	NA	0.0000		9999	9220	13850	0	0
2019/01/01 04:26:00	BASE	4.52	92	4.89	90	1.8	58	-5.6	1	3	973.6	NA	0.0000		9999	13810	0	0	0
2019/01/01 04:27:00	BASE	4.40	90	4.89	90	1.8	58	-5.7	1	3	973.6	NA	0.0000		9999	13810	0	0	0
2019/01/01 04:28:00	BASE	4.37	87	4.89	90	1.8	58	-5.7	1	3	973.6	NA	0.0000		9999	12040	13850	0	0
2019/01/01 04:29:00	BASE	4.19	86	4.89	90	1.8	58	-5.7	1	3	973.7	NA	0.0000		9999	13550	0	0	0
2019/01/01 04:30:00	BASE	4.01	90	4.89	90	1.8	58	-5.7	1	3	973.7	NA	0.0000		9999	9190	13550	0	0
2019/01/01 04:31:00	BASE	4.14	96	4.89	90	1.8	58	-5.7	1	3	973.7	NA	0.0000		9999	13550	0	0	0
2019/01/01 04:32:00	BASE	4.01	97	4.89	90	1.8	58	-5.7	1	3	973.7	NA	0.0000		9999	13580	0	0	0
2019/01/01 04:33:00	BASE	3.76	95	4.89	90	1.7	58	-5.7	1	3	973.6	NA	0.0000		9999	13550	0	0	0
2019/01/01 04:34:00	BASE	3.84	94	4.78	91	1.7	58	-5.7	1	3	973.6	NA	0.0000		9999	13580	0	0	0
2019/01/01 04:35:00	BASE	3.73	92	4.63	92	1.7	58	-5.7	1	3	973.6	NA	0.0000		9999	13620	0	0	0
2019/01/01 04:36:00	BASE	3.59	94	4.58	86	1.7	58	-5.7	1	3	973.6	NA	0.0000		9999	13620	0	0	0
2019/01/01 04:37:00	BASE	3.76	93	4.58	86	1.7	58	-5.8	1	3	973.6	NA	0.0000		9999	11940	13620	0	0
2019/01/01 04:38:00	BASE	3.91	92	4.48	99	1.7	57	-5.8	1	3	973.6	NA	0.0000		9999	11940	13620	0	0
2019/01/01 04:39:00	BASE	3.76	93	4.48	99	1.8	57	-5.9	1	3	973.6	NA	0.0000		9999	13620	0	0	0
2019/01/01 04:40:00	BASE	3.54	88	4.48	99	1.8	57	-5.9	1	3	973.6	NA	0.0000		9999	13620	0	0	0
2019/01/01 04:41:00	BASE	3.66	84	4.37	111	1.7	57	-5.8	1	3	973.6	NA	0.0000		9999	11940	13620	0	0
2019/01/01 04:42:00	BASE	3.84	87	4.37	111	1.7	58	-5.7	1	3	973.7	NA	0.0000		9999	11910	13650	0	0
2019/01/01 04:43:00	BASE	3.72	89	4.37	111	1.7	58	-5.7	1	3	973.7	NA	0.0000		9999	11880	13620	0	0
2019/01/01 04:44:00	BASE	3.67	89	4.37	111	1.6	59	-5.6	1	3	973.6	NA	0.0000		9999	11840	12630	13620	0
2019/01/01 04:45:00	BASE	3.83	93	4.53	98	1.6	59	-5.6	1	3	973.6	NA	0.0000		9999	11840	0	0	0
2019/01/01 04:46:00	BASE	4.14	93	4.58	91	1.6	59	-5.5	1	3	973.6	NA	0.0000		9999	11880	12240	0	0
2019/01/01 04:47:00	BASE	4.19	89	4.58	91	1.6	59	-5.6	1	3	973.6	NA	0.0000		9999	12070	0	0	0
2019/01/01 04:48:00	BASE	3.94	85	4.58	91	1.6	58	-5.7	1	3	973.6	NA	0.0000		9999	11940	0	0	0
2019/01/01 04:49:00	BASE	3.75	83	4.58	91	1.7	58	-5.8	1	3	973.6	NA	0.0000		9999	11940	0	0	0
2019/01/01 04:50:00	BASE	3.77	81	4.58	91	1.7	57	-5.9	1	3	973.6	NA	0.0000		9999	11940	0	0	0
2019/01/01 04:51:00	BASE	3.99	80	4.58	91	1.7	56	-6.0	1	4	973.6	NA	0.0000		9999	11840	0	0	0
2019/01/01 04:52:00	BASE	4.03	79	4.58	91	1.7	57	-5.9	1	4	973.6	NA	0.0000		9999	11810	12240	0	0
2019/01/01 04:53:00	BASE	3.97	77	4.58	91	1.6	58	-5.7	1	4	973.6	NA	0.0000		9999	11810	0	0	0
2019/01/01 04:54:00	BASE	4.23	76	4.99	77	1.6	59	-5.5	1	4	973.6	NA	0.0000		9999	11810	0	0	0
2019/01/01 04:55:00	BASE	4.76	80	5.25	87	1.5	60	-5.4	1	4	973.7	NA	0.0000		9999	11780	0	0	0
2019/01/01 04:56:00	BASE	4.95	84	5.25	87	1.5	61	-5.2	1	4	973.7	NA	0.0000		9999	11750	0	0	0
2019/01/01 04:57:00	BASE	4.73	86	5.25	87	1.5	61	-5.3	1	4	973.7	NA	0.0000		9999	11780	0	0	0
2019/01/01 04:58:00	BASE	4.21	86	5.25	87	1.6	60	-5.5	1	4	973.7	NA	0.0000		9999	12070	0	0	0
2019/01/01 04:59:00	BASE	3.85	86	5.25	87	1.6	59	-5.6	1	4	973.7	NA	0.0000		9999	11780	0	0	0
2019/01/01 05:00:00	BASE	3.85	88	5.25	87	1.7	58	-5.7	1	4	973.7	NA	0.0000		9999	11710	12140	0	0
2019/01/01 05:01:00	BASE	3.69	89	5.25	87	1.7	57	-5.8	2	4	973.7	NA	0.0000		9999	11780	0	0	0
2019/01/01 05:02:00	BASE	3.55	91	5.25	87	1.7	57	-5.8	2	4	973.7	NA	0.0000		9999	11680	0	0	0
2019/01/01 05:03:00	BASE	3.64	91	5.25	87	1.7	58	-5.7	2	4	973.7	NA	0.0000		9999	11710	12140	0	0
2019/01/01 05:04:00	BASE	3.67	90	5.25	87	1.6	59	-5.6	2	4	973.7	NA	0.0000		9999	8070	11680	12240	0
2019/01/01 05:05:00	BASE	3.54	92	5.14	85	1.4	60	-5.4	2	4	973.7	NA	0.0000		9999	8100	11750	0	0
2019/01/01 05:06:01	BASE	3.54	95	4.78	88	1.4	61	-5.3	2	4	973.7	NA	0.0000		9999	8070	11710	12170	0
2019/01/01 05:07:00	BASE	3.82	97	4.37	96	1.3	62	-5.3	2	4	973.7	NA	0.0000		9999	11680	0	0	0
2019/01/01 05:08:00	BASE	4.00	99	4.37	96	1.3	61	-5.3	2	5	973.7	NA	0.0000		9999	7220	11840	0	0
2019/01/01 05:09:00	BASE	3.90	100	4.37	96	1.4	60	-5.6	2	5	973.7	NA	0.0000		9999	7190	11750	0	0
2019/01/01 05:10:00	BASE	3.96	102	4.37	107	1.5	58	-5.8	2	5	973.7	NA	0.0000		9999	7120	11750	0	0
2019/01/01 05:11:00	BASE	4.09	104	4.37	107	1.7	56	-6.1	2	5	973.7	NA	0.0000		9999	6960	8100	11680	0
2019/01/01 05:12:00	BASE	4.08	103	4.42	101	1.8	54	-6.5	2	5	973.7	NA	0.0000		9999	6860	8100	11940	0
2019/01/01 05:13:00	BASE	4.11	100	4.48	104	1.9	53	-6.7	2	5	973.7	NA	0.0000		9999	6820	8070	11610	0
2019/01/01 05:14:00	BASE	4.22	100	4.58	101	2.0	52	-6.8	2	5	973.7	NA	0.0000		9999	6730	11650	0	0
2019/01/01 05:15:00	BASE	4.23	101	4.58	101	2.0	52	-6.9	2	5	973.7	NA	0.0000		9999	6760	11680	0	0
2019/01/01 05:16:00	BASE	4.21	103	4.58	101	2.0	52	-6.8	2	5	973.7	NA	0.0000		9999	6690	11880	0	0
2019/01/01 05:17:00	BASE	4.33	105	4.58	104	2.0	52	-6.9	2	6	973.7	NA	0.0000		9999	6660	11840	0	0
2019/01/01 05:18:00	BASE	4.36	104	4.58	104	2.0	52	-6.9	2	6	973.7	NA	0.0000		9999	6660	11780	0	0
2019/01/01 05:19:00	BASE	4.24	100	4.58	104	2.0	51	-7.0	2	6	973.7	NA	0.0000		9999	8070	11650	0	0
2019/01/01 05:20:00	BASE	4.09	98	4.58	104	2.0	51	-7.0	2	6	973.7	NA	0.0000		9999	8070	11650	0	0
2019/01/01 05:21:00	BASE	3.93	94	4.58	104	2.0	52	-6.9	2	6	973.7	NA	0.0000		9999	8070	11840	0	0
2019/01/01 05:22:00	BASE	3.72	89	4.58	104	1.9	53	-6.7	2	6	973.8	NA	0.0000		9999	8070	11810	14400	0
2019/01/01 05:23:00	BASE	3.60	87	4.58	104	1.8	54	-6.5	2	6	973.8	NA	0.0000		9999	7050	11750	0	0
2019/01/01 05:24:00	BASE	3.54	89	4.58	104	1.7	55	-6.3	2	6	973.8	NA	0.0000		9999	6890	8070	11650	0
2019/01/01 05:25:00	BASE	3.52	93	4.58	104	1.7	56	-6.1	2	6	973.9	NA	0.0000		9999	6820	8100	11710	0
2019/01/01 05:26:00	BASE	3.57	94	4.58	104	1.6	57	-6.1	2	6	973.9	NA	0.0000		9999	6890	8100	11810	0
2019/01/01 05:27:00	BASE	3.38	93	4.48	102	1.6	56	-6.2	2	7	973.9	NA	0.0000		9999	6920	8070	0	0
2019/01/01 05:28:00	BASE	3.13	92	4.27	103	1.6	56	-6.3	2	7	973.9	NA	0.0000		9999	6920	0	0	0
2019/01/01 05:29:00	BASE	3.09	91	4.22	96	1.7	55	-6.3	2	7	973.9	NA	0.0000		9999	6990	7970	0	0
2019/01/01 05:30:00	BASE	3.07	88	4.01	92	1.7	55	-6.5	2	7	973.9	NA	0.0000		9999	6890	7970	0	0
2019/01/01 05:31:00	BASE	3.01	88	3.81	94	1.8	54	-6.5	3	7	973.9	NA	0.0000		9999	6760	7940	0	0
2019/01/01 05:32:00	BASE	2.97	90	3.81	94	1.8	55	-6.4	3	7	973.9	NA	0.0000		9999	6660	7940	0	0
2019/01/01 05:33:00	BASE	2.84	92	3.81	94	1.8	54	-6.5	3	7	973.9	NA	0.0000		9999	6630	7940	0	0
2019/01/01 05:34:00	BASE	2.88	94	3.81	94	1.8	53	-6.7	3	8	973.9	NA	0.0000		9999	6560	7510	0	0
2019/01/01 05:35:00	BASE	2.91	98	3.81	94	1.9	53	-6.8	3	8	973.9	NA	0.0000		9999	6560	7450	0	0
2019/01/01 05:36:00	BASE	2.76	103	3.60	92	1.9	52	-6.9	3	8	973.9	NA	0.0000		9999	6560	8010	0	0
2019/01/01 05:37:00	BASE	2.54	106	3.34	94	1.9	51	-7.1	3	8	973.9	NA	0.0000		9999	6630	8040	0	0
2019/01/01 05:38:00	BASE	2.31	106	3.34	94	1.9	52	-7.0	3	8	973.9	NA	0.0000		9999	6500	8010	0	0
2019/01/01 05:39:00	BASE	2.20	108	3.34	94	1.9	52	-6.9	3	9	973.9	NA	0.0000		9999	6430	8040	0	0
2019/01/01 05:40:00	BASE	2.13	114	3.34	94	1.8	52	-6.9	3	9	973.9	NA	0.0000		9999	6330	8010	0	0
2019/01/01 05:41:00	BASE	2.04	121	3.34	94	1.9	52	-7.0	3	9	973.9	NA	0.0000		9999	6230	8010	0	0
2019/01/01 05:42:00	BASE	1.99	123	3.34	94	1.9	52	-7.0	3	9	973.9	NA	0.0000		9999	6200	7970	14170	0
2019/01/01 05:43:00	BASE	2.09	125	3.34	94	1.8	53	-6.9	3	9	973.9	NA	0.0000		9999	6200	8010	9090	0
2019/01/01 05:44:00	BASE	2.30	126	3.24	130	1.8	53	-6.7	4	10	973.9	NA	0.0000		9999	6170	9060	14140	0
2019/01/01 05:45:00	BASE	2.87	127	3.50	128	1.7	55	-6.5	4	10	973.9	NA	0.0000		9999	6070	9190	14110	0
2019/01/01 05:46:00	BASE	3.11	126	3.50	128	1.6	56	-6.3	4	10	973.9	NA	0.0000		9999	6040	8010	14110	0
2019/01/01 05:47:00	BASE	2.82	123	3.50	128	1.5	57	-6.1	4	10	973.9	NA	0.0000		9999	6040	14080	0	0
2019/01/01 05:48:00	BASE	2.76	125	3.50	128	1.4	57	-6.1	4	11	973.9	NA	0.0000		9999	6500	9220	14040	0
2019/01/01 05:49:00	BASE	2.86	127	3.50	128	1.4	58	-6.1	4	11	973.9	NA	0.0000		9999	6460	9060	14080	0
2019/01/01 05:50:00	BASE	3.04	128	3.50	125	1.4	58	-6.1	4	11	974.0	NA	0.0000		9999	6500	9150	14080	0
2019/01/01 05:51:00	BASE	3.26	126	3.50	124	1.3	59	-5.9	4	11	973.9	NA	0.0000		9999	6500	14040	0	0
2019/01/01 05:52:00	BASE	3.49	123	3.76	119	1.3	59	-5.8	5	12	973.9	NA	0.0000		9999	9150	14080	0	0
2019/01/01 05:53:00	BASE	3.58	118	3.81	115	1.3	59	-5.8	5	12	973.9	NA	0.0000		9999	14110	0	0	0
2019/01/01 05:54:00	BASE	3.62	116	3.96	112	1.3	60	-5.6	5	12	974.0	NA	0.0000		9999	14040	0	0	0
2019/01/01 05:55:00	BASE	3.82	115	4.12	116	1.2	61	-5.5	5	13	974.0	NA	0.0000		9999	14080	0	0	0
2019/01/01 05:56:00	BASE	3.92	111	4.12	116	1.2	61	-5.5	5	13	974.0	NA	0.0000		9999	9290	14080	0	0
2019/01/01 05:57:00	BASE	3.79	104	4.12	116	1.3	60	-5.7	5	13	974.0	NA	0.0000		9999	9190	14040	0	0
2019/01/01 05:58:00	BASE	3.87	98	4.53	100	1.3	58	-6.0	6	14	974.0	NA	0.0000		9999	9290	14010	0	0
2019/01/01 05:59:00	BASE	3.99	95	4.53	100	1.5	56	-6.3	6	14	973.9	NA	0.0000		9999	13980	0	0	0
2019/01/01 06:00:00	BASE	4.30	95	5.04	93	1.6	55	-6.5	6	14	973.9	NA	0.0000		9999	14080	0	0	0
2019/01/01 06:01:00	BASE	4.38	94	5.04	93	1.7	54	-6.8	6	15	973.9	NA	0.0000		9999	9250	14080	0	0
2019/01/01 06:02:00	BASE	4.17	99	5.04	93	1.7	53	-6.9	6	15	973.9	NA	0.0000		9999	14040	0	0	0
2019/01/01 06:03:00	BASE	4.27	103	5.04	93	1.8	52	-7.1	7	16	973.9	NA	0.0000		9999	14080	0	0	0
2019/01/01 06:04:00	BASE	4.18	93	5.04	93	1.8	51	-7.2	7	16	973.9	NA	0.0000		9999	14040	0	0	0
2019/01/01 06:05:00	BASE	3.86	82	5.04	93	1.9	51	-7.2	7	16	973.9	NA	0.0000		9999	14010	0	0	0
2019/01/01 06:06:00	BASE	3.65	82	5.04	93	1.8	52	-7.0	7	17	973.9	NA	0.0000		9999	13980	0	0	0
2019/01/01 06:07:00	BASE	3.63	84	5.04	93	1.7	53	-6.8	7	17	974.0	NA	0.0000		9999	13980	0	0	0
2019/01/01 06:08:00	BASE	3.50	83	5.04	93	1.6	55	-6.5	7	18	974.0	NA	0.0000		9999	14040	0	0	0
2019/01/01 06:09:00	BASE	3.34	84	5.04	93	1.5	56	-6.3	8	18	974.0	NA	0.0000		9999	14010	0	0	0
2019/01/01 06:10:00	BASE	3.36	85	4.68	87	1.5	57	-6.2	8	19	974.0	NA	0.0000		9999	14010	0	0	0
2019/01/01 06:11:00	BASE	3.26	87	4.58	99	1.5	57	-6.1	8	19	974.0	NA	0.0000		9999	14010	0	0	0
2019/01/01 06:12:00	BASE	2.97	87	4.58	99	1.5	56	-6.3	9	20	974.0	NA	0.0000		9999	14010	0	0	0
2019/01/01 06:13:00	BASE	2.90	84	4.22	88	1.6	56	-6.3	9	20	974.0	NA	0.0000		9999	14010	0	0	0
2019/01/01 06:14:00	BASE	2.95	80	3.96	100	1.6	55	-6.5	9	21	974.0	NA	0.0000		9999	14010	0	0	0
2019/01/01 06:15:00	BASE	2.88	82	3.96	100	1.7	54	-6.7	10	22	974.0	NA	0.0000		9999	14040	0	0	0
2019/01/01 06:16:00	BASE	2.75	88	3.96	100	1.8	52	-6.9	10	22	974.0	NA	0.0000		9999	14010	0	0	0
2019/01/01 06:17:00	BASE	2.91	88	3.96	100	1.8	52	-7.0	11	23	974.0	NA	0.0000		9999	9250	14010	0	0
2019/01/01 06:18:00	BASE	3.02	83	3.96	100	1.9	51	-7.2	11	24	974.0	NA	0.0000		9999	14010	0	0	0
2019/01/01 06:19:00	BASE	3.01	82	3.96	100	1.9	51	-7.2	11	24	974.0	NA	0.0000		9999	14010	0	0	0
2019/01/01 06:20:00	BASE	2.97	87	3.76	87	1.9	51	-7.3	12	25	973.9	NA	0.0000		9999	13980	0	0	0
2019/01/01 06:21:01	BASE	3.06	91	4.12	79	1.9	51	-7.3	12	25	973.9	NA	0.0000		9999	14010	0	0	0
2019/01/01 06:22:00	BASE	3.51	89	4.12	79	1.9	51	-7.3	12	26	974.0	NA	0.0000		9999	13980	0	0	0
2019/01/01 06:23:00	BASE	3.58	87	4.12	79	1.8	51	-7.4	12	26	974.0	NA	0.0000		9999	14010	0	0	0
2019/01/01 06:24:00	BASE	3.40	89	4.12	79	1.8	50	-7.4	13	27	974.0	NA	0.0000		9999	14010	0	0	0
2019/01/01 06:25:00	BASE	3.25	93	4.12	79	1.8	51	-7.3	13	28	974.0	NA	0.0000		9999	14040	0	0	0
2019/01/01 06:26:00	BASE	3.18	91	4.12	79	1.7	51	-7.2	13	28	974.0	NA	0.0000		9999	14010	0	0	0
2019/01/01 06:27:00	BASE	3.19	83	4.12	79	1.7	52	-7.1	14	29	974.0	NA	0.0000		9999	9250	14010	0	0
2019/01/01 06:28:00	BASE	3.00	78	4.12	79	1.6	53	-6.9	14	30	974.0	NA	0.0000		9999	14010	0	0	0
2019/01/01 06:29:00	BASE	2.77	78	4.12	79	1.5	54	-6.8	14	30	974.0	NA	0.0000		9999	9250	14040	0	0
2019/01/01 06:30:00	BASE	2.50	80	4.12	79	1.5	54	-6.8	15	31	974.0	NA	0.0000		9999	9290	14010	0	0
2019/01/01 06:31:00	BASE	2.38	78	3.86	87	1.5	54	-6.9	15	32	974.0	NA	0.0000		9999	9290	14010	0	0
2019/01/01 06:32:00	BASE	2.51	78	3.76	97	1.5	53	-7.0	15	32	974.0	NA	0.0000		9999	9320	14010	0	0
2019/01/01 06:33:00	BASE	2.62	83	3.55	88	1.5	53	-7.1	16	33	974.0	NA	0.0000		9999	9250	0	0	0
2019/01/01 06:34:00	BASE	3.02	89	3.91	86	1.6	52	-7.2	16	34	974.0	NA	0.0000		9999	9250	0	0	0
2019/01/01 06:35:00	BASE	3.05	86	3.91	86	1.6	52	-7.3	17	35	974.0	NA	0.0000		9999	0	0	0	0
2019/01/01 06:36:00	BASE	2.76	84	3.91	86	1.6	51	-7.5	17	35	974.1	NA	0.0000		9999	14010	0	0	0
2019/01/01 06:37:00	BASE	2.71	88	3.91	86	1.7	50	-7.7	18	36	974.1	NA	0.0000		9999	14010	0	0	0
2019/01/01 06:38:00	BASE	2.51	89	3.91	86	1.8	49	-7.8	18	37	974.1	NA	0.0000		9999	14040	0	0	0
2019/01/01 06:39:00	BASE	2.31	95	3.91	86	1.8	49	-7.9	19	38	974.1	NA	0.0000		9999	14010	0	0	0
2019/01/01 06:40:00	BASE	2.35	102	3.91	86	1.9	48	-8.0	19	39	974.1	NA	0.0000		9999	0	0	0	0
2019/01/01 06:41:00	BASE	2.43	105	3.91	86	1.9	48	-8.0	20	40	974.1	NA	0.0000		9999	9320	0	0	0
2019/01/01 06:42:00	BASE	2.45	107	3.91	86	1.9	48	-8.0	20	41	974.1	NA	0.0000		9999	9290	14040	0	0
2019/01/01 06:43:00	BASE	2.41	109	3.91	86	1.9	48	-8.0	21	42	974.2	NA	0.0000		9999	9290	14010	0	0
2019/01/01 06:44:00	BASE	2.25	106	3.19	99	1.9	49	-7.8	22	43	974.2	NA	0.0000		9999	9250	0	0	0
2019/01/01 06:45:00	BASE	2.08	102	3.19	99	1.8	50	-7.6	22	45	974.2	NA	0.0000		9999	9220	0	0	0
2019/01/01 06:46:00	BASE	2.21	101	2.98	91	1.7	51	-7.5	23	46	974.2	NA	0.0000		9999	9220	0	0	0
2019/01/01 06:47:00	BASE	2.41	105	2.78	98	1.6	51	-7.4	23	47	974.2	NA	0.0000		9999	9220	0	0	0
2019/01/01 06:48:00	BASE	2.25	109	2.78	98	1.6	52	-7.3	23	48	974.2	NA	0.0000		9999	9250	0	0	0
2019/01/01 06:49:00	BASE	1.87	111	2.78	98	1.5	52	-7.2	24	49	974.2	NA	0.0000		9999	9220	0	0	0
2019/01/01 06:50:00	BASE	1.60	109	2.78	98	1.5	53	-7.1	25	50	974.2	NA	0.0000		9999	9190	0	0	0
2019/01/01 06:51:00	BASE	1.69	108	2.78	98	1.4	54	-7.0	25	51	974.2	NA	0.0000		9999	9290	0	0	0
2019/01/01 06:52:00	BASE	1.74	114	2.78	98	1.4	54	-6.8	25	52	974.2	NA	0.0000		9999	9290	0	0	0
2019/01/01 06:53:00	BASE	1.48	120	2.78	98	1.3	55	-6.7	26	52	974.2	NA	0.0000		9999	9250	14040	0	0
2019/01/01 06:54:00	BASE	1.28	129	2.78	98	1.3	56	-6.6	26	53	974.2	NA	0.0000		9999	9220	14010	0	0
2019/01/01 06:55:00	BASE	0.94	139	2.78	98	1.2	56	-6.5	26	54	974.2	NA	0.0000		9999	9220	14010	0	0
2019/01/01 06:56:00	BASE	0.31	153	2.57	103	1.2	56	-6.6	27	55	974.3	NA	0.0000		9999	9290	13980	0	0
2019/01/01 06:57:00	BASE	0.00	180	2.42	113	1.3	56	-6.6	27	56	974.3	NA	0.0000		9999	14010	0	0	0
2019/01/01 06:58:00	BASE	0.00	198	2.11	111	1.3	55	-6.7	27	57	974.2	NA	0.0000		9999	9320	0	0	0
2019/01/01 06:59:00	BASE	0.00	190	2.11	111	1.4	55	-6.7	28	58	974.3	NA	0.0000		9999	9320	0	0	0
2019/01/01 07:00:00	BASE	0.00	182	2.11	111	1.4	55	-6.6	28	58	974.3	NA	0.0000		9999	9250	14010	0	0
2019/01/01 07:01:00	BASE	0.00	185	1.95	112	1.4	55	-6.5	28	59	974.3	NA	0.0000		9999	9250	0	0	0
2019/01/01 07:02:00	BASE	0.00	188	1.54	123	1.4	56	-6.5	29	60	974.3	NA	0.0000		9999	0	0	0	0
2019/01/01 07:03:00	BASE	0.00	205	1.39	134	1.4	58	-6.1	29	60	974.2	NA	0.0000		9999	0	0	0	0
2019/01/01 07:04:00	BASE	0.00	289	1.08	147	1.3	61	-5.5	29	61	974.2	NA	0.0000		9999	0	0	0	0
2019/01/01 07:05:00	BASE	0.00	279	M	M	1.2	64	-4.9	29	62	974.2	NA	0.0000		9999	0	0	0	0
2019/01/01 07:06:00	BASE	0.00	293	M	M	1.2	67	-4.3	30	63	974.3	NA	0.0000		9999	0	0	0	0
2019/01/01 07:07:00	BASE	0.00	317	M	M	1.1	71	-3.6	30	63	974.3	NA	0.0000		9999	0	0	0	0
2019/01/01 07:08:00	BASE	0.00	329	M	M	1.0	73	-3.3	30	64	974.3	NA	0.0000		9999	0	0	0	0
2019/01/01 07:09:00	BASE	0.00	327	M	M	1.0	74	-3.1	30	65	974.3	NA	0.0000		9999	0	0	0	0
2019/01/01 07:10:00	BASE	0.00	323	M	M	1.0	75	-2.9	31	66	974.3	NA	0.0000		9999	0	0	0	0
2019/01/01 07:11:00	BASE	0.00	322	M	M	0.9	76	-2.9	30	66	974.3	NA	0.0000		9999	0	0	0	0
2019/01/01 07:12:00	BASE	0.00	324	M	M	0.9	76	-2.8	31	67	974.3	NA	0.0000		9999	0	0	0	0
2019/01/01 07:13:00	BASE	0.00	301	M	M	0.9	76	-2.8	32	68	974.3	NA	0.0000		9999	9480	0	0	0
2019/01/01 07:14:00	BASE	0.00	282	M	M	0.9	76	-2.8	32	70	974.3	NA	0.0000		9999	0	0	0	0
2019/01/01 07:15:00	BASE	0.15	314	1.29	129	0.9	76	-2.8	33	71	974.3	NA	0.0000		9999	9420	0	0	0
2019/01/01 07:16:00	BASE	0.20	105	1.29	129	1.0	75	-2.9	34	73	974.3	NA	0.0000		9999	9350	0	0	0
2019/01/01 07:17:00	BASE	0.54	123	1.70	121	1.0	75	-3.0	34	74	974.3	NA	0.0000		9999	9290	0	0	0
2019/01/01 07:18:00	BASE	1.35	121	2.21	137	1.1	74	-3.1	35	76	974.3	NA	0.0000		9999	9290	0	0	0
2019/01/01 07:19:00	BASE	1.81	112	2.21	111	1.1	73	-3.1	37	79	974.3	NA	0.0000		9999	5740	9190	0	0
2019/01/01 07:20:00	BASE	2.06	110	2.68	131	1.2	73	-3.2	38	80	974.3	NA	0.0000		9999	5710	9320	0	0
2019/01/01 07:21:00	BASE	2.17	109	3.19	110	1.2	73	-3.1	38	81	974.3	NA	0.0000		9999	5740	0	0	0
2019/01/01 07:22:00	BASE	2.63	107	3.65	115	1.1	74	-3.0	37	81	974.3	NA	0.0000		9999	5510	0	0	0
2019/01/01 07:23:00	BASE	2.95	112	3.65	115	1.1	75	-2.8	38	83	974.3	NA	0.0000		9999	5640	0	0	0
2019/01/01 07:24:00	BASE	2.74	111	3.65	115	1.1	76	-2.7	40	85	974.3	NA	0.0000		9999	5640	9320	0	0
2019/01/01 07:25:00	BASE	2.80	106	3.65	115	1.0	77	-2.5	40	86	974.4	NA	0.0000		9999	5810	9350	0	0
2019/01/01 07:26:00	BASE	3.01	101	3.65	115	1.0	78	-2.4	41	88	974.4	NA	0.0000		9999	5680	9380	0	0
2019/01/01 07:27:00	BASE	3.12	98	3.65	115	0.9	80	-2.2	41	89	974.4	NA	0.0000		9999	5740	9350	0	0
2019/01/01 07:28:00	BASE	3.19	97	3.65	101	0.9	81	-2.1	42	91	974.5	NA	0.0000		9999	0	0	0	0
2019/01/01 07:29:00	BASE	3.45	98	3.91	98	0.8	82	-1.9	43	92	974.4	NA	0.0000		9999	0	0	0	0
2019/01/01 07:30:00	BASE	3.59	100	4.32	99	0.8	82	-1.8	43	94	974.5	NA	0.0000		9999	0	0	0	0
2019/01/01 07:31:00	BASE	3.76	101	4.68	91	0.9	83	-1.7	44	95	974.4	NA	0.0000		9999	5740	0	0	0
2019/01/01 07:32:00	BASE	3.98	103	4.68	91	0.9	83	-1.6	44	97	974.4	NA	0.0000		9999	5740	0	0	0
2019/01/01 07:33:00	BASE	3.80	107	4.68	91	1.0	83	-1.6	45	98	974.4	NA	0.0000		9999	0	0	0	0
2019/01/01 07:34:00	BASE	3.71	108	4.68	91	1.0	82	-1.7	44	98	974.4	NA	0.0000		9999	9380	0	0	0
2019/01/01 07:35:00	BASE	3.96	109	4.68	91	1.0	82	-1.7	44	99	974.4	NA	0.0000		9999	9680	0	0	0
2019/01/01 07:36:00	BASE	4.16	112	4.68	91	1.1	81	-1.9	44	100	974.4	NA	0.0000		9999	0	0	0	0
2019/01/01 07:37:00	BASE	4.17	116	4.68	91	1.1	80	-2.0	45	101	974.4	NA	0.0000		9999	9680	0	0	0
2019/01/01 07:38:00	BASE	4.18	118	4.68	91	1.1	79	-2.2	46	103	974.4	NA	0.0000		9999	9610	0	0	0
2019/01/01 07:39:00	BASE	3.99	117	4.68	91	1.1	78	-2.3	47	105	974.4	NA	0.0000		9999	0	0	0	0
2019/01/01 07:40:00	BASE	3.97	118	4.68	91	1.1	78	-2.4	47	107	974.5	NA	0.0000		9999	0	0	0	0
2019/01/01 07:41:00	BASE	4.07	118	4.63	114	1.1	77	-2.4	48	108	974.5	NA	0.0000		9999	0	0	0	0
2019/01/01 07:42:00	BASE	3.78	116	4.63	114	1.1	77	-2.4	48	109	974.5	NA	0.0000		9999	0	0	0	0
2019/01/01 07:43:00	BASE	3.62	119	4.63	114	1.1	78	-2.4	49	112	974.5	NA	0.0000		9999	0	0	0	0
2019/01/01 07:44:00	BASE	3.43	120	4.63	114	1.0	78	-2.3	50	114	974.5	NA	0.0000		9999	9250	0	0	0
2019/01/01 07:45:00	BASE	3.15	119	4.63	114	1.0	79	-2.3	52	117	974.5	NA	0.0000		9999	9220	0	0	0
2019/01/01 07:46:00	BASE	3.09	117	4.58	124	0.9	80	-2.2	53	119	974.6	NA	0.0000		9999	9290	0	0	0
2019/01/01 07:47:00	BASE	3.13	113	4.58	124	0.9	80	-2.1	54	122	974.6	NA	0.0000		9999	9290	0	0	0
2019/01/01 07:48:00	BASE	3.13	109	4.48	120	0.8	81	-2.1	55	123	974.6	NA	0.0000		9999	9190	0	0	0
2019/01/01 07:49:00	BASE	3.04	107	4.48	120	0.8	82	-2.0	55	124	974.6	NA	0.0000		9999	9150	9650	0	0
2019/01/01 07:50:00	BASE	2.99	107	4.22	121	0.8	82	-1.9	55	124	974.6	NA	0.0000		9999	0	0	0	0
2019/01/01 07:51:00	BASE	2.98	106	3.91	119	0.8	82	-1.9	54	124	974.6	NA	0.0000		9999	0	0	0	0
2019/01/01 07:52:00	BASE	2.85	106	3.91	119	0.8	82	-1.9	54	124	974.6	NA	0.0000		9999	0	0	0	0
2019/01/01 07:53:00	BASE	2.75	107	3.55	128	0.8	81	-2.1	54	124	974.6	NA	0.0000		9999	0	0	0	0
2019/01/01 07:54:00	BASE	2.79	107	3.34	105	0.8	80	-2.2	54	125	974.6	NA	0.0000		9999	9290	0	0	0
2019/01/01 07:55:00	BASE	2.73	104	3.34	105	0.8	80	-2.3	54	126	974.6	NA	0.0000		9999	9190	0	0	0
2019/01/01 07:56:00	BASE	2.74	104	3.34	105	0.7	79	-2.5	55	128	974.6	NA	0.0000		9999	9190	0	0	0
2019/01/01 07:57:00	BASE	2.81	107	3.34	105	0.7	78	-2.6	55	129	974.6	NA	0.0000		9999	0	0	0	0
2019/01/01 07:58:00	BASE	2.82	105	3.24	101	0.7	78	-2.7	55	130	974.6	NA	0.0000		9999	0	0	0	0
2019/01/01 07:59:00	BASE	2.90	102	3.34	99	0.7	77	-2.9	55	131	974.6	NA	0.0000		9999	0	0	0	0
2019/01/01 08:00:00	BASE	2.94	102	3.34	99	0.6	77	-3.0	56	132	974.7	NA	0.0000		9999	0	0	0	0
2019/01/01 08:01:00	BASE	2.92	104	3.34	99	0.6	76	-3.1	56	134	974.7	NA	0.0000		9999	0	0	0	0
2019/01/01 08:02:00	BASE	2.82	107	3.34	99	0.6	76	-3.2	57	136	974.7	NA	0.0000		9999	0	0	0	0
2019/01/01 08:03:00	BASE	2.78	107	3.34	99	0.6	75	-3.3	58	137	974.7	NA	0.0000		9999	0	0	0	0
2019/01/01 08:04:00	BASE	2.87	110	3.34	115	0.6	74	-3.5	58	139	974.7	NA	0.0000		9999	0	0	0	0
2019/01/01 08:05:00	BASE	3.06	116	3.81	127	0.5	73	-3.7	59	140	974.8	NA	0.0000		9999	0	0	0	0
2019/01/01 08:06:00	BASE	3.25	116	3.81	127	0.5	72	-3.9	59	141	974.8	NA	0.0000		9999	0	0	0	0
2019/01/01 08:07:00	BASE	3.06	113	3.81	127	0.5	71	-4.1	60	143	974.8	NA	0.0000		9999	0	0	0	0
2019/01/01 08:08:00	BASE	2.89	111	3.81	127	0.5	70	-4.2	61	145	974.8	NA	0.0000		9999	14080	0	0	0
2019/01/01 08:09:00	BASE	2.84	109	3.81	127	0.6	70	-4.3	62	148	974.8	NA	0.0000		9999	0	0	0	0
2019/01/01 08:10:00	BASE	2.64	109	3.81	127	0.6	69	-4.4	64	151	974.8	NA	0.0000		9999	0	0	0	0
2019/01/01 08:11:00	BASE	2.64	113	3.81	127	0.6	70	-4.3	66	154	974.8	NA	0.0000		9999	0	0	0	0
2019/01/01 08:12:00	BASE	2.68	115	3.81	127	0.6	69	-4.4	67	157	974.8	NA	0.0000		9999	0	0	0	0
2019/01/01 08:13:00	BASE	2.66	110	3.81	127	0.6	69	-4.4	68	159	974.8	NA	0.0000		9999	0	0	0	0
2019/01/01 08:14:00	BASE	2.75	108	3.81	127	0.7	69	-4.4	70	163	974.8	NA	0.0000		9999	0	0	0	0
2019/01/01 08:15:00	BASE	3.22	107	4.22	110	0.8	68	-4.5	71	166	974.8	NA	0.0000		9999	22970	0	0	0
2019/01/01 08:16:00	BASE	3.54	106	4.22	110	0.9	67	-4.5	72	168	974.8	NA	0.0000		9999	0	0	0	0
2019/01/01 08:17:00	BASE	3.44	105	4.22	110	0.9	67	-4.5	73	170	974.8	NA	0.0000		9999	0	0	0	0
2019/01/01 08:18:00	BASE	3.48	104	4.22	110	1.0	68	-4.4	74	172	974.8	NA	0.0000		9999	0	0	0	0
2019/01/01 08:19:00	BASE	3.53	103	4.22	110	1.0	68	-4.3	75	176	974.8	NA	0.0000		9999	0	0	0	0
2019/01/01 08:20:00	BASE	3.50	104	4.22	110	1.0	68	-4.2	77	179	974.8	NA	0.0000		9999	0	0	0	0
2019/01/01 08:21:01	BASE	3.39	105	4.22	110	0.9	69	-4.2	79	183	974.8	NA	0.0000		9999	0	0	0	0
2019/01/01 08:22:01	BASE	3.26	104	4.22	110	0.9	69	-4.1	81	186	974.8	NA	0.0000		9999	0	0	0	0
2019/01/01 08:23:01	BASE	3.01	100	4.22	110	0.8	70	-4.1	83	190	974.8	NA	0.0000		9999	0	0	0	0
2019/01/01 08:24:01	BASE	2.86	96	4.22	110	0.8	69	-4.2	84	193	974.8	NA	0.0000		9999	0	0	0	0
2019/01/01 08:25:01	BASE	3.19	98	4.22	113	0.7	69	-4.3	86	198	974.9	NA	0.0000		9999	14040	0	0	0
2019/01/01 08:26:01	BASE	3.50	105	4.22	113	0.8	69	-4.2	89	203	974.9	NA	0.0000		9999	13940	0	0	0
2019/01/01 08:27:01	BASE	3.45	110	4.22	113	0.8	69	-4.2	93	210	974.9	NA	0.0000		9999	13980	0	0	0
2019/01/01 08:28:01	BASE	3.29	113	4.22	113	0.9	69	-4.2	101	222	974.9	NA	0.0000		9999	13980	0	0	0
2019/01/01 08:29:01	BASE	3.52	117	4.22	113	1.0	69	-4.1	110	238	974.9	NA	0.0000		9999	13910	0	0	0
2019/01/01 08:30:01	BASE	3.53	118	4.22	113	1.0	70	-3.9	121	255	974.9	NA	0.0000		9999	13940	0	0	0
2019/01/01 08:31:01	BASE	3.37	122	4.22	113	1.0	71	-3.6	128	267	974.9	NA	0.0000		9999	13940	0	0	0
2019/01/01 08:32:01	BASE	3.23	126	4.22	113	1.0	72	-3.4	131	273	974.9	NA	0.0000		9999	13940	0	0	0
2019/01/01 08:33:01	BASE	2.83	124	4.22	113	1.0	74	-3.1	138	285	975.0	NA	0.0000		9999	13940	0	0	0
2019/01/01 08:34:01	BASE	2.80	121	4.22	113	1.1	76	-2.7	143	294	975.0	NA	0.0000		9999	13940	0	0	0
2019/01/01 08:35:01	BASE	3.03	119	4.06	115	1.1	77	-2.4	147	300	975.0	NA	0.0000		9999	0	0	0	0
2019/01/01 08:36:01	BASE	2.90	111	4.06	115	1.2	78	-2.2	150	306	975.1	NA	0.0000		9999	0	0	0	0
2019/01/01 08:37:01	BASE	2.53	101	4.06	115	1.2	79	-2.0	152	311	975.1	NA	0.0000		9999	0	0	0	0
2019/01/01 08:38:01	BASE	2.42	104	4.06	115	1.3	80	-1.9	156	318	975.1	NA	0.0000		9999	8920	0	0	0
2019/01/01 08:39:01	BASE	2.45	109	3.86	117	1.3	80	-1.8	161	327	975.1	NA	0.0000		9999	8990	0	0	0
2019/01/01 08:40:01	BASE	2.61	108	3.81	111	1.2	80	-1.8	167	337	975.1	NA	0.0000		9999	8920	0	0	0
2019/01/01 08:41:01	BASE	2.82	117	3.81	111	1.3	80	-1.8	172	347	975.1	NA	0.0000		9999	8960	0	0	0
2019/01/01 08:42:01	BASE	2.87	130	3.81	111	1.3	80	-1.7	178	358	975.1	NA	0.0000		9999	0	0	0	0
2019/01/01 08:43:01	BASE	2.84	136	3.81	111	1.3	81	-1.7	183	367	975.1	NA	0.0000		9999	8990	0	0	0
2019/01/01 08:44:01	BASE	2.71	136	3.81	111	1.3	81	-1.6	189	377	975.1	NA	0.0000		9999	9060	0	0	0
2019/01/01 08:45:01	BASE	2.50	133	3.60	121	1.4	81	-1.4	193	385	975.1	NA	0.0000		9999	9060	0	0	0
2019/01/01 08:46:01	BASE	2.36	135	3.60	121	1.4	81	-1.4	195	389	975.1	NA	0.0000		9999	9060	0	0	0
2019/01/01 08:47:01	BASE	2.29	143	3.60	121	1.5	81	-1.4	196	392	975.1	NA	0.0000		9999	9060	0	0	0
2019/01/01 08:48:01	BASE	2.27	143	3.60	121	1.5	81	-1.3	199	396	975.1	NA	0.0000		9999	0	0	0	0
2019/01/01 08:49:01	BASE	2.27	137	3.60	121	1.5	81	-1.4	202	404	975.1	NA	0.0000		9999	7350	0	0	0
2019/01/01 08:50:01	BASE	2.50	136	3.24	135	1.5	81	-1.4	207	413	975.1	NA	0.0000		9999	7380	0	0	0
2019/01/01 08:51:01	BASE	2.61	144	3.24	135	1.5	81	-1.4	212	421	975.1	NA	0.0000		9999	7380	13980	0	0
2019/01/01 08:52:01	BASE	2.73	149	3.55	152	1.5	81	-1.4	215	428	975.1	NA	0.0000		9999	7420	13980	0	0
2019/01/01 08:53:01	BASE	2.89	142	3.55	152	1.6	81	-1.4	217	432	975.1	NA	0.0000		9999	7450	0	0	0
2019/01/01 08:54:01	BASE	2.87	135	3.55	152	1.6	81	-1.3	218	435	975.1	NA	0.0000		9999	7450	0	0	0
2019/01/01 08:55:01	BASE	2.46	132	3.55	152	1.6	81	-1.3	219	438	975.1	NA	0.0000		9999	7420	0	0	0
2019/01/01 08:56:01	BASE	1.87	130	3.55	152	1.6	81	-1.3	220	441	975.2	NA	0.0000		9999	7380	8140	0	0
2019/01/01 08:57:01	BASE	1.89	127	3.55	152	1.6	81	-1.2	223	446	975.2	NA	0.0000		9999	7420	8140	0	0
2019/01/01 08:58:01	BASE	2.00	115	3.55	152	1.6	82	-1.2	226	452	975.2	NA	0.0000		9999	8100	0	0	0
2019/01/01 08:59:01	BASE	2.03	109	3.55	152	1.5	82	-1.2	228	457	975.2	NA	0.0000		9999	8100	0	0	0
2019/01/01 09:00:01	BASE	2.11	108	3.55	152	1.5	82	-1.2	228	458	975.2	NA	0.0000		9999	8100	0	0	0
2019/01/01 09:01:01	BASE	2.11	104	3.55	152	1.5	82	-1.2	231	464	975.2	NA	0.0000		9999	8100	13980	0	0
2019/01/01 09:02:01	BASE	2.09	101	3.24	149	1.5	82	-1.2	232	468	975.2	NA	0.0000		9999	8100	0	0	0
2019/01/01 09:03:01	BASE	2.03	89	3.09	132	1.4	82	-1.3	209	431	975.2	NA	0.0000		9999	8100	0	0	0
2019/01/01 09:04:01	BASE	1.93	83	2.98	110	1.4	81	-1.5	200	417	975.2	NA	0.0000		9999	8100	0	0	0
2019/01/01 09:05:01	BASE	1.80	96	2.98	110	1.3	80	-1.8	235	474	975.2	NA	0.0000		9999	8100	0	0	0
2019/01/01 09:06:01	BASE	1.79	99	2.98	110	1.2	80	-1.9	239	482	975.2	NA	0.0000		9999	8040	0	0	0
2019/01/01 09:07:01	BASE	1.71	86	2.98	110	1.2	79	-2.1	243	489	975.2	NA	0.0000		9999	8070	0	0	0
2019/01/01 09:08:01	BASE	1.63	90	2.98	110	1.2	78	-2.3	248	498	975.2	NA	0.0000		9999	8040	0	0	0
2019/01/01 09:09:01	BASE	1.53	94	2.98	110	1.3	77	-2.3	255	510	975.2	NA	0.0000		9999	8040	0	0	0
2019/01/01 09:10:01	BASE	1.47	92	2.98	110	1.3	78	-2.2	263	524	975.2	NA	0.0000		9999	8070	0	0	0
2019/01/01 09:11:01	BASE	1.61	94	2.26	83	1.3	78	-2.1	270	536	975.2	NA	0.0000		9999	8010	0	0	0
2019/01/01 09:12:01	BASE	1.68	97	2.21	84	1.4	79	-1.9	277	547	975.2	NA	0.0000		9999	8010	0	0	0
2019/01/01 09:13:01	BASE	1.70	102	2.06	109	1.5	80	-1.6	280	554	975.2	NA	0.0000		9999	7970	13910	0	0
2019/01/01 09:14:01	BASE	1.62	106	2.06	109	1.5	81	-1.4	280	554	975.2	NA	0.0000		9999	7970	0	0	0
2019/01/01 09:15:01	BASE	1.41	108	2.01	96	1.6	81	-1.3	277	550	975.2	NA	0.0000		9999	0	0	0	0
2019/01/01 09:16:01	BASE	1.34	106	2.01	96	1.6	81	-1.2	274	545	975.2	NA	0.0000		9999	13850	0	0	0
2019/01/01 09:17:01	BASE	1.44	105	2.01	96	1.7	81	-1.2	270	539	975.2	NA	0.0000		9999	13880	0	0	0
2019/01/01 09:18:01	BASE	1.64	109	2.01	96	1.7	81	-1.2	267	535	975.2	NA	0.0000		9999	13940	0	0	0
2019/01/01 09:19:01	BASE	1.69	112	2.01	96	1.7	80	-1.3	268	538	975.2	NA	0.0000		9999	13910	0	0	0
2019/01/01 09:20:01	BASE	1.66	117	2.01	96	1.7	79	-1.4	272	543	975.2	NA	0.0000		9999	13940	0	0	0
2019/01/01 09:21:01	BASE	1.53	121	1.95	110	1.7	79	-1.5	268	537	975.3	NA	0.0000		9999	13850	0	0	0
2019/01/01 09:22:01	BASE	1.32	119	1.95	110	1.7	79	-1.6	237	489	975.2	NA	0.0000		9999	13940	0	0	0
2019/01/01 09:23:01	BASE	1.08	120	1.95	110	1.6	79	-1.6	175	385	975.2	NA	0.0000		9999	13910	0	0	0
2019/01/01 09:24:01	BASE	1.03	126	1.95	110	1.6	79	-1.6	157	356	975.2	NA	0.0000		9999	13880	0	0	0
2019/01/01 09:25:01	BASE	0.66	130	1.95	110	1.5	80	-1.6	176	391	975.3	NA	0.0000		9999	13910	0	0	0
2019/01/01 09:26:01	BASE	0.13	135	1.95	110	1.5	81	-1.5	221	468	975.3	NA	0.0000		9999	13910	0	0	0
2019/01/01 09:27:01	BASE	0.22	137	1.95	110	1.5	81	-1.5	224	471	975.3	NA	0.0000		9999	13940	0	0	0
2019/01/01 09:28:01	BASE	0.59	137	1.85	121	1.5	81	-1.4	222	469	975.3	NA	0.0000		9999	13940	0	0	0
2019/01/01 09:29:01	BASE	0.55	143	1.85	121	1.5	82	-1.3	228	479	975.3	NA	0.0000		9999	13980	0	0	0
2019/01/01 09:30:01	BASE	0.13	148	1.54	118	1.5	82	-1.3	222	470	975.3	NA	0.0000		9999	13980	0	0	0
2019/01/01 09:31:01	BASE	0.00	148	1.54	118	1.6	81	-1.3	199	431	975.3	NA	0.0000		9999	13940	0	0	0
2019/01/01 09:32:01	BASE	0.00	141	1.39	124	1.6	81	-1.3	188	413	975.3	NA	0.0000		9999	13980	0	0	0
2019/01/01 09:33:01	BASE	0.00	143	1.39	124	1.6	81	-1.3	201	438	975.3	NA	0.0000		9999	13980	0	0	0
2019/01/01 09:34:01	BASE	0.00	159	1.18	143	1.6	81	-1.3	196	429	975.4	NA	0.0000		9999	14010	0	0	0
2019/01/01 09:35:01	BASE	0.00	190	1.18	143	1.5	81	-1.3	197	431	975.4	NA	0.0000		9999	14010	0	0	0
2019/01/01 09:36:01	BASE	0.00	232	1.18	143	1.5	81	-1.4	204	443	975.4	NA	0.0000		9999	13940	0	0	0
2019/01/01 09:37:01	BASE	0.00	273	1.18	143	1.4	81	-1.5	210	456	975.4	NA	0.0000		9999	14010	0	0	0
2019/01/01 09:38:01	BASE	0.00	292	1.08	148	1.4	80	-1.6	200	438	975.3	NA	0.0000		9999	14040	0	0	0
2019/01/01 09:39:01	BASE	0.00	300	M	M	1.4	80	-1.8	159	364	975.3	NA	0.0000		9999	14040	0	0	0
2019/01/01 09:40:01	BASE	0.00	307	M	M	1.4	79	-1.9	158	364	975.4	NA	0.0000		9999	14110	0	0	0
2019/01/01 09:41:01	BASE	0.00	318	M	M	1.3	78	-2.1	177	397	975.4	NA	0.0000		9999	14080	0	0	0
2019/01/01 09:42:01	BASE	0.00	330	M	M	1.3	77	-2.3	220	473	975.4	NA	0.0000		9999	14110	0	0	0
2019/01/01 09:43:01	BASE	0.00	335	M	M	1.2	77	-2.4	240	507	975.4	NA	0.0000		9999	14080	0	0	0
2019/01/01 09:44:01	BASE	0.00	331	M	M	1.2	77	-2.5	242	509	975.4	NA	0.0000		9999	14080	0	0	0
2019/01/01 09:45:01	BASE	0.00	327	M	M	1.1	76	-2.6	244	512	975.4	NA	0.0000		9999	0	0	0	0
2019/01/01 09:46:01	BASE	0.00	324	M	M	1.1	77	-2.6	243	510	975.4	NA	0.0000		9999	0	0	0	0
2019/01/01 09:47:01	BASE	0.00	323	M	M	1.1	77	-2.5	224	475	975.4	NA	0.0000		9999	0	0	0	0
2019/01/01 09:48:01	BASE	0.00	322	M	M	1.1	77	-2.4	219	468	975.4	NA	0.0000		9999	0	0	0	0
2019/01/01 09:49:01	BASE	0.00	327	M	M	1.1	78	-2.3	231	489	975.4	NA	0.0000		9999	0	0	0	0
2019/01/01 09:50:01	BASE	0.00	332	M	M	1.1	78	-2.2	232	492	975.4	NA	0.0000		9999	0	0	0	0
2019/01/01 09:51:01	BASE	0.00	328	M	M	1.2	78	-2.2	237	501	975.4	NA	0.0000		9999	0	0	0	0
2019/01/01 09:52:01	BASE	0.00	330	M	M	1.1	78	-2.2	243	511	975.4	NA	0.0000		9999	0	0	0	0
2019/01/01 09:53:01	BASE	0.04	339	1.03	341	1.2	78	-2.2	244	516	975.4	NA	0.0000		9999	0	0	0	0
2019/01/01 09:54:01	BASE	0.13	345	1.03	339	1.1	79	-2.2	247	522	975.4	NA	0.0000		9999	0	0	0	0
2019/01/01 09:55:01	BASE	0.22	352	1.03	360	1.1	79	-2.2	245	520	975.4	NA	0.0000		9999	0	0	0	0
2019/01/01 09:56:01	BASE	0.13	2	1.03	360	1.0	80	-2.1	224	485	975.4	NA	0.0000		9999	0	0	0	0
2019/01/01 09:57:01	BASE	0.00	20	1.03	360	1.0	80	-2.0	213	465	975.4	NA	0.0000		9999	0	0	0	0
2019/01/01 09:58:01	BASE	0.00	11	1.03	360	0.9	81	-2.0	214	469	975.4	NA	0.0000		9999	0	0	0	0
2019/01/01 09:59:01	BASE	0.04	356	1.03	15	0.9	81	-1.9	224	488	975.4	NA	0.0000		9999	0	0	0	0
2019/01/01 10:00:01	BASE	0.04	8	1.03	15	0.9	81	-1.9	232	501	975.4	NA	0.0000		9999	0	0	0	0
2019/01/01 10:01:01	BASE	0.00	10	1.03	15	1.0	81	-2.0	251	536	975.4	NA	0.0000		9999	0	0	0	0
2019/01/01 10:02:01	BASE	0.00	4	1.03	15	1.0	80	-2.1	274	577	975.4	NA	0.0000		9999	0	0	0	0
2019/01/01 10:03:01	BASE	0.00	358	1.03	15	1.0	78	-2.3	266	564	975.4	NA	0.0000		9999	0	0	0	0
2019/01/01 10:04:01	BASE	0.00	357	1.03	15	1.1	77	-2.5	259	556	975.4	NA	0.0000		9999	0	0	0	0
2019/01/01 10:05:01	BASE	0.00	356	1.03	15	1.1	76	-2.6	198	446	975.4	NA	0.0000		9999	0	0	0	0
2019/01/01 10:06:01	BASE	0.00	352	1.03	15	1.2	75	-2.8	195	443	975.4	NA	0.0000		9999	13090	0	0	0
2019/01/01 10:07:01	BASE	0.00	347	1.03	15	1.2	74	-2.9	247	541	975.4	NA	0.0000		9999	13030	0	0	0
2019/01/01 10:08:01	BASE	0.00	338	1.03	15	1.2	74	-3.0	201	455	975.4	NA	0.0000		9999	12990	0	0	0
2019/01/01 10:09:01	BASE	0.00	333	M	M	1.2	74	-3.0	168	394	975.4	NA	0.0000		9999	12990	0	0	0
2019/01/01 10:10:01	BASE	0.00	342	M	M	1.2	74	-3.0	161	382	975.4	NA	0.0000		9999	12960	0	0	0
2019/01/01 10:11:01	BASE	0.00	354	M	M	1.2	74	-3.0	165	390	975.4	NA	0.0000		9999	12990	0	0	0
2019/01/01 10:12:01	BASE	0.00	357	M	M	1.2	74	-2.9	174	407	975.5	NA	0.0000		9999	12990	0	0	0
2019/01/01 10:13:01	BASE	0.00	8	M	M	1.2	74	-2.8	180	420	975.6	NA	0.0000		9999	12990	0	0	0
2019/01/01 10:14:01	BASE	0.00	15	M	M	1.2	75	-2.8	208	474	975.6	NA	0.0000		9999	0	0	0	0
2019/01/01 10:15:01	BASE	0.00	5	M	M	1.2	75	-2.7	181	422	975.6	NA	0.0000		9999	13030	0	0	0
2019/01/01 10:16:01	BASE	0.00	6	M	M	1.2	75	-2.6	165	389	975.6	NA	0.0000		9999	8660	0	0	0
2019/01/01 10:17:01	BASE	0.04	5	1.03	360	1.2	76	-2.6	164	387	975.6	NA	0.0000		9999	8630	0	0	0
2019/01/01 10:18:01	BASE	0.31	357	1.18	355	1.2	76	-2.7	168	394	975.6	NA	0.0000		9999	8630	0	0	0
2019/01/01 10:19:01	BASE	0.73	355	1.18	354	1.1	75	-2.7	177	412	975.6	NA	0.0000		9999	8660	0	0	0
2019/01/01 10:20:01	BASE	0.90	5	1.18	354	1.1	75	-2.8	191	440	975.6	NA	0.0000		9999	8630	21650	0	0
2019/01/01 10:21:01	BASE	0.88	6	1.34	343	1.1	75	-2.8	186	431	975.6	NA	0.0000		9999	8660	0	0	0
2019/01/01 10:22:01	BASE	1.00	350	1.34	343	1.1	75	-2.8	193	446	975.6	NA	0.0000		9999	0	0	0	0
2019/01/01 10:23:01	BASE	1.17	343	1.34	343	1.1	76	-2.8	197	453	975.6	NA	0.0000		9999	8830	0	0	0
2019/01/01 10:24:01	BASE	1.22	338	1.34	339	1.0	76	-2.7	196	451	975.6	NA	0.0000		9999	8760	0	0	0
2019/01/01 10:25:01	BASE	1.04	337	1.34	339	1.0	76	-2.7	198	454	975.6	NA	0.0000		9999	21330	0	0	0
2019/01/01 10:26:01	BASE	0.90	343	1.34	339	0.9	76	-2.8	201	459	975.6	NA	0.0000		9999	0	0	0	0
2019/01/01 10:27:01	BASE	0.94	353	1.34	339	0.9	77	-2.7	203	464	975.6	NA	0.0000		9999	0	0	0	0
2019/01/01 10:28:01	BASE	1.02	11	1.34	339	0.9	77	-2.6	234	525	975.6	NA	0.0000		9999	0	0	0	0
2019/01/01 10:29:01	BASE	1.02	16	1.34	339	0.9	77	-2.6	235	526	975.6	NA	0.0000		9999	13190	0	0	0
2019/01/01 10:30:01	BASE	1.04	9	1.34	16	0.9	78	-2.5	199	457	975.6	NA	0.0000		9999	13090	0	0	0
2019/01/01 10:31:01	BASE	1.18	14	1.34	16	1.0	78	-2.5	200	460	975.6	NA	0.0000		9999	13120	0	0	0
2019/01/01 10:32:01	BASE	1.19	14	1.34	16	1.0	78	-2.5	204	468	975.6	NA	0.0000		9999	13120	0	0	0
2019/01/01 10:33:01	BASE	1.20	8	1.34	16	1.0	77	-2.6	208	476	975.6	NA	0.0000		9999	13160	0	0	0
2019/01/01 10:34:01	BASE	1.20	18	1.34	45	1.0	77	-2.6	217	494	975.6	NA	0.0000		9999	13090	0	0	0
2019/01/01 10:35:01	BASE	0.99	18	1.34	45	1.0	76	-2.8	261	582	975.6	NA	0.0000		9999	13090	0	0	0
2019/01/01 10:36:01	BASE	0.44	360	1.34	45	1.0	76	-2.9	225	509	975.6	NA	0.0000		9999	13120	0	0	0
2019/01/01 10:37:01	BASE	0.31	350	1.34	45	1.0	75	-2.9	222	503	975.6	NA	0.0000		9999	13160	0	0	0
2019/01/01 10:38:01	BASE	0.63	343	1.34	45	1.0	75	-2.9	222	505	975.6	NA	0.0000		9999	13160	0	0	0
2019/01/01 10:39:01	BASE	0.98	340	1.34	332	1.0	75	-2.9	226	514	975.6	NA	0.0000		9999	13090	0	0	0
2019/01/01 10:40:01	BASE	1.23	340	1.49	339	1.0	75	-2.9	239	540	975.6	NA	0.0000		9999	13120	0	0	0
2019/01/01 10:41:01	BASE	1.35	343	1.65	339	1.1	75	-2.9	268	595	975.6	NA	0.0000		9999	13120	0	0	0
2019/01/01 10:42:01	BASE	1.35	348	1.65	339	1.1	75	-2.8	242	545	975.6	NA	0.0000		9999	13160	0	0	0
2019/01/01 10:43:01	BASE	1.23	354	1.65	339	1.2	75	-2.7	233	529	975.6	NA	0.0000		9999	13120	0	0	0
2019/01/01 10:44:01	BASE	1.27	0	1.65	339	1.2	76	-2.6	234	532	975.6	NA	0.0000		9999	13090	0	0	0
2019/01/01 10:45:01	BASE	1.15	3	1.65	339	1.2	76	-2.5	231	528	975.6	NA	0.0000		9999	13120	0	0	0
2019/01/01 10:46:01	BASE	1.14	5	1.65	339	1.2	76	-2.4	233	533	975.6	NA	0.0000		9999	13160	0	0	0
2019/01/01 10:47:01	BASE	1.34	8	1.65	339	1.2	77	-2.4	239	546	975.7	NA	0.0000		9999	13090	0	0	0
2019/01/01 10:48:01	BASE	1.36	5	1.65	339	1.2	77	-2.4	246	561	975.8	NA	0.0000		9999	13030	0	0	0
2019/01/01 10:49:01	BASE	1.27	0	1.65	339	1.2	77	-2.4	255	579	975.8	NA	0.0000		9999	13090	0	0	0
2019/01/01 10:50:01	BASE	1.15	354	1.65	339	1.2	77	-2.4	290	650	975.8	NA	0.0000		9999	13160	0	0	0
2019/01/01 10:51:01	BASE	1.01	355	1.59	5	1.1	78	-2.3	275	620	975.8	NA	0.0000		9999	13090	0	0	0
2019/01/01 10:52:01	BASE	0.64	357	1.59	5	1.1	78	-2.3	317	702	975.8	NA	0.0000		9999	13090	0	0	0
2019/01/01 10:53:01	BASE	0.35	355	1.59	5	1.1	78	-2.3	271	611	975.8	NA	0.0000		9999	13030	0	0	0
2019/01/01 10:54:01	BASE	0.31	354	1.59	5	1.1	78	-2.3	268	607	975.8	NA	0.0000		9999	13030	0	0	0
2019/01/01 10:55:01	BASE	0.22	356	1.59	5	1.1	78	-2.3	268	607	975.8	NA	0.0000		9999	13030	0	0	0
2019/01/01 10:56:01	BASE	0.14	5	1.59	5	1.1	78	-2.3	266	602	975.8	NA	0.0000		9999	13060	0	0	0
2019/01/01 10:57:01	BASE	0.05	16	1.54	354	1.1	78	-2.3	265	601	975.8	NA	0.0000		9999	13060	0	0	0
2019/01/01 10:58:01	BASE	0.09	15	1.44	354	1.1	78	-2.3	267	605	975.8	NA	0.0000		9999	13090	0	0	0
2019/01/01 10:59:01	BASE	0.28	6	1.29	349	1.1	78	-2.3	268	607	975.8	NA	0.0000		9999	13060	0	0	0
2019/01/01 11:00:01	BASE	0.62	359	1.23	5	1.2	78	-2.3	269	609	975.8	NA	0.0000		9999	13090	0	0	0
2019/01/01 11:01:01	BASE	0.94	358	1.23	355	1.2	78	-2.3	269	608	975.8	NA	0.0000		9999	13060	0	0	0
2019/01/01 11:02:01	BASE	0.64	3	1.23	355	1.2	78	-2.2	270	609	975.8	NA	0.0000		9999	13030	0	0	0
2019/01/01 11:03:01	BASE	0.23	359	1.23	355	1.3	77	-2.3	272	612	975.8	NA	0.0000		9999	13060	0	0	0
2019/01/01 11:04:01	BASE	0.33	360	1.29	12	1.3	76	-2.4	273	617	975.8	NA	0.0000		9999	13090	0	0	0
2019/01/01 11:05:01	BASE	0.33	9	1.29	12	1.3	76	-2.5	277	628	975.8	NA	0.0000		9999	13060	0	0	0
2019/01/01 11:06:01	BASE	0.36	9	1.29	12	1.3	75	-2.6	283	642	975.8	NA	0.0000		9999	13030	0	0	0
2019/01/01 11:07:01	BASE	0.45	9	1.29	12	1.3	75	-2.7	279	631	975.8	NA	0.0000		9999	13030	0	0	0
2019/01/01 11:08:01	BASE	0.55	12	1.54	12	1.3	75	-2.7	281	632	975.8	NA	0.0000		9999	13030	0	0	0
2019/01/01 11:09:01	BASE	0.96	12	1.54	12	1.3	75	-2.7	291	655	975.8	NA	0.0000		9999	13030	0	0	0
2019/01/01 11:10:01	BASE	1.12	10	1.54	12	1.3	75	-2.7	335	743	975.8	NA	0.0000		9999	12990	0	0	0
2019/01/01 11:11:01	BASE	0.91	9	1.54	12	1.4	74	-2.7	364	798	975.8	NA	0.0000		9999	12990	0	0	0
2019/01/01 11:12:01	BASE	0.85	5	1.54	12	1.4	74	-2.7	504	1057	975.8	NA	0.0000		9999	13060	0	0	0
2019/01/01 11:13:01	BASE	1.09	5	1.54	12	1.5	73	-2.8	545	1130	975.8	NA	0.0000		9999	13090	0	0	0
2019/01/01 11:14:01	BASE	0.70	2	1.54	12	1.5	73	-2.8	521	1083	975.9	NA	0.0000		9999	13030	0	0	0
2019/01/01 11:15:01	BASE	0.24	2	1.54	12	1.5	73	-2.8	434	923	975.9	NA	0.0000		9999	13030	0	0	0
2019/01/01 11:16:01	BASE	0.14	1	1.54	12	1.6	73	-2.8	375	816	975.9	NA	0.0000		9999	12990	0	0	0
2019/01/01 11:17:01	BASE	0.23	4	1.54	12	1.5	73	-2.8	356	780	975.9	NA	0.0000		9999	12930	22800	0	0
2019/01/01 11:18:01	BASE	0.23	13	1.49	11	1.5	72	-3.0	360	793	975.9	NA	0.0000		9999	12960	0	0	0
2019/01/01 11:19:01	BASE	0.00	20	1.39	360	1.5	72	-3.0	319	714	975.9	NA	0.0000		9999	12930	0	0	0
2019/01/01 11:20:01	BASE	0.00	18	1.39	360	1.6	72	-3.0	304	685	975.9	NA	0.0000		9999	0	0	0	0
2019/01/01 11:21:01	BASE	0.00	15	1.39	360	1.6	71	-3.2	307	693	975.9	NA	0.0000		9999	13030	0	0	0
2019/01/01 11:22:01	BASE	0.00	9	1.39	360	1.5	70	-3.4	342	757	975.9	NA	0.0000		9999	0	0	0	0
2019/01/01 11:23:01	BASE	0.04	5	1.29	350	1.6	69	-3.5	409	881	975.9	NA	0.0000		9999	22700	0	0	0
2019/01/01 11:24:01	BASE	0.14	354	1.29	350	1.6	68	-3.7	453	960	975.9	NA	0.0000		9999	12960	0	0	0
2019/01/01 11:25:01	BASE	0.09	337	1.23	16	1.6	67	-3.8	464	979	975.9	NA	0.0000		9999	12890	0	0	0
2019/01/01 11:26:01	BASE	0.50	324	1.39	312	1.6	67	-3.8	441	936	975.9	NA	0.0000		9999	12860	0	0	0
2019/01/01 11:27:01	BASE	1.14	311	1.44	312	1.6	67	-3.8	449	952	975.9	NA	0.0000		9999	12860	0	0	0
2019/01/01 11:28:01	BASE	1.16	312	1.44	309	1.6	67	-3.8	452	960	975.9	NA	0.0000		9999	12830	0	0	0
2019/01/01 11:29:01	BASE	1.13	316	1.44	309	1.6	67	-3.9	471	995	975.9	NA	0.0000		9999	12830	0	0	0
2019/01/01 11:30:01	BASE	1.02	322	1.44	309	1.6	67	-3.9	460	974	975.9	NA	0.0000		9999	12760	19100	23620	0
2019/01/01 11:31:01	BASE	0.59	327	1.44	309	1.6	67	-3.9	426	912	975.9	NA	0.0000		9999	12800	0	0	0
2019/01/01 11:32:01	BASE	0.27	332	1.44	309	1.7	66	-3.9	439	937	975.9	NA	0.0000		9999	12830	0	0	0
2019/01/01 11:33:01	BASE	0.67	336	1.44	309	1.7	66	-4.0	446	950	975.9	NA	0.0000		9999	0	0	0	0
2019/01/01 11:34:01	BASE	1.09	335	1.44	309	1.7	66	-3.9	431	923	975.9	NA	0.0000		9999	0	0	0	0
2019/01/01 11:35:01	BASE	0.66	338	1.44	309	1.7	66	-3.9	474	1003	975.9	NA	0.0000		9999	0	0	0	0
2019/01/01 11:36:01	BASE	0.30	343	1.44	309	1.7	66	-3.9	516	1080	975.9	NA	0.0000		9999	12800	0	0	0
2019/01/01 11:37:01	BASE	0.51	342	1.44	309	1.7	66	-4.0	497	1046	975.9	NA	0.0000		9999	12860	0	0	0
2019/01/01 11:38:01	BASE	0.45	343	1.34	332	1.7	66	-4.1	461	983	975.9	NA	0.0000		9999	12830	0	0	0
2019/01/01 11:39:01	BASE	0.09	342	1.34	332	1.7	66	-4.0	473	1007	975.9	NA	0.0000		9999	12830	0	0	0
2019/01/01 11:40:01	BASE	0.00	336	1.34	332	1.7	65	-4.1	555	1157	976.0	NA	0.0000		9999	12830	0	0	0
2019/01/01 11:41:01	BASE	0.28	327	1.34	332	1.8	65	-4.1	552	1154	976.0	NA	0.0000		9999	12800	0	0	0
2019/01/01 11:42:01	BASE	0.42	319	1.34	332	1.9	65	-4.0	603	1247	976.0	NA	0.0000		9999	12800	0	0	0
2019/01/01 11:43:01	BASE	0.19	318	1.34	332	1.9	65	-4.0	648	1327	976.0	NA	0.0000		9999	12830	0	0	0
2019/01/01 11:44:01	BASE	0.13	320	1.34	332	1.9	64	-4.1	632	1301	976.0	NA	0.0000		9999	12800	0	0	0
2019/01/01 11:45:01	BASE	0.13	327	1.23	317	1.9	64	-4.1	642	1317	976.0	NA	0.0000		9999	12860	0	0	0
2019/01/01 11:46:01	BASE	0.21	327	1.34	318	2.0	64	-4.1	632	1302	976.0	NA	0.0000		9999	12830	0	0	0
2019/01/01 11:47:01	BASE	0.79	324	1.54	322	2.0	63	-4.2	643	1322	976.0	NA	0.0000		9999	12890	0	0	0
2019/01/01 11:48:01	BASE	1.38	323	1.70	321	2.1	63	-4.3	614	1271	976.0	NA	0.0000		9999	12860	0	0	0
2019/01/01 11:49:01	BASE	1.52	324	1.95	326	2.1	63	-4.3	600	1248	976.0	NA	0.0000		9999	12860	0	0	0
2019/01/01 11:50:01	BASE	1.58	328	1.95	326	2.1	62	-4.3	624	1291	976.0	NA	0.0000		9999	12830	0	0	0
2019/01/01 11:51:01	BASE	1.66	329	2.01	330	2.1	62	-4.4	661	1358	976.0	NA	0.0000		9999	12890	0	0	0
2019/01/01 11:52:01	BASE	1.76	327	2.06	323	2.1	62	-4.4	625	1296	976.0	NA	0.0000		9999	12930	0	0	0
2019/01/01 11:53:01	BASE	1.80	320	2.06	323	2.1	63	-4.3	622	1293	976.0	NA	0.0000		9999	12930	0	0	0
2019/01/01 11:54:01	BASE	1.86	317	2.06	313	2.0	63	-4.3	633	1313	976.0	NA	0.0000		9999	12930	0	0	0
2019/01/01 11:55:01	BASE	1.92	318	2.11	318	2.0	63	-4.3	642	1330	976.0	NA	0.0000		9999	12960	0	0	0
2019/01/01 11:56:01	BASE	1.95	316	2.11	319	2.0	63	-4.3	679	1395	976.0	NA	0.0000		9999	12930	0	0	0
2019/01/01 11:57:01	BASE	2.01	312	2.11	305	2.0	63	-4.3	655	1352	976.0	NA	0.0000		9999	0	0	0	0
2019/01/01 11:58:01	BASE	2.02	310	2.11	310	2.0	63	-4.2	636	1318	976.0	NA	0.0000		9999	0	0	0	0
2019/01/01 11:59:01	BASE	2.04	313	2.11	317	2.1	64	-4.1	633	1312	976.0	NA	0.0000		9999	13030	21420	23100	0
2019/01/01 12:00:01	BASE	2.02	315	2.11	318	2.1	63	-4.1	599	1251	976.0	NA	0.0000		9999	13120	0	0	0
2019/01/01 12:01:01	BASE	1.94	320	2.11	319	2.1	63	-4.1	601	1256	976.0	NA	0.0000		9999	0	0	0	0
2019/01/01 12:02:01	BASE	1.86	324	2.11	319	2.2	64	-4.0	553	1169	976.0	NA	0.0000		9999	0	0	0	0
2019/01/01 12:03:01	BASE	1.90	324	2.11	319	2.3	64	-3.9	540	1144	976.0	NA	0.0000		9999	0	0	0	0
2019/01/01 12:04:01	BASE	1.91	322	2.11	319	2.3	64	-3.8	500	1072	976.0	NA	0.0000		9999	0	0	0	0
2019/01/01 12:05:01	BASE	1.85	320	2.11	319	2.3	65	-3.7	524	1115	976.0	NA	0.0000		9999	0	0	0	0
2019/01/01 12:06:01	BASE	1.93	319	2.21	319	2.3	65	-3.6	561	1184	976.0	NA	0.0000		9999	0	0	0	0
2019/01/01 12:07:01	BASE	2.09	319	2.21	317	2.2	66	-3.4	568	1199	976.0	NA	0.0000		9999	0	0	0	0
2019/01/01 12:08:01	BASE	2.19	319	2.42	323	2.2	68	-3.2	591	1239	976.0	NA	0.0000		9999	0	0	0	0
2019/01/01 12:09:01	BASE	2.17	314	2.47	307	2.2	69	-2.9	587	1234	976.0	NA	0.0000		9999	0	0	0	0
2019/01/01 12:10:01	BASE	2.00	305	2.47	307	2.2	70	-2.7	582	1226	976.0	NA	0.0000		9999	21390	22470	0	0
2019/01/01 12:11:01	BASE	1.74	308	2.47	307	2.2	70	-2.6	594	1249	976.0	NA	0.0000		9999	0	0	0	0
2019/01/01 12:12:01	BASE	1.77	317	2.47	307	2.2	71	-2.6	610	1279	976.0	NA	0.0000		9999	22470	0	0	0
2019/01/01 12:13:01	BASE	2.15	321	2.52	319	2.2	71	-2.4	560	1188	976.0	NA	0.0000		9999	0	0	0	0
2019/01/01 12:14:01	BASE	2.36	324	2.68	325	2.3	71	-2.4	530	1132	976.0	NA	0.0000		9999	0	0	0	0
2019/01/01 12:15:01	BASE	2.36	325	2.68	325	2.3	71	-2.3	548	1167	976.0	NA	0.0000		9999	0	0	0	0
2019/01/01 12:16:01	BASE	2.36	327	2.68	326	2.5	72	-2.1	536	1145	976.0	NA	0.0000		9999	0	0	0	0
2019/01/01 12:17:01	BASE	2.34	325	2.68	326	2.5	71	-2.2	522	1119	976.0	NA	0.0000		9999	0	0	0	0
2019/01/01 12:18:01	BASE	2.18	321	2.68	326	2.4	71	-2.3	506	1089	976.0	NA	0.0000		9999	0	0	0	0
2019/01/01 12:19:01	BASE	2.21	309	2.88	286	2.3	71	-2.4	546	1165	976.1	NA	0.0000		9999	0	0	0	0
2019/01/01 12:20:01	BASE	2.51	296	3.04	293	2.2	71	-2.4	556	1184	976.1	NA	0.0000		9999	0	0	0	0
2019/01/01 12:21:01	BASE	2.62	295	3.04	293	2.1	72	-2.4	585	1240	976.2	NA	0.0000		9999	0	0	0	0
2019/01/01 12:22:01	BASE	2.64	298	3.04	293	2.0	73	-2.2	559	1193	976.2	NA	0.0000		9999	0	0	0	0
2019/01/01 12:23:01	BASE	2.34	304	3.04	293	2.0	74	-2.1	576	1225	976.2	NA	0.0000		9999	11910	0	0	0
2019/01/01 12:24:01	BASE	1.93	308	3.04	293	2.0	75	-2.0	577	1226	976.2	NA	0.0000		9999	0	0	0	0
2019/01/01 12:25:01	BASE	1.91	306	3.04	293	2.0	75	-2.0	569	1211	976.2	NA	0.0000		9999	0	0	0	0
2019/01/01 12:26:01	BASE	1.88	303	3.04	293	2.0	75	-2.0	562	1197	976.1	NA	0.0000		9999	0	0	0	0
2019/01/01 12:27:01	BASE	1.87	305	3.04	293	2.0	75	-2.0	556	1187	976.1	NA	0.0000		9999	0	0	0	0
2019/01/01 12:28:01	BASE	1.98	304	3.04	293	2.0	75	-2.0	530	1138	976.2	NA	0.0000		9999	24440	0	0	0
2019/01/01 12:29:01	BASE	1.98	305	3.04	293	1.9	75	-2.0	521	1122	976.2	NA	0.0000		9999	0	0	0	0
2019/01/01 12:30:01	BASE	1.86	308	2.88	297	1.8	76	-1.9	531	1140	976.2	NA	0.0000		9999	0	0	0	0
2019/01/01 12:31:01	BASE	1.90	304	2.88	297	1.8	77	-1.7	518	1116	976.2	NA	0.0000		9999	0	0	0	0
2019/01/01 12:32:01	BASE	2.09	300	2.52	297	1.9	79	-1.5	528	1135	976.2	NA	0.0000		9999	21460	0	0	0
2019/01/01 12:33:01	BASE	2.10	297	2.52	297	1.9	80	-1.1	537	1152	976.2	NA	0.0000		9999	0	0	0	0
2019/01/01 12:34:01	BASE	2.02	301	2.52	297	2.0	81	-0.9	575	1222	976.2	NA	0.0000		9999	0	0	0	0
2019/01/01 12:35:01	BASE	1.92	309	2.52	297	2.0	83	-0.7	572	1215	976.2	NA	0.0000		9999	0	0	0	0
2019/01/01 12:36:01	BASE	1.75	311	2.52	297	2.0	84	-0.4	534	1146	976.2	NA	0.0000		9999	0	0	0	0
2019/01/01 12:37:01	BASE	1.70	304	2.52	297	2.1	84	-0.3	523	1125	976.2	NA	0.0000		9999	0	0	0	0
2019/01/01 12:38:01	BASE	1.97	299	2.52	297	2.0	85	-0.2	493	1068	976.2	NA	0.0000		9999	0	0	0	0
2019/01/01 12:39:01	BASE	2.25	297	2.52	297	2.0	86	-0.2	522	1122	976.2	NA	0.0000		9999	0	0	0	0
2019/01/01 12:40:01	BASE	2.20	298	2.52	297	2.0	86	-0.1	547	1168	976.2	NA	0.0000		9999	0	0	0	0
2019/01/01 12:41:01	BASE	2.12	301	2.47	298	1.9	87	-0.0	565	1202	976.2	NA	0.0000		9999	0	0	0	0
2019/01/01 12:42:01	BASE	1.88	311	2.47	298	1.9	88	0.0	578	1226	976.2	NA	0.0000		9999	0	0	0	0
2019/01/01 12:43:01	BASE	1.81	311	2.47	298	1.9	89	0.2	589	1248	976.2	NA	0.0000		9999	0	0	0	0
2019/01/01 12:44:01	BASE	2.01	306	2.47	298	1.9	89	0.3	635	1333	976.2	NA	0.0000		9999	0	0	0	0
2019/01/01 12:45:01	BASE	1.84	319	2.47	298	2.0	90	0.5	652	1365	976.2	NA	0.0000		9999	0	0	0	0
2019/01/01 12:46:01	BASE	1.70	335	2.47	298	2.0	90	0.5	641	1345	976.2	NA	0.0000		9999	0	0	0	0
2019/01/01 12:47:01	BASE	1.66	339	2.47	298	1.9	90	0.5	561	1196	976.2	NA	0.0000		9999	0	0	0	0
2019/01/01 12:48:01	BASE	1.52	336	2.47	298	1.8	90	0.4	542	1160	976.2	NA	0.0000		9999	0	0	0	0
2019/01/01 12:49:01	BASE	1.19	329	2.31	320	1.8	91	0.5	507	1095	976.2	NA	0.0000		9999	0	0	0	0
2019/01/01 12:50:01	BASE	1.02	320	2.31	320	1.9	91	0.6	490	1061	976.3	NA	0.0000		9999	0	0	0	0
2019/01/01 12:51:01	BASE	0.99	322	2.31	320	2.0	92	0.8	499	1078	976.3	NA	0.0000		9999	0	0	0	0
2019/01/01 12:52:01	BASE	1.16	332	2.31	320	2.0	91	0.7	481	1042	976.4	NA	0.0000		9999	0	0	0	0
2019/01/01 12:53:01	BASE	1.49	344	2.31	320	2.0	92	0.8	499	1075	976.4	NA	0.0000		9999	0	0	0	0
2019/01/01 12:54:01	BASE	1.54	349	1.95	337	2.0	92	0.8	418	924	976.4	NA	0.0000		9999	0	0	0	0
2019/01/01 12:55:01	BASE	1.20	341	1.95	337	2.0	92	0.7	413	916	976.4	NA	0.0000		9999	0	0	0	0
2019/01/01 12:56:01	BASE	0.89	325	1.95	337	1.8	92	0.6	416	922	976.4	NA	0.0000		9999	0	0	0	0
2019/01/01 12:57:01	BASE	1.22	307	1.95	337	1.8	92	0.7	411	911	976.4	NA	0.0000		9999	0	0	0	0
2019/01/01 12:58:01	BASE	1.72	294	2.11	276	1.9	92	0.8	408	907	976.4	NA	0.0000		9999	0	0	0	0
2019/01/01 12:59:01	BASE	1.97	286	2.42	286	1.8	92	0.7	425	940	976.4	NA	0.0000		9999	0	0	0	0
2019/01/01 13:00:01	BASE	2.07	280	2.42	286	1.9	92	0.7	422	935	976.4	NA	0.0000		9999	0	0	0	0
2019/01/01 13:01:01	BASE	1.98	277	2.42	286	2.0	91	0.7	466	1022	976.4	NA	0.0000		9999	0	0	0	0
2019/01/01 13:02:01	BASE	1.63	268	2.42	286	2.0	90	0.5	466	1021	976.4	NA	0.0000		9999	0	0	0	0
2019/01/01 13:03:01	BASE	1.28	253	2.42	286	2.0	89	0.4	427	948	976.4	NA	0.0000		9999	0	0	0	0
2019/01/01 13:04:01	BASE	1.08	243	2.42	286	1.9	89	0.3	453	999	976.4	NA	0.0000		9999	0	0	0	0
2019/01/01 13:05:01	BASE	0.98	242	2.42	286	1.8	89	0.3	466	1023	976.5	NA	0.0000		9999	0	0	0	0
2019/01/01 13:06:01	BASE	1.20	250	2.42	286	1.7	90	0.2	452	997	976.5	NA	0.0000		9999	0	0	0	0
2019/01/01 13:07:01	BASE	1.38	257	2.42	286	1.5	91	0.3	434	962	976.5	NA	0.0000		9999	21130	0	0	0
2019/01/01 13:08:01	BASE	1.57	257	2.42	286	1.5	92	0.3	407	913	976.5	NA	0.0000		9999	0	0	0	0
2019/01/01 13:09:01	BASE	1.99	255	2.52	246	1.5	92	0.4	401	902	976.4	NA	0.0000		9999	0	0	0	0
2019/01/01 13:10:01	BASE	2.12	251	2.52	246	1.4	92	0.3	382	867	976.4	NA	0.0000		9999	0	0	0	0
2019/01/01 13:11:01	BASE	2.02	249	2.52	246	1.4	92	0.3	364	832	976.5	NA	0.0000		9999	0	0	0	0
2019/01/01 13:12:01	BASE	1.90	247	2.52	246	1.4	92	0.3	366	838	976.5	NA	0.0000		9999	9970	0	0	0
2019/01/01 13:13:01	BASE	1.79	242	2.52	246	1.3	93	0.3	372	850	976.4	NA	0.0000		9999	10070	0	0	0
2019/01/01 13:14:01	BASE	1.67	241	2.52	246	1.3	94	0.4	378	861	976.4	NA	0.0000		9999	9840	0	0	0
2019/01/01 13:15:01	BASE	1.24	245	2.52	246	1.3	94	0.5	378	861	976.5	NA	0.0000		9999	0	0	0	0
2019/01/01 13:16:01	BASE	0.89	251	2.52	246	1.3	95	0.5	383	871	976.4	NA	0.0000		9999	0	0	0	0
2019/01/01 13:17:01	BASE	0.51	253	2.52	246	1.3	95	0.6	387	880	976.4	NA	0.0000		9999	0	0	0	0
2019/01/01 13:18:01	BASE	0.10	265	2.52	246	1.4	95	0.6	389	884	976.5	NA	0.0000		9999	0	0	0	0
2019/01/01 13:19:01	BASE	0.55	290	2.52	246	1.4	95	0.6	384	874	976.5	NA	0.0000		9999	0	0	0	0
2019/01/01 13:20:01	BASE	1.08	302	2.21	249	1.5	94	0.6	387	882	976.5	NA	0.0000		9999	0	0	0	0
2019/01/01 13:21:01	BASE	1.26	308	2.11	257	1.6	93	0.6	398	903	976.5	NA	0.0000		9999	15160	0	0	0
2019/01/01 13:22:01	BASE	1.34	305	2.11	257	1.6	92	0.5	406	920	976.5	NA	0.0000		9999	0	0	0	0
2019/01/01 13:23:01	BASE	1.35	299	2.11	257	1.6	92	0.4	407	922	976.5	NA	0.0000		9999	0	0	0	0
2019/01/01 13:24:01	BASE	1.38	299	1.65	288	1.6	91	0.3	399	907	976.5	NA	0.0000		9999	0	0	0	0
2019/01/01 13:25:01	BASE	1.45	298	1.65	272	1.6	91	0.2	396	901	976.5	NA	0.0000		9999	0	0	0	0
2019/01/01 13:26:01	BASE	1.38	289	1.65	272	1.6	91	0.2	388	887	976.6	NA	0.0000		9999	0	0	0	0
2019/01/01 13:27:01	BASE	1.23	276	1.65	272	1.6	91	0.3	393	897	976.6	NA	0.0000		9999	23980	0	0	0
2019/01/01 13:28:01	BASE	0.89	266	1.65	272	1.6	91	0.3	390	892	976.6	NA	0.0000		9999	0	0	0	0
2019/01/01 13:29:01	BASE	0.29	246	1.65	272	1.6	91	0.3	394	900	976.6	NA	0.0000		9999	21590	0	0	0
2019/01/01 13:30:01	BASE	0.00	211	1.65	272	1.6	92	0.4	394	900	976.6	NA	0.0000		9999	21030	0	0	0
2019/01/01 13:31:01	BASE	0.23	202	1.65	272	1.6	92	0.4	393	898	976.6	NA	0.0000		9999	0	0	0	0
2019/01/01 13:32:01	BASE	0.67	218	1.65	272	1.6	92	0.4	396	906	976.7	NA	0.0000		9999	0	0	0	0
2019/01/01 13:33:01	BASE	0.57	228	1.65	272	1.6	93	0.5	386	886	976.7	NA	0.0000		9999	0	0	0	0
2019/01/01 13:34:01	BASE	0.18	236	1.65	272	1.5	93	0.5	376	867	976.7	NA	0.0000		9999	0	0	0	0
2019/01/01 13:35:01	BASE	0.09	250	1.59	280	1.5	93	0.5	372	861	976.7	NA	0.0000		9999	17090	0	0	0
2019/01/01 13:36:01	BASE	0.05	253	1.39	231	1.5	94	0.6	366	848	976.7	NA	0.0000		9999	0	0	0	0
2019/01/01 13:37:01	BASE	0.00	236	1.39	231	1.5	94	0.7	356	830	976.7	NA	0.0000		9999	17290	0	0	0
2019/01/01 13:38:01	BASE	0.00	213	1.39	231	1.6	95	0.9	343	804	976.7	NA	0.0000		9999	19130	0	0	0
2019/01/01 13:39:01	BASE	0.00	226	1.39	231	1.7	95	1.0	337	793	976.7	NA	0.0000		9999	0	0	0	0
2019/01/01 13:40:01	BASE	0.05	271	1.39	231	1.8	95	1.0	336	791	976.7	NA	0.0000		9999	0	0	0	0
2019/01/01 13:41:01	BASE	0.44	288	1.65	296	1.8	95	1.1	333	784	976.7	NA	0.0000		9999	18210	0	0	0
2019/01/01 13:42:01	BASE	0.74	304	1.65	296	1.9	95	1.1	332	783	976.7	NA	0.0000		9999	0	0	0	0
2019/01/01 13:43:01	BASE	0.44	317	1.65	296	1.8	94	1.0	332	783	976.7	NA	0.0000		9999	0	0	0	0
2019/01/01 13:44:01	BASE	0.33	312	1.65	296	1.8	95	1.0	333	786	976.7	NA	0.0000		9999	0	0	0	0
2019/01/01 13:45:01	BASE	0.32	301	1.65	296	1.8	95	1.0	339	797	976.7	NA	0.0000		9999	0	0	0	0
2019/01/01 13:46:01	BASE	0.09	294	1.65	296	1.8	95	1.0	344	808	976.7	NA	0.0000		9999	0	0	0	0
2019/01/01 13:47:01	BASE	0.53	297	1.65	296	1.8	95	1.0	355	829	976.7	NA	0.0000		9999	0	0	0	0
2019/01/01 13:48:01	BASE	1.01	302	1.65	296	1.8	95	1.1	365	851	976.6	NA	0.0000		9999	13620	0	0	0
2019/01/01 13:49:01	BASE	1.19	311	1.65	296	1.8	95	1.1	373	865	976.6	NA	0.0000		9999	0	0	0	0
2019/01/01 13:50:01	BASE	1.41	323	1.65	333	1.7	95	1.0	383	887	976.6	NA	0.0000		9999	7680	0	0	0
2019/01/01 13:51:01	BASE	1.37	331	1.65	333	1.6	95	1.0	395	910	976.6	NA	0.0000		9999	0	0	0	0
2019/01/01 13:52:01	BASE	1.23	331	1.65	333	1.6	96	0.9	402	925	976.6	NA	0.0000		9999	0	0	0	0
2019/01/01 13:53:01	BASE	0.89	325	1.65	333	1.5	96	0.9	402	926	976.6	NA	0.0000		9999	7910	0	0	0
2019/01/01 13:54:01	BASE	0.42	320	1.65	333	1.4	96	0.9	408	937	976.6	NA	0.0000		9999	0	0	0	0
2019/01/01 13:55:01	BASE	0.14	315	1.65	333	1.4	97	0.9	422	966	976.6	NA	0.0000		9999	0	0	0	0
2019/01/01 13:56:01	BASE	0.10	316	1.65	333	1.4	97	1.0	415	953	976.6	NA	0.0000		9999	0	0	0	0
2019/01/01 13:57:01	BASE	0.05	314	1.65	333	1.5	97	1.1	414	950	976.6	NA	0.0000		9999	7190	0	0	0
2019/01/01 13:58:01	BASE	0.00	314	1.65	333	1.5	97	1.1	399	922	976.6	NA	0.0000		9999	19820	0	0	0
2019/01/01 13:59:01	BASE	0.00	319	1.65	333	1.5	97	1.1	388	900	976.6	NA	0.0000		9999	0	0	0	0
2019/01/01 14:00:01	BASE	0.00	325	1.54	327	1.6	97	1.2	383	890	976.6	NA	0.0000		9999	0	0	0	0
2019/01/01 14:01:01	BASE	0.00	329	1.39	330	1.6	97	1.2	385	895	976.7	NA	0.0000		9999	7480	0	0	0
2019/01/01 14:02:01	BASE	0.00	323	1.29	312	1.6	97	1.2	386	898	976.7	NA	0.0000		9999	0	0	0	0
2019/01/01 14:03:01	BASE	0.21	335	1.34	1	1.7	97	1.2	383	893	976.7	NA	0.0000		9999	7320	0	0	0
2019/01/01 14:04:01	BASE	0.72	355	1.49	350	1.8	97	1.3	378	884	976.7	NA	0.0000		9999	7380	0	0	0
2019/01/01 14:05:01	BASE	0.79	3	1.49	350	1.8	97	1.3	375	878	976.7	NA	0.0000		9999	7190	0	0	0
2019/01/01 14:06:01	BASE	0.32	16	1.49	350	1.9	96	1.3	371	870	976.7	NA	0.0000		9999	7250	0	0	0
2019/01/01 14:07:01	BASE	0.05	25	1.49	350	1.8	96	1.2	370	868	976.7	NA	0.0000		9999	7120	0	0	0
2019/01/01 14:08:01	BASE	0.00	23	1.49	350	1.7	96	1.1	369	866	976.7	NA	0.0000		9999	7250	0	0	0
2019/01/01 14:09:01	BASE	0.09	24	1.49	350	1.7	96	1.0	371	872	976.7	NA	0.0000		9999	7380	0	0	0
2019/01/01 14:10:01	BASE	0.17	6	1.49	350	1.6	96	1.0	375	881	976.7	NA	0.0000		9999	7450	0	0	0
2019/01/01 14:11:01	BASE	0.09	347	1.49	350	1.7	96	1.1	375	881	976.7	NA	0.0000		9999	7380	0	0	0
2019/01/01 14:12:01	BASE	0.24	357	1.49	350	1.7	96	1.2	377	885	976.7	NA	0.0000		9999	7090	0	0	0
2019/01/01 14:13:01	BASE	0.33	5	1.49	350	1.8	96	1.2	379	889	976.7	NA	0.0000		9999	7250	0	0	0
2019/01/01 14:14:01	BASE	0.46	13	1.29	7	1.8	96	1.2	381	893	976.7	NA	0.0000		9999	6920	0	0	0
2019/01/01 14:15:01	BASE	0.65	4	1.29	7	1.8	95	1.2	384	898	976.7	NA	0.0000		9999	7350	0	0	0
2019/01/01 14:16:01	BASE	0.70	355	1.39	5	1.8	95	1.0	388	907	976.7	NA	0.0000		9999	7050	0	0	0
2019/01/01 14:17:01	BASE	1.00	0	1.39	5	1.7	95	1.0	395	922	976.7	NA	0.0000		9999	6690	0	0	0
2019/01/01 14:18:01	BASE	1.16	358	1.44	9	1.6	95	0.9	401	935	976.7	NA	0.0000		9999	6690	0	0	0
2019/01/01 14:19:01	BASE	1.19	1	1.44	9	1.6	95	0.9	409	950	976.7	NA	0.0000		9999	6430	0	0	0
2019/01/01 14:20:01	BASE	1.20	4	1.44	9	1.5	96	0.9	410	952	976.7	NA	0.0000		9999	6560	0	0	0
2019/01/01 14:21:01	BASE	1.18	358	1.44	9	1.6	96	1.0	412	958	976.7	NA	0.0000		9999	6560	0	0	0
2019/01/01 14:22:01	BASE	0.59	354	1.44	9	1.6	96	1.1	416	965	976.7	NA	0.0000		9999	6430	0	0	0
2019/01/01 14:23:01	BASE	0.14	356	1.44	9	1.7	96	1.1	414	963	976.7	NA	0.0000		9999	6370	0	0	0
2019/01/01 14:24:01	BASE	0.14	357	1.44	9	1.7	96	1.2	413	960	976.7	NA	0.0000		9999	6590	0	0	0
2019/01/01 14:25:01	BASE	0.20	348	1.44	9	1.7	96	1.2	412	959	976.7	NA	0.0000		9999	6040	0	0	0
2019/01/01 14:26:01	BASE	0.34	344	1.44	9	1.7	96	1.2	411	957	976.7	NA	0.0000		9999	0	0	0	0
2019/01/01 14:27:01	BASE	0.34	351	1.44	9	1.7	96	1.2	410	956	976.7	NA	0.0000		9999	0	0	0	0
2019/01/01 14:28:01	BASE	0.49	351	1.39	326	1.7	97	1.2	410	955	976.7	NA	0.0000		9999	0	0	0	0
2019/01/01 14:29:01	BASE	0.94	348	1.49	345	1.7	97	1.3	411	958	976.7	NA	0.0000		9999	0	0	0	0
2019/01/01 14:30:01	BASE	1.30	348	1.49	345	1.7	97	1.3	415	966	976.7	NA	0.0000		9999	0	0	0	0
2019/01/01 14:31:01	BASE	1.12	345	1.49	345	1.7	97	1.2	419	974	976.7	NA	0.0000		9999	7280	0	0	0
2019/01/01 14:32:01	BASE	1.18	344	1.59	340	1.7	97	1.3	424	984	976.7	NA	0.0000		9999	7910	0	0	0
2019/01/01 14:33:01	BASE	1.51	343	1.80	355	1.7	97	1.3	435	1004	976.7	NA	0.0000		9999	0	0	0	0
2019/01/01 14:34:01	BASE	1.53	344	1.80	355	1.7	97	1.2	440	1015	976.7	NA	0.0000		9999	0	0	0	0
2019/01/01 14:35:01	BASE	1.43	349	1.80	1	1.6	97	1.2	440	1016	976.7	NA	0.0000		9999	0	0	0	0
2019/01/01 14:36:01	BASE	1.45	355	1.80	1	1.6	98	1.3	453	1040	976.7	NA	0.0000		9999	7250	0	0	0
2019/01/01 14:37:01	BASE	1.40	358	1.80	1	1.6	98	1.3	458	1049	976.7	NA	0.0000		9999	0	0	0	0
2019/01/01 14:38:01	BASE	1.28	358	1.80	1	1.7	98	1.4	459	1051	976.7	NA	0.0000		9999	0	0	0	0
2019/01/01 14:39:01	BASE	1.16	359	1.80	1	1.7	98	1.4	445	1025	976.7	NA	0.0000		9999	0	0	0	0
2019/01/01 14:40:01	BASE	1.13	354	1.80	1	1.7	98	1.4	446	1026	976.7	NA	0.0000		9999	13780	0	0	0
2019/01/01 14:41:01	BASE	1.02	344	1.80	1	1.7	98	1.4	450	1033	976.7	NA	0.0000		9999	0	0	0	0
2019/01/01 14:42:01	BASE	0.86	341	1.80	1	1.6	98	1.3	458	1049	976.7	NA	0.0000		9999	21230	0	0	0
2019/01/01 14:43:01	BASE	0.90	341	1.80	1	1.7	98	1.4	470	1073	976.7	NA	0.0000		9999	13450	0	0	0
2019/01/01 14:44:01	BASE	1.01	341	1.80	1	1.7	98	1.4	481	1095	976.7	NA	0.0000		9999	15190	0	0	0
2019/01/01 14:45:01	BASE	0.69	341	1.70	323	1.7	98	1.4	499	1130	976.7	NA	0.0000		9999	0	0	0	0
2019/01/01 14:46:01	BASE	0.74	334	1.70	323	1.8	98	1.4	517	1165	976.7	NA	0.0000		9999	0	0	0	0
2019/01/01 14:47:01	BASE	1.12	323	1.70	323	1.8	97	1.4	521	1175	976.7	NA	0.0000		9999	0	0	0	0
2019/01/01 14:48:01	BASE	1.18	315	1.70	323	1.7	97	1.3	522	1176	976.7	NA	0.0000		9999	17320	0	0	0
2019/01/01 14:49:01	BASE	0.98	301	1.70	323	1.7	97	1.3	556	1243	976.7	NA	0.0000		9999	0	0	0	0
2019/01/01 14:50:01	BASE	0.53	292	1.70	323	1.7	97	1.3	604	1335	976.7	NA	0.0000		9999	23160	24350	0	0
2019/01/01 14:51:01	BASE	0.19	292	1.70	323	1.8	97	1.4	611	1350	976.7	NA	0.0000		9999	16570	0	0	0
2019/01/01 14:52:01	BASE	0.00	295	1.70	323	1.8	97	1.4	595	1318	976.7	NA	0.0000		9999	18930	0	0	0
2019/01/01 14:53:01	BASE	0.50	298	1.70	323	1.9	97	1.4	570	1270	976.7	NA	0.0000		9999	0	0	0	0
2019/01/01 14:54:01	BASE	1.12	299	1.49	324	1.9	97	1.5	543	1217	976.7	NA	0.0000		9999	0	0	0	0
2019/01/01 14:55:01	BASE	1.30	301	1.70	299	1.9	96	1.4	530	1192	976.7	NA	0.0000		9999	0	0	0	0
2019/01/01 14:56:01	BASE	1.34	304	1.70	299	1.9	96	1.3	498	1131	976.7	NA	0.0000		9999	0	0	0	0
2019/01/01 14:57:01	BASE	1.37	313	1.75	323	1.9	96	1.3	485	1106	976.7	NA	0.0000		9999	16410	0	0	0
2019/01/01 14:58:01	BASE	0.95	318	1.75	323	1.9	96	1.4	462	1061	976.7	NA	0.0000		9999	20080	0	0	0
2019/01/01 14:59:01	BASE	0.66	316	1.75	323	2.0	96	1.4	458	1052	976.7	NA	0.0000		9999	0	0	0	0
2019/01/01 15:00:01	BASE	0.57	314	1.75	323	2.0	96	1.4	465	1068	976.7	NA	0.0000		9999	13680	0	0	0
2019/01/01 15:01:01	BASE	0.24	316	1.75	323	2.0	96	1.5	468	1073	976.7	NA	0.0000		9999	0	0	0	0
2019/01/01 15:02:01	BASE	0.45	323	1.75	323	2.1	96	1.5	467	1072	976.7	NA	0.0000		9999	24280	0	0	0
2019/01/01 15:03:01	BASE	0.45	331	1.75	323	2.1	95	1.4	452	1044	976.7	NA	0.0000		9999	13980	0	0	0
2019/01/01 15:04:01	BASE	0.69	331	1.75	323	2.0	95	1.4	440	1020	976.8	NA	0.0000		9999	15950	0	0	0
2019/01/01 15:05:01	BASE	1.26	326	1.75	323	2.0	95	1.4	440	1020	976.8	NA	0.0000		9999	0	0	0	0
2019/01/01 15:06:01	BASE	1.36	326	1.80	322	1.9	95	1.2	451	1042	976.8	NA	0.0000		9999	14930	0	0	0
2019/01/01 15:07:01	BASE	1.46	329	1.80	322	1.8	96	1.2	453	1046	976.8	NA	0.0000		9999	15060	0	0	0
2019/01/01 15:08:01	BASE	1.35	332	1.80	322	1.7	96	1.2	435	1011	976.8	NA	0.0000		9999	0	0	0	0
2019/01/01 15:09:01	BASE	0.78	333	1.80	322	1.8	97	1.3	433	1007	976.8	NA	0.0000		9999	15360	0	0	0
2019/01/01 15:10:01	BASE	0.24	330	1.80	322	1.8	97	1.4	433	1007	976.8	NA	0.0000		9999	0	0	0	0
2019/01/01 15:11:01	BASE	0.28	323	1.80	322	1.9	97	1.5	434	1009	976.8	NA	0.0000		9999	0	0	0	0
2019/01/01 15:12:01	BASE	0.47	316	1.80	322	2.0	97	1.6	435	1011	976.8	NA	0.0000		9999	16340	0	0	0
2019/01/01 15:13:01	BASE	0.82	317	1.80	322	2.1	97	1.7	440	1021	976.8	NA	0.0000		9999	13940	0	0	0
2019/01/01 15:14:01	BASE	1.03	323	1.80	322	2.2	96	1.6	453	1048	976.8	NA	0.0000		9999	21590	0	0	0
2019/01/01 15:15:01	BASE	0.91	328	1.80	322	2.2	95	1.5	451	1041	976.8	NA	0.0000		9999	0	0	0	0
2019/01/01 15:16:01	BASE	1.09	328	1.65	334	2.1	95	1.4	444	1028	976.8	NA	0.0000		9999	22180	22870	0	0
2019/01/01 15:17:01	BASE	1.02	325	1.54	330	2.1	95	1.4	441	1021	976.8	NA	0.0000		9999	14990	0	0	0
2019/01/01 15:18:01	BASE	0.81	324	1.54	330	2.0	96	1.4	443	1025	976.8	NA	0.0000		9999	14830	0	0	0
2019/01/01 15:19:01	BASE	0.65	313	1.54	330	2.0	96	1.5	444	1028	976.8	NA	0.0000		9999	0	0	0	0
2019/01/01 15:20:01	BASE	0.37	307	1.54	330	2.1	96	1.6	453	1046	976.8	NA	0.0000		9999	14800	0	0	0
2019/01/01 15:21:01	BASE	0.70	301	1.54	330	2.1	96	1.5	463	1064	976.7	NA	0.0000		9999	0	0	0	0
2019/01/01 15:22:01	BASE	1.24	294	1.75	309	2.1	96	1.5	479	1096	976.7	NA	0.0000		9999	0	0	0	0
2019/01/01 15:23:01	BASE	1.47	302	1.95	308	2.1	96	1.5	496	1129	976.7	NA	0.0000		9999	14400	0	0	0
2019/01/01 15:24:01	BASE	1.45	304	1.95	308	1.9	96	1.3	512	1161	976.7	NA	0.0000		9999	0	0	0	0
2019/01/01 15:25:01	BASE	1.39	299	1.95	308	1.8	96	1.2	506	1147	976.8	NA	0.0000		9999	0	0	0	0
2019/01/01 15:26:01	BASE	1.35	303	1.95	308	1.7	96	1.2	518	1171	976.8	NA	0.0000		9999	13120	0	0	0
2019/01/01 15:27:01	BASE	1.26	302	1.95	308	1.7	97	1.3	531	1197	976.8	NA	0.0000		9999	0	0	0	0
2019/01/01 15:28:01	BASE	1.17	292	1.95	308	1.8	97	1.4	552	1239	976.8	NA	0.0000		9999	0	0	0	0
2019/01/01 15:29:01	BASE	0.82	289	1.95	308	1.9	98	1.5	557	1248	976.8	NA	0.0000		9999	0	0	0	0
2019/01/01 15:30:01	BASE	1.13	293	1.95	308	2.0	98	1.7	565	1263	976.8	NA	0.0000		9999	13750	0	0	0
2019/01/01 15:31:01	BASE	1.62	295	1.95	308	2.1	98	1.8	568	1270	976.8	NA	0.0000		9999	12240	0	0	0
2019/01/01 15:32:01	BASE	1.65	293	1.95	308	2.2	97	1.8	561	1256	976.8	NA	0.0000		9999	13520	0	0	0
2019/01/01 15:33:01	BASE	1.73	291	1.95	299	2.2	97	1.8	571	1277	976.8	NA	0.0000		9999	17550	0	0	0
2019/01/01 15:34:01	BASE	1.69	290	1.95	299	2.1	97	1.6	567	1269	976.8	NA	0.0000		9999	0	0	0	0
2019/01/01 15:35:01	BASE	1.66	294	1.95	294	2.0	96	1.5	539	1214	976.8	NA	0.0000		9999	21460	0	0	0
2019/01/01 15:36:01	BASE	1.62	289	1.95	294	2.1	97	1.6	536	1207	976.8	NA	0.0000		9999	0	0	0	0
2019/01/01 15:37:01	BASE	1.43	290	1.95	294	2.1	97	1.6	537	1210	976.8	NA	0.0000		9999	16410	0	0	0
2019/01/01 15:38:01	BASE	1.44	293	1.95	294	2.1	96	1.5	540	1215	976.8	NA	0.0000		9999	15030	0	0	0
2019/01/01 15:39:01	BASE	1.50	289	1.95	294	2.1	96	1.6	538	1212	976.8	NA	0.0000		9999	0	0	0	0
2019/01/01 15:40:01	BASE	1.37	298	1.95	294	2.1	96	1.5	531	1198	976.8	NA	0.0000		9999	0	0	0	0
2019/01/01 15:41:01	BASE	1.23	302	1.95	294	2.0	96	1.5	534	1204	976.8	NA	0.0000		9999	0	0	0	0
2019/01/01 15:42:01	BASE	1.24	302	1.95	294	2.0	96	1.4	549	1233	976.8	NA	0.0000		9999	11020	0	0	0
2019/01/01 15:43:01	BASE	1.38	299	1.95	294	2.0	97	1.5	575	1283	976.9	NA	0.0000		9999	20740	0	0	0
2019/01/01 15:44:01	BASE	1.43	293	1.95	294	2.0	97	1.5	566	1265	977.0	NA	0.0000		9999	0	0	0	0
2019/01/01 15:45:01	BASE	1.46	286	1.80	277	2.0	97	1.6	565	1263	977.0	NA	0.0000		9999	0	0	0	0
2019/01/01 15:46:01	BASE	1.37	275	1.75	266	2.0	97	1.6	533	1199	977.0	NA	0.0000		9999	15580	0	0	0
2019/01/01 15:47:01	BASE	1.48	274	1.85	274	2.1	97	1.7	507	1149	977.0	NA	0.0000		9999	0	0	0	0
2019/01/01 15:48:01	BASE	1.70	283	2.16	305	2.1	97	1.7	528	1189	977.0	NA	0.0000		9999	0	0	0	0
2019/01/01 15:49:01	BASE	1.75	290	2.16	305	2.1	96	1.6	500	1133	977.0	NA	0.0000		9999	14500	0	0	0
2019/01/01 15:50:01	BASE	1.85	292	2.16	305	2.2	96	1.6	472	1079	977.0	NA	0.0000		9999	0	0	0	0
2019/01/01 15:51:01	BASE	1.83	292	2.16	305	2.3	96	1.7	439	1013	977.0	NA	0.0000		9999	16410	0	0	0
2019/01/01 15:52:01	BASE	1.80	291	2.16	300	2.3	95	1.6	430	994	977.0	NA	0.0000		9999	0	0	0	0
2019/01/01 15:53:01	BASE	1.90	287	2.21	286	2.4	94	1.5	436	1006	977.0	NA	0.0000		9999	0	0	0	0
2019/01/01 15:54:01	BASE	1.90	290	2.21	286	2.3	93	1.3	446	1027	977.0	NA	0.0000		9999	0	0	0	0
2019/01/01 15:55:01	BASE	1.93	289	2.88	273	2.2	92	1.1	475	1083	977.0	NA	0.0000		9999	0	0	0	0
2019/01/01 15:56:01	BASE	2.03	282	2.88	273	2.2	92	1.0	501	1134	977.0	NA	0.0000		9999	0	0	0	0
2019/01/01 15:57:01	BASE	1.91	280	2.88	273	2.1	91	0.9	516	1163	977.0	NA	0.0000		9999	0	0	0	0
2019/01/01 15:58:01	BASE	1.73	285	2.88	273	2.1	92	0.8	535	1200	977.0	NA	0.0000		9999	0	0	0	0
2019/01/01 15:59:01	BASE	1.74	289	2.88	273	2.1	92	0.9	563	1255	977.1	NA	0.0000		9999	0	0	0	0
2019/01/01 16:00:01	BASE	1.70	290	2.88	273	2.2	92	1.0	585	1299	977.1	NA	0.0000		9999	0	0	0	0
2019/01/01 16:01:01	BASE	1.54	278	2.88	273	2.2	92	1.0	609	1345	977.1	NA	0.0000		9999	0	0	0	0
2019/01/01 16:02:01	BASE	1.40	266	2.88	273	2.1	92	1.0	629	1384	977.1	NA	0.0000		9999	0	0	0	0
2019/01/01 16:03:01	BASE	1.47	280	2.88	273	2.1	93	1.1	652	1429	977.1	NA	0.0000		9999	0	0	0	0
2019/01/01 16:04:01	BASE	1.57	296	2.88	273	2.2	93	1.1	673	1470	977.1	NA	0.0000		9999	0	0	0	0
2019/01/01 16:05:01	BASE	1.47	299	2.31	269	2.1	93	1.1	672	1469	977.1	NA	0.0000		9999	15030	0	0	0
2019/01/01 16:06:01	BASE	1.45	299	2.16	270	2.2	93	1.2	669	1463	977.1	NA	0.0000		9999	0	0	0	0
2019/01/01 16:07:01	BASE	1.52	298	2.06	279	2.3	92	1.2	680	1484	977.1	NA	0.0000		9999	0	0	0	0
2019/01/01 16:08:01	BASE	1.41	293	2.06	279	2.4	91	1.0	693	1510	977.1	NA	0.0000		9999	0	0	0	0
2019/01/01 16:09:01	BASE	1.24	295	2.06	279	2.4	91	1.0	707	1514	977.1	NA	0.0000		9999	21360	0	0	0
2019/01/01 16:10:01	BASE	1.29	305	2.06	279	2.5	90	1.0	707	1514	977.1	NA	0.0000		9999	0	0	0	0
2019/01/01 16:11:01	BASE	1.39	310	2.01	297	2.4	90	0.9	706	1514	977.1	NA	0.0000		9999	0	0	0	0
2019/01/01 16:12:01	BASE	1.43	307	2.01	297	2.4	90	0.9	696	1514	977.1	NA	0.0000		9999	16800	0	0	0
2019/01/01 16:13:01	BASE	1.48	299	2.01	297	2.4	90	1.0	690	1507	977.1	NA	0.0000		9999	19850	0	0	0
2019/01/01 16:14:01	BASE	1.67	297	2.21	304	2.4	90	0.9	680	1486	977.1	NA	0.0000		9999	18310	0	0	0
2019/01/01 16:15:01	BASE	1.78	299	2.21	304	2.3	91	0.9	690	1507	977.1	NA	0.0000		9999	0	0	0	0
2019/01/01 16:16:01	BASE	1.74	300	2.21	304	2.3	92	1.1	747	1514	977.1	NA	0.0000		9999	0	0	0	0
2019/01/01 16:17:01	BASE	1.79	296	2.21	304	2.4	92	1.2	740	1514	977.1	NA	0.0000		9999	18730	0	0	0
2019/01/01 16:18:01	BASE	1.67	288	2.21	304	2.5	92	1.3	702	1514	977.1	NA	0.0000		9999	0	0	0	0
2019/01/01 16:19:01	BASE	1.48	286	2.21	304	2.6	92	1.3	706	1514	977.1	NA	0.0000		9999	0	0	0	0
2019/01/01 16:20:01	BASE	1.41	286	2.21	304	2.5	91	1.2	665	1457	977.2	NA	0.0000		9999	0	0	0	0
2019/01/01 16:21:01	BASE	1.31	285	2.21	304	2.4	91	1.1	598	1326	977.2	NA	0.0000		9999	0	0	0	0
2019/01/01 16:22:01	BASE	1.11	292	2.21	304	2.3	90	0.9	542	1216	977.2	NA	0.0000		9999	15680	0	0	0
2019/01/01 16:23:01	BASE	1.14	305	2.21	304	2.2	90	0.8	595	1321	977.2	NA	0.0000		9999	18210	0	0	0
2019/01/01 16:24:01	BASE	1.28	313	2.06	288	2.0	90	0.6	557	1244	977.2	NA	0.0000		9999	0	0	0	0
2019/01/01 16:25:01	BASE	1.29	310	2.06	288	2.0	91	0.7	545	1220	977.2	NA	0.0000		9999	0	0	0	0
2019/01/01 16:26:01	BASE	1.37	307	2.06	288	2.0	91	0.7	479	1088	977.2	NA	0.0000		9999	0	0	0	0
2019/01/01 16:27:01	BASE	1.35	315	1.85	280	2.0	92	0.8	498	1127	977.2	NA	0.0000		9999	0	0	0	0
2019/01/01 16:28:01	BASE	0.92	322	1.75	314	2.0	92	0.8	473	1078	977.2	NA	0.0000		9999	0	0	0	0
2019/01/01 16:29:01	BASE	0.50	322	1.75	314	2.0	93	1.0	424	978	977.2	NA	0.0000		9999	0	0	0	0
2019/01/01 16:30:01	BASE	0.33	310	1.75	314	1.9	94	1.1	404	940	977.2	NA	0.0000		9999	0	0	0	0
2019/01/01 16:31:01	BASE	0.17	294	1.75	314	1.9	95	1.2	395	921	977.2	NA	0.0000		9999	0	0	0	0
2019/01/01 16:32:01	BASE	0.14	285	1.75	314	1.9	96	1.3	417	966	977.2	NA	0.0000		9999	0	0	0	0
2019/01/01 16:33:01	BASE	0.21	267	1.75	314	1.9	96	1.3	433	997	977.2	NA	0.0000		9999	17420	0	0	0
2019/01/01 16:34:01	BASE	0.20	268	1.75	314	1.8	97	1.4	499	1130	977.2	NA	0.0000		9999	21620	0	0	0
2019/01/01 16:35:01	BASE	0.28	287	1.75	314	1.9	97	1.5	542	1214	977.2	NA	0.0000		9999	0	0	0	0
2019/01/01 16:36:01	BASE	0.96	282	2.16	251	1.9	97	1.5	569	1267	977.2	NA	0.0000		9999	0	0	0	0
2019/01/01 16:37:01	BASE	1.41	268	2.16	251	1.9	96	1.4	619	1364	977.3	NA	0.0000		9999	0	0	0	0
2019/01/01 16:38:01	BASE	0.63	248	2.16	251	2.0	95	1.2	661	1448	977.3	NA	0.0000		9999	18900	21850	0	0
2019/01/01 16:39:01	BASE	0.24	231	2.16	251	2.0	93	1.0	725	1514	977.3	NA	0.0000		9999	0	0	0	0
2019/01/01 16:40:01	BASE	1.06	222	2.68	209	1.9	92	0.8	812	1514	977.3	NA	0.0000		9999	0	0	0	0
2019/01/01 16:41:01	BASE	2.02	212	2.73	200	1.9	91	0.5	827	1515	977.3	NA	0.0000		9999	0	0	0	0
2019/01/01 16:42:01	BASE	2.40	204	2.73	200	1.9	90	0.4	776	1514	977.3	NA	0.0000		9999	0	0	0	0
2019/01/01 16:43:01	BASE	2.45	193	2.73	200	2.0	89	0.3	673	1470	977.3	NA	0.0000		9999	20240	0	0	0
2019/01/01 16:44:01	BASE	2.60	188	2.88	189	2.0	88	0.2	640	1404	977.3	NA	0.0000		9999	15650	0	0	0
2019/01/01 16:45:01	BASE	2.44	183	2.88	189	2.0	87	0.1	610	1345	977.3	NA	0.0000		9999	0	0	0	0
2019/01/01 16:46:01	BASE	2.28	184	2.88	189	2.0	88	0.2	614	1353	977.3	NA	0.0000		9999	0	0	0	0
2019/01/01 16:47:01	BASE	2.58	183	3.24	190	2.0	88	0.3	638	1399	977.3	NA	0.0000		9999	0	0	0	0
2019/01/01 16:48:01	BASE	2.61	174	3.24	190	2.0	89	0.3	588	1301	977.3	NA	0.0000		9999	22970	0	0	0
2019/01/01 16:49:01	BASE	2.09	173	3.24	190	1.9	89	0.3	619	1361	977.3	NA	0.0000		9999	0	0	0	0
2019/01/01 16:50:01	BASE	1.99	169	3.24	190	1.9	89	0.4	582	1286	977.3	NA	0.0000		9999	0	0	0	0
2019/01/01 16:51:01	BASE	2.03	170	3.24	190	2.0	89	0.4	469	1064	977.3	NA	0.0000		9999	0	0	0	0
2019/01/01 16:52:01	BASE	1.83	177	3.24	190	2.0	89	0.4	445	1018	977.3	NA	0.0000		9999	0	0	0	0
2019/01/01 16:53:01	BASE	1.65	182	3.24	190	2.0	89	0.4	465	1057	977.3	NA	0.0000		9999	0	0	0	0
2019/01/01 16:54:01	BASE	1.77	182	3.24	190	2.1	89	0.5	470	1067	977.3	NA	0.0000		9999	0	0	0	0
2019/01/01 16:55:01	BASE	1.72	182	3.24	190	2.0	89	0.5	447	1022	977.3	NA	0.0000		9999	0	0	0	0
2019/01/01 16:56:01	BASE	1.81	175	3.24	190	2.1	90	0.6	487	1102	977.3	NA	0.0000		9999	0	0	0	0
2019/01/01 16:57:01	BASE	2.16	168	2.78	168	2.1	90	0.6	498	1124	977.3	NA	0.0000		9999	0	0	0	0
2019/01/01 16:58:01	BASE	2.03	173	2.68	141	2.1	90	0.6	565	1256	977.3	NA	0.0000		9999	20240	0	0	0
2019/01/01 16:59:01	BASE	1.95	171	2.68	141	2.1	89	0.4	625	1372	977.3	NA	0.0000		9999	0	0	0	0
2019/01/01 17:00:01	BASE	1.69	167	2.62	180	2.1	88	0.3	616	1354	977.3	NA	0.0000		9999	0	0	0	0
2019/01/01 17:01:01	BASE	1.49	157	2.62	180	2.1	87	0.2	758	1514	977.3	NA	0.0000		9999	19420	0	0	0
2019/01/01 17:02:01	BASE	1.45	146	2.62	180	2.2	86	0.2	873	1514	977.3	NA	0.0000		9999	0	0	0	0
2019/01/01 17:03:01	BASE	1.16	145	2.62	180	2.3	86	0.1	916	1514	977.3	NA	0.0000		9999	17780	0	0	0
2019/01/01 17:04:01	BASE	0.97	151	2.62	180	2.4	85	0.1	876	1515	977.3	NA	0.0000		9999	0	0	0	0
2019/01/01 17:05:01	BASE	0.50	156	2.62	180	2.5	85	0.2	935	1515	977.3	NA	0.0000		9999	0	0	0	0
2019/01/01 17:06:01	BASE	0.18	149	2.42	164	2.6	84	0.1	971	1515	977.3	NA	0.0000		9999	19360	0	0	0
2019/01/01 17:07:01	BASE	0.70	140	2.11	162	2.7	83	0.0	881	1514	977.3	NA	0.0000		9999	0	0	0	0
2019/01/01 17:08:01	BASE	0.77	130	2.11	162	2.7	82	-0.1	824	1514	977.3	NA	0.0000		9999	0	0	0	0
2019/01/01 17:09:01	BASE	0.90	153	2.21	215	2.7	80	-0.4	809	1514	977.3	NA	0.0000		9999	21650	0	0	0
2019/01/01 17:10:01	BASE	1.59	196	2.21	183	2.6	79	-0.7	727	1514	977.4	NA	0.0000		9999	0	0	0	0
2019/01/01 17:11:01	BASE	1.80	210	2.21	183	2.5	78	-1.0	709	1514	977.4	NA	0.0000		9999	0	0	0	0
2019/01/01 17:12:01	BASE	1.65	208	2.21	183	2.4	77	-1.2	655	1418	977.4	NA	0.0000		9999	0	0	0	0
2019/01/01 17:13:01	BASE	1.47	204	2.21	183	2.3	77	-1.3	650	1419	977.4	NA	0.0000		9999	22050	23130	0	0
2019/01/01 17:14:01	BASE	1.38	195	2.21	183	2.2	78	-1.2	737	1514	977.4	NA	0.0000		9999	14990	0	0	0
2019/01/01 17:15:00	BASE	1.56	185	2.21	183	2.1	79	-1.1	753	1514	977.4	NA	0.0000		9999	0	0	0	0
2019/01/01 17:16:00	BASE	1.79	192	2.21	195	2.1	80	-1.0	758	1514	977.4	NA	0.0000		9999	14760	0	0	0
2019/01/01 17:17:00	BASE	1.78	199	2.21	195	2.1	80	-1.0	794	1515	977.4	NA	0.0000		9999	15090	0	0	0
2019/01/01 17:18:00	BASE	1.70	196	2.21	195	2.1	80	-1.0	767	1515	977.4	NA	0.0000		9999	0	0	0	0
2019/01/01 17:19:00	BASE	1.54	185	2.21	195	2.1	80	-1.1	782	1514	977.4	NA	0.0000		9999	0	0	0	0
2019/01/01 17:20:00	BASE	1.13	166	2.21	195	2.1	80	-1.0	664	1456	977.5	NA	0.0000		9999	0	0	0	0
2019/01/01 17:21:00	BASE	0.49	163	2.21	195	2.1	81	-0.9	670	1477	977.6	NA	0.0000		9999	0	0	0	0
2019/01/01 17:22:00	BASE	0.59	180	2.21	195	2.2	81	-0.7	535	1207	977.6	NA	0.0000		9999	0	0	0	0
2019/01/01 17:23:00	BASE	1.44	180	2.21	195	2.2	82	-0.5	476	1088	977.6	NA	0.0000		9999	0	0	0	0
2019/01/01 17:24:00	BASE	1.84	164	2.47	156	2.2	83	-0.3	592	1327	977.6	NA	0.0000		9999	0	0	0	0
2019/01/01 17:25:00	BASE	1.84	151	2.47	156	2.3	85	0.0	602	1347	977.6	NA	0.0000		9999	0	0	0	0
2019/01/01 17:26:00	BASE	1.54	142	2.47	156	2.4	86	0.2	524	1185	977.6	NA	0.0000		9999	0	0	0	0
2019/01/01 17:27:00	BASE	1.42	164	2.47	156	2.4	87	0.5	747	1514	977.6	NA	0.0000		9999	15650	0	0	0
2019/01/01 17:28:00	BASE	1.10	198	2.47	156	2.5	88	0.6	652	1453	977.6	NA	0.0000		9999	0	0	0	0
2019/01/01 17:29:00	BASE	0.38	200	2.47	156	2.5	88	0.7	597	1343	977.6	NA	0.0000		9999	0	0	0	0
2019/01/01 17:30:00	BASE	0.56	204	2.47	156	2.4	88	0.7	619	1379	977.6	NA	0.0000		9999	0	0	0	0
2019/01/01 17:31:00	BASE	1.13	220	2.47	156	2.3	89	0.6	787	1514	977.6	NA	0.0000		9999	0	0	0	0
2019/01/01 17:32:00	BASE	0.72	218	2.47	156	2.2	89	0.6	928	1514	977.6	NA	0.0000		9999	0	0	0	0
2019/01/01 17:33:00	BASE	0.10	210	2.47	156	2.1	90	0.7	672	1483	977.6	NA	0.0000		9999	0	0	0	0
2019/01/01 17:34:00	BASE	0.20	215	2.42	157	2.1	91	0.7	708	1514	977.6	NA	0.0000		9999	0	0	0	0
2019/01/01 17:35:00	BASE	0.29	241	1.80	201	1.9	91	0.7	711	1514	977.6	NA	0.0000		9999	0	0	0	0
2019/01/01 17:36:00	BASE	0.13	267	1.80	201	2.0	92	0.8	727	1514	977.6	NA	0.0000		9999	0	0	0	0
2019/01/01 17:37:00	BASE	0.14	275	1.65	205	2.1	92	0.9	773	1515	977.6	NA	0.0000		9999	0	0	0	0
2019/01/01 17:38:00	BASE	0.10	250	1.65	205	2.2	91	0.9	979	1514	977.6	NA	0.0000		9999	0	0	0	0
2019/01/01 17:39:00	BASE	0.00	195	1.65	205	2.3	90	0.8	783	1515	977.6	NA	0.0000		9999	0	0	0	0
2019/01/01 17:40:00	BASE	0.00	164	1.49	227	2.5	89	0.8	831	1514	977.6	NA	0.0000		9999	0	0	0	0
2019/01/01 17:41:00	BASE	0.00	170	1.29	242	2.5	88	0.8	753	1514	977.6	NA	0.0000		9999	0	0	0	0
2019/01/01 17:42:00	BASE	0.00	194	1.29	242	2.5	88	0.7	674	1475	977.6	NA	0.0000		9999	0	0	0	0
2019/01/01 17:43:00	BASE	0.00	142	1.29	242	2.5	87	0.7	798	1514	977.6	NA	0.0000		9999	0	0	0	0
2019/01/01 17:44:00	BASE	0.00	135	1.18	261	2.6	87	0.6	897	1515	977.6	NA	0.0000		9999	0	0	0	0
2019/01/01 17:45:00	BASE	0.00	205	1.18	261	2.7	86	0.5	968	1515	977.7	NA	0.0000		9999	0	0	0	0
2019/01/01 17:46:00	BASE	0.30	220	1.75	202	2.6	85	0.4	1003	1514	977.7	NA	0.0000		9999	0	0	0	0
2019/01/01 17:47:00	BASE	1.01	198	1.85	203	2.6	85	0.3	977	1514	977.6	NA	0.0000		9999	0	0	0	0
2019/01/01 17:48:00	BASE	0.76	215	1.85	203	2.5	84	0.1	934	1514	977.6	NA	0.0000		9999	17290	0	0	0
2019/01/01 17:49:00	BASE	0.04	222	1.85	203	2.4	84	-0.0	854	1514	977.7	NA	0.0000		9999	21100	0	0	0
2019/01/01 17:50:00	BASE	0.00	171	1.85	203	2.3	83	-0.2	835	1514	977.7	NA	0.0000		9999	0	0	0	0
2019/01/01 17:51:00	BASE	0.09	167	1.85	203	2.3	83	-0.3	788	1514	977.7	NA	0.0000		9999	0	0	0	0
2019/01/01 17:52:00	BASE	0.51	208	1.85	203	2.3	82	-0.4	791	1514	977.6	NA	0.0000		9999	0	0	0	0
2019/01/01 17:53:00	BASE	0.42	194	1.85	203	2.5	81	-0.5	800	1514	977.6	NA	0.0000		9999	0	0	0	0
2019/01/01 17:54:00	BASE	0.68	188	1.85	203	2.6	80	-0.6	808	1514	977.7	NA	0.0000		9999	0	0	0	0
2019/01/01 17:55:00	BASE	1.28	193	1.85	203	2.7	79	-0.6	820	1514	977.7	NA	0.0000		9999	0	0	0	0
2019/01/01 17:56:00	BASE	1.22	193	1.85	203	2.6	78	-0.9	820	1514	977.7	NA	0.0000		9999	0	0	0	0
2019/01/01 17:57:00	BASE	1.31	191	1.80	198	2.5	77	-1.1	816	1514	977.7	NA	0.0000		9999	0	0	0	0
2019/01/01 17:58:00	BASE	1.12	185	1.80	198	2.4	77	-1.3	814	1514	977.7	NA	0.0000		9999	0	0	0	0
2019/01/01 17:59:00	BASE	0.93	174	1.80	198	2.4	76	-1.4	815	1515	977.7	NA	0.0000		9999	0	0	0	0
2019/01/01 18:00:00	BASE	0.54	159	1.80	198	2.4	76	-1.4	806	1515	977.7	NA	0.0000		9999	0	0	0	0
2019/01/01 18:01:00	BASE	0.04	138	1.80	198	2.5	75	-1.4	800	1514	977.7	NA	0.0000		9999	21850	0	0	0
2019/01/01 18:02:00	BASE	0.00	157	1.80	198	2.7	75	-1.2	796	1514	977.8	NA	0.0000		9999	0	0	0	0
2019/01/01 18:03:00	BASE	0.00	218	1.80	198	2.8	75	-1.2	790	1514	977.8	NA	0.0000		9999	0	0	0	0
2019/01/01 18:04:00	BASE	0.00	250	1.80	198	2.9	75	-1.2	794	1514	977.8	NA	0.0000		9999	0	0	0	0
2019/01/01 18:05:00	BASE	0.18	267	1.80	198	2.9	75	-1.2	764	1514	977.8	NA	0.0000		9999	0	0	0	0
2019/01/01 18:06:00	BASE	1.00	288	2.06	293	2.9	75	-1.1	742	1514	977.8	NA	0.0000		9999	7250	0	0	0
2019/01/01 18:07:00	BASE	1.58	309	2.06	293	2.9	75	-1.1	723	1514	977.8	NA	0.0000		9999	7780	0	0	0
2019/01/01 18:08:00	BASE	1.45	322	2.06	293	2.9	76	-1.0	691	1506	977.8	NA	0.0000		9999	0	0	0	0
2019/01/01 18:09:00	BASE	1.07	312	2.06	293	2.9	76	-0.9	678	1481	977.8	NA	0.0000		9999	23330	0	0	0
2019/01/01 18:10:00	BASE	1.00	310	2.06	325	2.8	77	-0.9	665	1457	977.8	NA	0.0000		9999	0	0	0	0
2019/01/01 18:11:00	BASE	1.43	321	2.06	323	2.7	77	-0.9	650	1426	977.8	NA	0.0000		9999	20010	0	0	0
2019/01/01 18:12:00	BASE	1.59	331	2.06	335	2.5	78	-1.0	632	1392	977.9	NA	0.0000		9999	6460	0	0	0
2019/01/01 18:13:00	BASE	1.34	334	2.06	335	2.4	78	-1.0	631	1391	977.9	NA	0.0000		9999	9480	0	0	0
2019/01/01 18:14:00	BASE	1.35	328	2.06	335	2.4	79	-0.9	630	1391	977.9	NA	0.0000		9999	7510	0	0	0
2019/01/01 18:15:00	BASE	1.43	320	2.06	335	2.3	79	-1.0	628	1387	977.9	NA	0.0000		9999	8240	0	0	0
2019/01/01 18:16:00	BASE	1.56	310	2.11	298	2.4	79	-0.9	625	1381	977.9	NA	0.0000		9999	9970	0	0	0
2019/01/01 18:17:00	BASE	1.91	300	2.16	290	2.5	79	-0.8	622	1375	977.9	NA	0.0000		9999	9650	0	0	0
2019/01/01 18:18:00	BASE	1.91	293	2.16	290	2.5	79	-0.9	624	1380	977.9	NA	0.0000		9999	8400	0	0	0
2019/01/01 18:19:00	BASE	2.00	292	2.47	296	2.5	78	-0.9	639	1408	977.9	NA	0.0000		9999	9220	0	0	0
2019/01/01 18:20:00	BASE	2.16	291	2.57	292	2.5	78	-0.9	652	1434	977.9	NA	0.0000		9999	9380	0	0	0
2019/01/01 18:21:00	BASE	2.09	286	2.57	280	2.6	78	-0.9	672	1473	977.9	NA	0.0000		9999	8660	0	0	0
2019/01/01 18:22:00	BASE	1.88	281	2.57	280	2.6	77	-1.0	693	1514	977.9	NA	0.0000		9999	9710	0	0	0
2019/01/01 18:23:00	BASE	1.71	280	2.57	280	2.6	76	-1.1	704	1514	977.9	NA	0.0000		9999	8760	0	0	0
2019/01/01 18:24:00	BASE	1.57	287	2.57	280	2.6	75	-1.4	725	1514	977.9	NA	0.0000		9999	9020	0	0	0
2019/01/01 18:25:00	BASE	1.40	293	2.57	280	2.6	74	-1.5	733	1515	977.9	NA	0.0000		9999	8790	0	0	0
2019/01/01 18:26:00	BASE	1.41	296	2.57	280	2.5	74	-1.7	753	1514	977.9	NA	0.0000		9999	8660	0	0	0
2019/01/01 18:27:00	BASE	1.33	296	2.57	280	2.5	73	-1.8	756	1514	977.9	NA	0.0000		9999	8370	0	0	0
2019/01/01 18:28:00	BASE	1.13	298	2.57	280	2.5	73	-1.8	751	1514	977.9	NA	0.0000		9999	8200	0	0	0
2019/01/01 18:29:00	BASE	0.94	296	2.57	280	2.6	73	-1.7	744	1514	977.9	NA	0.0000		9999	8990	0	0	0
2019/01/01 18:30:00	BASE	0.65	296	2.57	280	2.7	73	-1.6	743	1514	977.9	NA	0.0000		9999	8400	0	0	0
2019/01/01 18:31:00	BASE	0.93	294	2.11	275	2.8	73	-1.6	737	1514	977.9	NA	0.0000		9999	10070	0	0	0
2019/01/01 18:32:00	BASE	1.43	289	2.11	275	2.9	72	-1.6	728	1514	977.9	NA	0.0000		9999	8690	0	0	0
2019/01/01 18:33:00	BASE	1.42	299	2.01	311	2.9	72	-1.6	744	1514	977.9	NA	0.0000		9999	8370	0	0	0
2019/01/01 18:34:00	BASE	1.65	306	2.21	313	2.9	72	-1.5	746	1514	977.9	NA	0.0000		9999	9150	0	0	0
2019/01/01 18:35:00	BASE	2.00	301	2.31	291	2.9	73	-1.4	737	1514	977.9	NA	0.0000		9999	9550	0	0	0
2019/01/01 18:36:00	BASE	2.07	302	2.52	310	2.8	75	-1.2	747	1514	977.9	NA	0.0000		9999	9580	0	0	0
2019/01/01 18:37:00	BASE	2.20	316	2.52	321	2.9	77	-0.7	745	1514	977.9	NA	0.0000		9999	8960	0	0	0
2019/01/01 18:38:00	BASE	2.34	322	2.73	323	3.0	79	-0.4	735	1514	977.9	NA	0.0000		9999	9350	0	0	0
2019/01/01 18:39:00	BASE	2.17	322	2.73	323	3.0	80	-0.2	725	1514	977.9	NA	0.0000		9999	9550	0	0	0
2019/01/01 18:40:00	BASE	1.98	324	2.73	323	3.1	81	0.1	726	1514	977.9	NA	0.0000		9999	8920	0	0	0
2019/01/01 18:41:00	BASE	2.01	327	2.73	323	3.1	81	0.2	724	1514	977.9	NA	0.0000		9999	7740	0	0	0
2019/01/01 18:42:00	BASE	1.93	335	2.73	323	3.1	81	0.1	727	1514	977.9	NA	0.0000		9999	9190	0	0	0
2019/01/01 18:43:00	BASE	1.86	337	2.73	323	3.0	81	0.0	720	1514	977.9	NA	0.0000		9999	9120	0	0	0
2019/01/01 18:44:00	BASE	2.00	333	2.73	323	2.9	81	-0.0	702	1514	977.9	NA	0.0000		9999	16860	20310	0	0
2019/01/01 18:45:00	BASE	2.08	337	2.73	323	2.8	81	-0.2	702	1514	977.9	NA	0.0000		9999	8920	0	0	0
2019/01/01 18:46:00	BASE	2.18	340	2.88	346	2.8	81	-0.1	703	1514	977.9	NA	0.0000		9999	7550	0	0	0
2019/01/01 18:47:00	BASE	2.07	329	2.88	346	2.8	81	-0.1	705	1514	977.9	NA	0.0000		9999	8600	0	0	0
2019/01/01 18:48:00	BASE	1.72	330	2.88	346	2.7	81	-0.2	699	1514	978.0	NA	0.0000		9999	8630	0	0	0
2019/01/01 18:49:00	BASE	1.64	352	2.88	346	2.7	82	-0.1	693	1514	978.0	NA	0.0000		9999	8370	0	0	0
2019/01/01 18:50:00	BASE	1.53	12	2.88	346	2.7	81	-0.1	699	1514	978.1	NA	0.0000		9999	8500	0	0	0
2019/01/01 18:51:00	BASE	1.46	11	2.88	346	2.6	81	-0.3	706	1514	978.1	NA	0.0000		9999	8690	0	0	0
2019/01/01 18:52:00	BASE	1.46	7	2.88	346	2.7	81	-0.3	727	1514	978.1	NA	0.0000		9999	8760	0	0	0
2019/01/01 18:53:00	BASE	1.30	355	2.88	346	2.8	80	-0.3	741	1514	978.1	NA	0.0000		9999	8790	0	0	0
2019/01/01 18:54:00	BASE	1.30	338	2.88	346	2.9	80	-0.3	750	1514	978.1	NA	0.0000		9999	9020	0	0	0
2019/01/01 18:55:00	BASE	1.78	332	2.88	346	3.0	79	-0.3	739	1514	978.1	NA	0.0000		9999	8920	0	0	0
2019/01/01 18:56:00	BASE	2.29	328	2.62	334	3.1	79	-0.2	722	1515	978.2	NA	0.0000		9999	8830	0	0	0
2019/01/01 18:57:00	BASE	2.44	326	2.68	327	3.1	79	-0.2	706	1515	978.2	NA	0.0000		9999	8560	0	0	0
2019/01/01 18:58:00	BASE	2.35	323	2.68	327	3.1	79	-0.2	666	1470	978.2	NA	0.0000		9999	8330	0	0	0
2019/01/01 18:59:00	BASE	2.22	325	2.68	327	3.0	80	-0.2	652	1443	978.2	NA	0.0000		9999	19330	22340	0	0
2019/01/01 19:00:00	BASE	2.19	329	2.68	327	2.8	80	-0.2	627	1396	978.2	NA	0.0000		9999	7280	0	0	0
2019/01/01 19:01:00	BASE	2.26	326	2.68	327	2.9	81	-0.1	598	1337	978.2	NA	0.0000		9999	8630	0	0	0
2019/01/01 19:02:00	BASE	2.27	316	2.68	327	2.9	80	-0.2	577	1298	978.2	NA	0.0000		9999	8690	0	0	0
2019/01/01 19:03:00	BASE	2.25	309	2.68	327	2.9	80	-0.2	550	1244	978.2	NA	0.0000		9999	7710	0	0	0
2019/01/01 19:04:00	BASE	2.12	303	2.68	327	3.0	79	-0.2	538	1220	978.2	NA	0.0000		9999	7580	0	0	0
2019/01/01 19:05:00	BASE	2.02	295	2.68	327	3.0	79	-0.2	523	1190	978.2	NA	0.0000		9999	8430	0	0	0
2019/01/01 19:06:00	BASE	2.37	282	3.50	265	3.0	79	-0.4	496	1136	978.2	NA	0.0000		9999	9190	0	0	0
2019/01/01 19:07:00	BASE	2.67	264	3.50	265	3.0	78	-0.5	484	1111	978.2	NA	0.0000		9999	7320	0	0	0
2019/01/01 19:08:00	BASE	2.72	255	3.50	265	2.8	78	-0.7	477	1099	978.2	NA	0.0000		9999	7280	0	0	0
2019/01/01 19:09:00	BASE	2.66	252	3.50	265	2.7	78	-0.8	471	1085	978.3	NA	0.0000		9999	8140	0	0	0
2019/01/01 19:10:00	BASE	2.54	252	3.50	265	2.5	78	-0.9	461	1065	978.3	NA	0.0000		9999	7190	0	0	0
2019/01/01 19:11:00	BASE	2.50	258	3.50	265	2.3	79	-1.0	450	1043	978.3	NA	0.0000		9999	7940	0	0	0
2019/01/01 19:12:00	BASE	2.38	262	3.50	265	2.2	80	-0.9	440	1023	978.3	NA	0.0000		9999	8270	0	0	0
2019/01/01 19:13:00	BASE	2.14	259	3.50	265	2.2	80	-0.8	434	1010	978.3	NA	0.0000		9999	8500	0	0	0
2019/01/01 19:14:00	BASE	2.19	252	3.50	265	2.2	81	-0.8	431	1004	978.3	NA	0.0000		9999	7050	0	0	0
2019/01/01 19:15:00	BASE	2.52	245	3.50	265	2.2	80	-0.8	425	991	978.3	NA	0.0000		9999	7780	0	0	0
2019/01/01 19:16:00	BASE	2.66	240	3.24	250	2.2	80	-0.9	419	980	978.3	NA	0.0000		9999	6790	0	0	0
2019/01/01 19:17:00	BASE	2.62	242	3.24	250	2.2	79	-1.1	414	969	978.3	NA	0.0000		9999	6790	0	0	0
2019/01/01 19:18:00	BASE	2.51	242	3.09	247	2.1	79	-1.2	409	958	978.3	NA	0.0000		9999	6860	0	0	0
2019/01/01 19:19:00	BASE	2.46	238	2.98	242	2.1	78	-1.3	405	949	978.3	NA	0.0000		9999	6820	0	0	0
2019/01/01 19:20:00	BASE	2.38	236	2.98	242	2.0	79	-1.3	400	939	978.3	NA	0.0000		9999	6560	0	0	0
2019/01/01 19:21:00	BASE	2.26	234	2.98	242	2.0	79	-1.3	398	934	978.4	NA	0.0000		9999	6590	0	0	0
2019/01/01 19:22:00	BASE	2.41	238	2.98	242	1.9	79	-1.2	398	933	978.3	NA	0.0000		9999	7550	0	0	0
2019/01/01 19:23:00	BASE	2.49	242	2.98	242	1.9	80	-1.2	397	930	978.3	NA	0.0000		9999	6270	0	0	0
2019/01/01 19:24:00	BASE	2.28	241	2.98	242	1.9	80	-1.2	394	923	978.3	NA	0.0000		9999	7780	0	0	0
2019/01/01 19:25:00	BASE	2.11	244	2.93	248	1.8	80	-1.3	392	919	978.3	NA	0.0000		9999	7640	0	0	0
2019/01/01 19:26:00	BASE	1.95	248	2.83	245	1.8	80	-1.3	390	914	978.3	NA	0.0000		9999	18960	0	0	0
2019/01/01 19:27:00	BASE	1.76	249	2.78	239	1.8	79	-1.4	387	908	978.4	NA	0.0000		9999	7450	0	0	0
2019/01/01 19:28:00	BASE	1.50	249	2.68	244	1.7	78	-1.6	385	903	978.3	NA	0.0000		9999	7480	0	0	0
2019/01/01 19:29:00	BASE	1.44	254	2.68	244	1.8	78	-1.7	382	896	978.4	NA	0.0000		9999	22740	0	0	0
2019/01/01 19:30:00	BASE	1.66	255	2.68	244	1.8	77	-1.8	380	890	978.4	NA	0.0000		9999	7710	0	0	0
2019/01/01 19:31:00	BASE	1.75	253	2.68	244	1.7	77	-1.8	378	887	978.4	NA	0.0000		9999	7610	0	0	0
2019/01/01 19:32:00	BASE	1.66	252	2.62	240	1.8	78	-1.7	376	881	978.4	NA	0.0000		9999	20570	0	0	0
2019/01/01 19:33:00	BASE	1.64	252	2.31	244	1.8	79	-1.5	372	873	978.3	NA	0.0000		9999	7350	0	0	0
2019/01/01 19:34:00	BASE	1.55	254	2.31	244	1.7	80	-1.3	369	867	978.4	NA	0.0000		9999	7640	0	0	0
2019/01/01 19:35:00	BASE	1.43	255	2.11	240	1.7	82	-1.1	365	858	978.4	NA	0.0000		9999	6170	0	0	0
2019/01/01 19:36:00	BASE	1.31	265	2.11	240	1.7	83	-0.9	361	849	978.4	NA	0.0000		9999	6170	0	0	0
2019/01/01 19:37:00	BASE	1.40	282	2.11	240	1.8	83	-0.7	356	839	978.4	NA	0.0000		9999	7320	0	0	0
2019/01/01 19:38:00	BASE	1.61	294	2.11	240	2.0	83	-0.6	351	828	978.3	NA	0.0000		9999	5970	0	0	0
2019/01/01 19:39:00	BASE	1.66	292	2.11	240	2.2	83	-0.4	347	820	978.3	NA	0.0000		9999	6960	0	0	0
2019/01/01 19:40:00	BASE	1.75	286	2.11	272	2.4	82	-0.3	344	812	978.3	NA	0.0000		9999	7150	0	0	0
2019/01/01 19:41:00	BASE	1.69	278	2.11	272	2.5	81	-0.4	341	805	978.3	NA	0.0000		9999	6000	0	0	0
2019/01/01 19:42:00	BASE	1.28	274	2.11	272	2.5	81	-0.5	338	798	978.4	NA	0.0000		9999	5970	0	0	0
2019/01/01 19:43:00	BASE	1.28	286	2.21	278	2.4	81	-0.6	336	794	978.3	NA	0.0000		9999	7020	0	0	0
2019/01/01 19:44:00	BASE	1.59	301	2.21	278	2.3	81	-0.7	336	792	978.3	NA	0.0000		9999	5770	0	0	0
2019/01/01 19:45:00	BASE	1.52	301	2.21	278	2.1	81	-0.9	334	788	978.4	NA	0.0000		9999	5640	0	0	0
2019/01/01 19:46:00	BASE	1.15	291	2.21	278	2.0	80	-1.0	330	780	978.4	NA	0.0000		9999	6960	0	0	0
2019/01/01 19:47:00	BASE	1.17	292	2.21	278	2.1	80	-1.1	325	767	978.4	NA	0.0000		9999	6760	0	0	0
2019/01/01 19:48:00	BASE	1.44	291	2.21	278	2.1	79	-1.2	320	757	978.4	NA	0.0000		9999	6790	0	0	0
2019/01/01 19:49:00	BASE	1.45	287	2.21	278	2.2	78	-1.2	316	748	978.4	NA	0.0000		9999	6730	0	0	0
2019/01/01 19:50:00	BASE	1.53	287	2.21	278	2.2	78	-1.2	311	737	978.4	NA	0.0000		9999	6820	0	0	0
2019/01/01 19:51:00	BASE	1.49	287	2.21	278	2.2	78	-1.3	305	725	978.4	NA	0.0000		9999	6690	0	0	0
2019/01/01 19:52:00	BASE	1.41	287	2.21	278	2.2	78	-1.3	300	714	978.4	NA	0.0000		9999	6760	0	0	0
2019/01/01 19:53:00	BASE	1.16	293	1.95	305	2.1	77	-1.4	295	704	978.4	NA	0.0000		9999	6820	0	0	0
2019/01/01 19:54:00	BASE	0.85	305	1.85	297	2.2	77	-1.4	291	695	978.4	NA	0.0000		9999	6500	0	0	0
2019/01/01 19:55:00	BASE	1.06	305	1.85	297	2.2	76	-1.6	286	684	978.4	NA	0.0000		9999	6790	0	0	0
2019/01/01 19:56:00	BASE	1.29	300	1.85	297	2.2	75	-1.8	282	674	978.4	NA	0.0000		9999	6530	0	0	0
2019/01/01 19:57:00	BASE	1.24	302	1.80	288	2.2	74	-1.9	278	666	978.4	NA	0.0000		9999	6820	0	0	0
2019/01/01 19:58:00	BASE	1.26	306	1.80	288	2.2	74	-1.9	274	658	978.4	NA	0.0000		9999	6530	0	0	0
2019/01/01 19:59:00	BASE	1.36	308	1.80	288	2.1	74	-2.1	272	652	978.4	NA	0.0000		9999	6820	0	0	0
2019/01/01 20:00:00	BASE	1.40	305	1.80	288	2.1	74	-1.9	269	645	978.4	NA	0.0000		9999	6560	0	0	0
2019/01/01 20:01:00	BASE	1.40	300	1.85	300	2.1	75	-1.9	266	640	978.4	NA	0.0000		9999	6760	0	0	0
2019/01/01 20:02:00	BASE	1.53	297	1.85	300	2.1	75	-1.9	264	635	978.4	NA	0.0000		9999	6760	0	0	0
2019/01/01 20:03:00	BASE	1.57	296	1.85	300	2.0	75	-2.0	262	630	978.4	NA	0.0000		9999	6560	0	0	0
2019/01/01 20:04:00	BASE	1.47	294	1.85	300	2.0	75	-1.9	261	626	978.4	NA	0.0000		9999	6330	0	0	0
2019/01/01 20:05:00	BASE	1.38	289	1.85	300	2.0	75	-2.0	259	621	978.4	NA	0.0000		9999	6500	0	0	0
2019/01/01 20:06:00	BASE	1.42	289	1.85	300	2.0	75	-2.0	257	617	978.4	NA	0.0000		9999	6040	0	0	0
2019/01/01 20:07:00	BASE	1.29	292	1.85	300	2.1	75	-1.9	255	613	978.4	NA	0.0000		9999	6070	0	0	0
2019/01/01 20:08:00	BASE	1.33	294	1.85	293	2.2	75	-1.8	254	609	978.4	NA	0.0000		9999	6000	0	0	0
2019/01/01 20:09:00	BASE	1.63	291	1.95	278	2.2	75	-1.8	252	605	978.4	NA	0.0000		9999	5940	0	0	0
2019/01/01 20:10:00	BASE	1.64	288	1.95	278	2.3	75	-1.7	249	600	978.4	NA	0.0000		9999	6200	0	0	0
2019/01/01 20:11:00	BASE	1.59	289	1.95	290	2.3	74	-1.8	247	595	978.4	NA	0.0000		9999	5910	0	0	0
2019/01/01 20:12:00	BASE	1.59	289	1.95	290	2.3	74	-1.8	245	590	978.4	NA	0.0000		9999	5840	0	0	0
2019/01/01 20:13:00	BASE	1.55	285	1.95	283	2.3	74	-1.9	243	586	978.4	NA	0.0000		9999	5910	0	0	0
2019/01/01 20:14:00	BASE	1.65	282	2.01	282	2.3	73	-2.0	241	581	978.4	NA	0.0000		9999	5940	0	0	0
2019/01/01 20:15:00	BASE	1.63	290	2.01	282	2.3	73	-2.0	239	576	978.4	NA	0.0000		9999	5870	0	0	0
2019/01/01 20:16:00	BASE	1.69	312	2.37	329	2.3	74	-1.9	237	572	978.4	NA	0.0000		9999	5770	0	0	0
2019/01/01 20:17:00	BASE	1.99	322	2.42	332	2.4	75	-1.6	235	567	978.4	NA	0.0000		9999	22900	0	0	0
2019/01/01 20:18:00	BASE	2.16	317	2.47	326	2.5	76	-1.3	233	562	978.4	NA	0.0000		9999	5580	0	0	0
2019/01/01 20:19:00	BASE	2.31	318	2.73	326	2.6	77	-1.0	231	558	978.4	NA	0.0000		9999	5480	0	0	0
2019/01/01 20:20:00	BASE	2.58	324	3.19	322	2.8	78	-0.7	229	554	978.4	NA	0.0000		9999	5580	0	0	0
2019/01/01 20:21:00	BASE	2.81	324	3.45	308	2.8	78	-0.6	227	550	978.4	NA	0.0000		9999	5540	0	0	0
2019/01/01 20:22:00	BASE	2.88	324	3.45	308	2.9	79	-0.4	226	546	978.4	NA	0.0000		9999	5640	0	0	0
2019/01/01 20:23:00	BASE	2.74	319	3.45	308	2.9	80	-0.3	225	544	978.4	NA	0.0000		9999	18960	0	0	0
2019/01/01 20:24:00	BASE	2.68	316	3.45	308	2.8	80	-0.3	224	541	978.4	NA	0.0000		9999	5150	0	0	0
2019/01/01 20:25:00	BASE	2.69	317	3.45	308	2.7	80	-0.4	223	540	978.4	NA	0.0000		9999	5380	0	0	0
2019/01/01 20:26:00	BASE	2.79	307	3.45	308	2.6	80	-0.5	223	538	978.4	NA	0.0000		9999	5220	0	0	0
2019/01/01 20:27:00	BASE	2.88	300	3.45	308	2.5	79	-0.7	223	537	978.4	NA	0.0000		9999	5050	0	0	0
2019/01/01 20:28:00	BASE	2.93	297	3.45	308	2.5	78	-1.0	223	537	978.4	NA	0.0000		9999	5050	0	0	0
2019/01/01 20:29:00	BASE	3.12	294	3.45	308	2.4	78	-1.1	223	536	978.4	NA	0.0000		9999	5120	0	0	0
2019/01/01 20:30:00	BASE	3.25	294	3.45	308	2.3	77	-1.4	223	537	978.4	NA	0.0000		9999	4460	0	0	0
2019/01/01 20:31:00	BASE	3.38	294	3.60	293	2.2	76	-1.5	223	537	978.4	NA	0.0000		9999	6040	0	0	0
2019/01/01 20:32:00	BASE	3.55	298	3.81	299	2.1	76	-1.6	224	537	978.4	NA	0.0000		9999	6100	0	0	0
2019/01/01 20:33:00	BASE	3.65	301	4.12	303	2.1	77	-1.6	224	538	978.4	NA	0.0000		9999	5740	0	0	0
2019/01/01 20:34:00	BASE	3.76	302	4.12	303	2.1	76	-1.6	225	539	978.4	NA	0.0000		9999	5770	0	0	0
2019/01/01 20:35:00	BASE	3.78	305	4.12	303	2.1	76	-1.6	226	540	978.4	NA	0.0000		9999	6500	0	0	0
2019/01/01 20:36:00	BASE	3.43	309	4.12	303	2.1	76	-1.6	226	541	978.4	NA	0.0000		9999	21330	0	0	0
2019/01/01 20:37:00	BASE	3.30	314	4.12	303	2.2	76	-1.6	227	542	978.4	NA	0.0000		9999	22970	0	0	0
2019/01/01 20:38:00	BASE	3.27	314	4.12	303	2.2	76	-1.5	228	544	978.4	NA	0.0000		9999	6140	0	0	0
2019/01/01 20:39:00	BASE	3.10	316	4.12	303	2.3	77	-1.4	229	545	978.4	NA	0.0000		9999	6370	0	0	0
2019/01/01 20:40:00	BASE	3.07	317	4.12	303	2.5	77	-1.1	230	547	978.4	NA	0.0000		9999	5910	0	0	0
2019/01/01 20:41:00	BASE	2.97	317	4.12	303	2.6	78	-0.9	231	549	978.4	NA	0.0000		9999	6230	0	0	0
2019/01/01 20:42:00	BASE	3.00	316	4.12	303	2.6	78	-0.8	232	552	978.5	NA	0.0000		9999	6270	0	0	0
2019/01/01 20:43:00	BASE	2.72	310	4.01	306	2.6	78	-0.7	234	555	978.5	NA	0.0000		9999	6300	0	0	0
2019/01/01 20:44:00	BASE	2.30	304	4.01	306	2.6	78	-0.8	236	559	978.5	NA	0.0000		9999	6430	0	0	0
2019/01/01 20:45:00	BASE	2.40	306	3.86	315	2.4	78	-1.0	238	563	978.5	NA	0.0000		9999	5740	0	0	0
2019/01/01 20:46:00	BASE	2.44	313	3.86	315	2.3	78	-1.1	240	568	978.5	NA	0.0000		9999	5870	0	0	0
2019/01/01 20:47:00	BASE	2.22	320	3.50	304	2.2	78	-1.2	242	571	978.5	NA	0.0000		9999	5770	0	0	0
2019/01/01 20:48:00	BASE	2.18	315	3.50	304	2.2	78	-1.2	244	575	978.5	NA	0.0000		9999	5740	0	0	0
2019/01/01 20:49:00	BASE	2.34	306	3.45	323	2.2	78	-1.2	246	578	978.5	NA	0.0000		9999	5870	0	0	0
2019/01/01 20:50:00	BASE	2.43	306	3.45	323	2.2	77	-1.3	247	580	978.5	NA	0.0000		9999	5540	0	0	0
2019/01/01 20:51:01	BASE	2.69	307	3.45	323	2.2	76	-1.6	247	580	978.5	NA	0.0000		9999	5680	0	0	0
2019/01/01 20:52:00	BASE	2.80	311	3.19	311	2.3	74	-1.8	246	579	978.5	NA	0.0000		9999	23230	0	0	0
2019/01/01 20:53:00	BASE	2.56	311	3.19	311	2.3	72	-2.1	245	575	978.5	NA	0.0000		9999	5250	0	0	0
2019/01/01 20:54:00	BASE	2.59	306	3.19	311	2.4	71	-2.5	243	572	978.5	NA	0.0000		9999	5090	0	0	0
2019/01/01 20:55:00	BASE	2.67	299	3.19	311	2.4	70	-2.6	242	569	978.5	NA	0.0000		9999	4820	0	0	0
2019/01/01 20:56:00	BASE	2.47	297	3.19	311	2.4	69	-2.7	240	565	978.5	NA	0.0000		9999	0	0	0	0
2019/01/01 20:57:00	BASE	2.36	298	3.19	311	2.3	69	-2.7	237	559	978.5	NA	0.0000		9999	4820	0	0	0
2019/01/01 20:58:00	BASE	2.34	301	3.19	311	2.2	70	-2.8	234	554	978.5	NA	0.0000		9999	0	0	0	0
2019/01/01 20:59:00	BASE	2.19	307	3.19	311	2.2	70	-2.6	232	550	978.5	NA	0.0000		9999	4270	0	0	0
2019/01/01 21:00:00	BASE	2.11	303	3.19	311	2.3	71	-2.5	230	544	978.5	NA	0.0000		9999	4360	0	0	0
2019/01/01 21:01:00	BASE	2.13	291	3.09	305	2.3	71	-2.5	227	538	978.5	NA	0.0000		9999	5280	0	0	0
2019/01/01 21:02:00	BASE	2.13	284	3.09	305	2.4	70	-2.5	224	532	978.5	NA	0.0000		9999	0	0	0	0
2019/01/01 21:03:00	BASE	2.01	286	2.98	289	2.5	70	-2.5	221	526	978.5	NA	0.0000		9999	0	0	0	0
2019/01/01 21:04:00	BASE	1.90	293	2.98	289	2.5	69	-2.7	218	519	978.5	NA	0.0000		9999	0	0	0	0
2019/01/01 21:05:00	BASE	1.97	296	2.52	301	2.4	68	-2.9	214	510	978.6	NA	0.0000		9999	0	0	0	0
2019/01/01 21:06:00	BASE	1.98	297	2.52	301	2.3	68	-2.9	211	504	978.6	NA	0.0000		9999	0	0	0	0
2019/01/01 21:07:00	BASE	2.20	301	2.73	301	2.2	69	-3.0	208	498	978.6	NA	0.0000		9999	0	0	0	0
2019/01/01 21:08:00	BASE	2.30	303	2.73	301	2.1	70	-2.8	205	491	978.6	NA	0.0000		9999	22020	0	0	0
2019/01/01 21:09:00	BASE	2.15	300	2.73	301	2.0	72	-2.6	202	484	978.6	NA	0.0000		9999	5770	0	0	0
2019/01/01 21:10:00	BASE	2.32	293	2.73	301	2.0	73	-2.3	198	476	978.6	NA	0.0000		9999	5710	0	0	0
2019/01/01 21:11:00	BASE	2.47	288	2.78	286	2.1	73	-2.2	195	471	978.6	NA	0.0000		9999	0	0	0	0
2019/01/01 21:12:00	BASE	2.59	284	2.88	282	2.1	74	-2.1	193	465	978.6	NA	0.0000		9999	0	0	0	0
2019/01/01 21:13:00	BASE	2.77	283	3.14	282	2.2	74	-2.1	190	458	978.6	NA	0.0000		9999	0	0	0	0
2019/01/01 21:14:00	BASE	2.75	284	3.14	282	2.2	73	-2.1	186	450	978.6	NA	0.0000		9999	0	0	0	0
2019/01/01 21:15:00	BASE	2.76	286	3.29	289	2.3	73	-2.1	182	443	978.6	NA	0.0000		9999	0	0	0	0
2019/01/01 21:16:00	BASE	2.81	288	3.29	289	2.3	73	-2.1	179	437	978.6	NA	0.0000		9999	0	0	0	0
2019/01/01 21:17:00	BASE	2.84	290	3.29	289	2.3	73	-2.0	177	431	978.6	NA	0.0000		9999	0	0	0	0
2019/01/01 21:18:00	BASE	2.91	292	3.29	289	2.3	74	-1.8	174	426	978.6	NA	0.0000		9999	0	0	0	0
2019/01/01 21:19:00	BASE	2.89	294	3.29	289	2.2	75	-1.8	171	419	978.6	NA	0.0000		9999	6230	0	0	0
2019/01/01 21:20:00	BASE	2.75	296	3.29	289	2.2	75	-1.8	168	414	978.6	NA	0.0000		9999	0	0	0	0
2019/01/01 21:21:01	BASE	2.65	304	3.29	289	2.2	75	-1.8	166	409	978.6	NA	0.0000		9999	0	0	0	0
2019/01/01 21:22:00	BASE	2.77	313	3.29	289	2.1	75	-1.9	164	405	978.6	NA	0.0000		9999	5910	0	0	0
2019/01/01 21:23:00	BASE	2.75	313	3.29	289	2.0	75	-2.0	162	401	978.6	NA	0.0000		9999	5540	0	0	0
2019/01/01 21:24:00	BASE	2.52	309	3.29	289	2.0	74	-2.1	161	398	978.6	NA	0.0000		9999	0	0	0	0
2019/01/01 21:25:00	BASE	2.71	305	3.19	294	2.0	74	-2.1	160	396	978.6	NA	0.0000		9999	0	0	0	0
2019/01/01 21:26:00	BASE	2.83	296	3.19	294	2.0	74	-2.1	160	395	978.6	NA	0.0000		9999	0	0	0	0
2019/01/01 21:27:00	BASE	2.73	291	3.19	294	2.1	74	-2.1	160	396	978.6	NA	0.0000		9999	8010	0	0	0
2019/01/01 21:28:00	BASE	2.90	289	3.29	285	2.2	74	-2.1	162	398	978.6	NA	0.0000		9999	0	0	0	0
2019/01/01 21:29:00	BASE	3.06	289	3.45	294	2.2	74	-2.0	164	403	978.6	NA	0.0000		9999	9220	0	0	0
2019/01/01 21:30:00	BASE	3.10	293	3.45	294	2.2	74	-2.0	165	405	978.6	NA	0.0000		9999	8330	0	0	0
2019/01/01 21:31:00	BASE	3.18	296	3.50	296	2.1	74	-2.0	167	409	978.6	NA	0.0000		9999	8500	0	0	0
2019/01/01 21:32:00	BASE	3.41	297	3.70	295	2.1	75	-1.9	168	410	978.6	NA	0.0000		9999	8660	0	0	0
2019/01/01 21:33:00	BASE	3.41	298	3.70	295	2.0	75	-1.9	167	407	978.6	NA	0.0000		9999	11840	0	0	0
2019/01/01 21:34:00	BASE	3.37	297	3.70	295	2.0	75	-2.0	168	410	978.6	NA	0.0000		9999	8760	0	0	0
2019/01/01 21:35:00	BASE	3.42	298	3.70	295	2.0	75	-1.9	169	412	978.6	NA	0.0000		9999	8890	0	0	0
2019/01/01 21:36:00	BASE	3.49	300	3.70	295	2.1	76	-1.8	172	417	978.5	NA	0.0000		9999	8790	0	0	0
2019/01/01 21:37:00	BASE	3.36	301	3.70	295	2.1	76	-1.8	174	422	978.5	NA	0.0000		9999	9510	0	0	0
2019/01/01 21:38:00	BASE	3.26	302	3.70	295	2.1	76	-1.7	177	427	978.5	NA	0.0000		9999	9680	0	0	0
2019/01/01 21:39:00	BASE	3.22	304	3.70	295	2.0	77	-1.6	179	431	978.5	NA	0.0000		9999	10860	0	0	0
2019/01/01 21:40:00	BASE	3.08	303	3.70	295	2.0	77	-1.5	181	434	978.5	NA	0.0000		9999	11580	0	0	0
2019/01/01 21:41:00	BASE	3.00	302	3.70	295	2.0	78	-1.5	181	435	978.5	NA	0.0000		9999	12730	0	0	0
2019/01/01 21:42:00	BASE	3.08	302	3.65	300	1.9	78	-1.5	182	437	978.6	NA	0.0000		9999	10630	0	0	0
2019/01/01 21:43:00	BASE	3.07	303	3.65	300	1.9	78	-1.5	178	427	978.6	NA	0.0000		9999	11710	0	0	0
2019/01/01 21:44:00	BASE	3.02	301	3.65	300	1.9	79	-1.3	176	424	978.6	NA	0.0000		9999	10700	11350	0	0
2019/01/01 21:45:00	BASE	3.22	299	3.65	300	1.9	80	-1.3	172	417	978.6	NA	0.0000		9999	11550	0	0	0
2019/01/01 21:46:00	BASE	3.23	301	3.60	295	1.9	80	-1.3	170	413	978.6	NA	0.0000		9999	11290	0	0	0
2019/01/01 21:47:00	BASE	3.08	305	3.50	302	1.9	80	-1.2	168	408	978.6	NA	0.0000		9999	10990	0	0	0
2019/01/01 21:48:00	BASE	3.10	307	3.45	303	1.9	81	-1.1	167	405	978.6	NA	0.0000		9999	11290	0	0	0
2019/01/01 21:49:00	BASE	3.05	307	3.45	303	1.9	80	-1.2	166	403	978.6	NA	0.0000		9999	11120	0	0	0
2019/01/01 21:50:00	BASE	2.99	307	3.45	303	1.8	80	-1.2	162	395	978.6	NA	0.0000		9999	12140	0	0	0
2019/01/01 21:51:00	BASE	3.00	306	3.45	303	1.8	80	-1.3	160	390	978.7	NA	0.0000		9999	10500	0	0	0
2019/01/01 21:52:00	BASE	2.97	304	3.45	303	1.8	79	-1.5	158	385	978.7	NA	0.0000		9999	11020	0	0	0
2019/01/01 21:53:00	BASE	3.00	300	3.45	303	1.8	78	-1.6	156	381	978.7	NA	0.0000		9999	9940	0	0	0
2019/01/01 21:54:00	BASE	3.00	297	3.45	303	1.8	78	-1.6	153	376	978.7	NA	0.0000		9999	9320	0	0	0
2019/01/01 21:55:00	BASE	3.02	295	3.34	305	1.8	78	-1.6	151	370	978.7	NA	0.0000		9999	9250	0	0	0
2019/01/01 21:56:00	BASE	3.06	294	3.34	305	1.8	78	-1.6	148	364	978.7	NA	0.0000		9999	8960	0	0	0
2019/01/01 21:57:00	BASE	2.99	293	3.34	305	1.8	78	-1.7	144	357	978.7	NA	0.0000		9999	8460	0	0	0
2019/01/01 21:58:00	BASE	2.76	293	3.24	294	1.8	78	-1.7	140	348	978.8	NA	0.0000		9999	9150	0	0	0
2019/01/01 21:59:00	BASE	2.66	294	3.24	294	1.7	78	-1.7	136	338	978.8	NA	0.0000		9999	8240	0	0	0
2019/01/01 22:00:00	BASE	2.57	291	3.24	294	1.7	78	-1.7	130	327	978.8	NA	0.0000		9999	8270	0	0	0
2019/01/01 22:01:00	BASE	2.31	288	3.24	294	1.8	78	-1.6	125	317	978.9	NA	0.0000		9999	8300	0	0	0
2019/01/01 22:02:00	BASE	2.38	290	3.24	294	1.9	79	-1.4	120	306	978.9	NA	0.0000		9999	8100	0	0	0
2019/01/01 22:03:00	BASE	2.48	296	3.24	294	2.0	79	-1.3	115	295	978.9	NA	0.0000		9999	7550	0	0	0
2019/01/01 22:04:00	BASE	2.31	302	3.24	294	2.0	80	-1.1	110	286	978.9	NA	0.0000		9999	8170	0	0	0
2019/01/01 22:05:00	BASE	2.33	310	3.24	294	2.0	81	-0.9	106	277	978.9	NA	0.0000		9999	7840	0	0	0
2019/01/01 22:06:00	BASE	2.36	312	3.09	319	2.0	81	-0.9	102	269	978.9	NA	0.0000		9999	8200	0	0	0
2019/01/01 22:07:00	BASE	2.27	311	3.09	319	2.0	82	-0.8	99	262	978.9	NA	0.0000		9999	8200	0	0	0
2019/01/01 22:08:00	BASE	2.22	308	3.09	319	2.0	82	-0.7	96	256	979.0	NA	0.0000		9999	0	0	0	0
2019/01/01 22:09:00	BASE	2.42	300	3.09	319	2.0	82	-0.7	93	250	979.0	NA	0.0000		9999	0	0	0	0
2019/01/01 22:10:00	BASE	2.62	299	3.09	319	2.0	82	-0.8	91	245	979.0	NA	0.0000		9999	0	0	0	0
2019/01/01 22:11:00	BASE	2.51	297	3.09	319	1.9	82	-0.9	88	240	979.0	NA	0.0000		9999	0	0	0	0
2019/01/01 22:12:00	BASE	2.49	299	3.09	319	1.8	81	-1.0	87	236	979.0	NA	0.0000		9999	0	0	0	0
2019/01/01 22:13:00	BASE	2.48	302	3.09	319	1.8	81	-1.1	85	232	979.0	NA	0.0000		9999	0	0	0	0
2019/01/01 22:14:00	BASE	2.26	295	3.09	319	1.7	81	-1.1	84	229	979.0	NA	0.0000		9999	0	0	0	0
2019/01/01 22:15:00	BASE	2.06	286	2.78	297	1.7	82	-1.1	82	227	979.0	NA	0.0000		9999	0	0	0	0
2019/01/01 22:16:00	BASE	1.98	283	2.78	297	1.7	82	-1.0	82	226	979.0	NA	0.0000		9999	0	0	0	0
2019/01/01 22:17:00	BASE	2.11	279	2.78	297	1.8	82	-1.0	81	225	979.1	NA	0.0000		9999	0	0	0	0
2019/01/01 22:18:00	BASE	2.26	278	2.78	297	1.7	82	-1.0	82	225	979.1	NA	0.0000		9999	0	0	0	0
2019/01/01 22:19:00	BASE	2.32	278	2.78	297	1.8	82	-1.0	82	226	979.1	NA	0.0000		9999	0	0	0	0
2019/01/01 22:20:00	BASE	2.25	276	2.73	299	1.7	81	-1.2	83	228	979.1	NA	0.0000		9999	0	0	0	0
2019/01/01 22:21:00	BASE	2.19	270	2.73	268	1.7	80	-1.3	85	231	979.1	NA	0.0000		9999	0	0	0	0
2019/01/01 22:22:00	BASE	2.34	266	2.83	264	1.7	80	-1.5	87	235	979.2	NA	0.0000		9999	0	0	0	0
2019/01/01 22:23:00	BASE	2.43	266	2.83	264	1.7	80	-1.5	90	241	979.1	NA	0.0000		9999	0	0	0	0
2019/01/01 22:24:00	BASE	2.20	269	2.83	264	1.7	80	-1.4	91	242	979.2	NA	0.0000		9999	0	0	0	0
2019/01/01 22:25:00	BASE	2.08	272	2.83	264	1.7	81	-1.3	93	247	979.1	NA	0.0000		9999	0	0	0	0
2019/01/01 22:26:00	BASE	2.10	277	2.83	264	1.7	81	-1.2	95	251	979.1	NA	0.0000		9999	0	0	0	0
2019/01/01 22:27:00	BASE	2.05	281	2.83	264	1.7	82	-1.1	94	249	979.1	NA	0.0000		9999	0	0	0	0
2019/01/01 22:28:00	BASE	1.86	289	2.83	264	1.7	82	-1.0	83	227	979.1	NA	0.0000		9999	0	0	0	0
2019/01/01 22:29:00	BASE	1.81	299	2.83	264	1.7	82	-1.0	81	223	979.1	NA	0.0000		9999	0	0	0	0
2019/01/01 22:30:00	BASE	1.89	307	2.83	264	1.6	83	-1.0	84	230	979.1	NA	0.0000		9999	0	0	0	0
2019/01/01 22:31:00	BASE	2.07	320	2.83	264	1.5	84	-0.9	91	243	979.1	NA	0.0000		9999	0	0	0	0
2019/01/01 22:32:00	BASE	2.40	328	2.78	266	1.6	85	-0.7	96	253	979.1	NA	0.0000		9999	0	0	0	0
2019/01/01 22:33:00	BASE	2.48	331	2.62	333	1.6	86	-0.6	97	255	979.1	NA	0.0000		9999	0	0	0	0
2019/01/01 22:34:00	BASE	2.44	338	2.62	333	1.6	86	-0.5	104	268	979.1	NA	0.0000		9999	0	0	0	0
2019/01/01 22:35:00	BASE	2.51	342	2.78	345	1.6	86	-0.4	87	236	979.1	NA	0.0000		9999	0	0	0	0
2019/01/01 22:36:00	BASE	2.68	341	3.09	332	1.6	86	-0.4	105	271	979.1	NA	0.0000		9999	0	0	0	0
2019/01/01 22:37:00	BASE	2.65	339	3.09	332	1.5	86	-0.5	108	278	979.1	NA	0.0000		9999	0	0	0	0
2019/01/01 22:38:00	BASE	2.48	339	3.09	332	1.6	86	-0.5	105	271	979.1	NA	0.0000		9999	0	0	0	0
2019/01/01 22:39:00	BASE	2.47	341	3.09	332	1.6	86	-0.5	107	276	979.1	NA	0.0000		9999	0	0	0	0
2019/01/01 22:40:00	BASE	2.45	339	3.09	332	1.6	86	-0.5	91	246	979.1	NA	0.0000		9999	0	0	0	0
2019/01/01 22:41:00	BASE	2.23	334	3.09	332	1.5	86	-0.6	88	242	979.2	NA	0.0000		9999	0	0	0	0
2019/01/01 22:42:00	BASE	1.91	328	3.09	332	1.6	86	-0.6	93	250	979.2	NA	0.0000		9999	0	0	0	0
2019/01/01 22:43:00	BASE	1.67	319	3.09	332	1.5	86	-0.7	78	222	979.2	NA	0.0000		9999	0	0	0	0
2019/01/01 22:44:00	BASE	1.21	302	3.09	332	1.5	85	-0.7	85	237	979.2	NA	0.0000		9999	0	0	0	0
2019/01/01 22:45:00	BASE	0.86	291	3.09	332	1.5	85	-0.7	102	269	979.2	NA	0.0000		9999	0	0	0	0
2019/01/01 22:46:01	BASE	0.64	292	2.78	342	1.5	85	-0.8	124	308	979.2	NA	0.0000		9999	0	0	0	0
2019/01/01 22:47:00	BASE	0.87	294	2.73	341	1.5	84	-0.8	178	407	979.2	NA	0.0000		9999	0	0	0	0
2019/01/01 22:48:00	BASE	1.49	294	2.68	341	1.5	84	-0.8	133	326	979.2	NA	0.0000		9999	5640	0	0	0
2019/01/01 22:49:00	BASE	1.59	299	2.62	331	1.6	84	-0.8	119	303	979.2	NA	0.0000		9999	5320	0	0	0
2019/01/01 22:50:00	BASE	1.67	299	2.21	332	1.5	85	-0.8	108	282	979.2	NA	0.0000		9999	0	0	0	0
2019/01/01 22:51:00	BASE	1.88	288	2.21	282	1.6	85	-0.6	167	388	979.2	NA	0.0000		9999	0	0	0	0
2019/01/01 22:52:00	BASE	2.10	280	2.42	267	1.6	87	-0.4	197	442	979.2	NA	0.0000		9999	0	0	0	0
2019/01/01 22:53:00	BASE	2.26	278	2.52	280	1.6	88	-0.2	264	559	979.2	NA	0.0000		9999	0	0	0	0
2019/01/01 22:54:00	BASE	2.37	282	2.68	287	1.7	89	0.0	277	582	979.2	NA	0.0000		9999	0	0	0	0
2019/01/01 22:55:00	BASE	2.30	293	2.68	287	1.7	90	0.2	248	532	979.2	NA	0.0000		9999	0	0	0	0
2019/01/01 22:56:00	BASE	2.12	306	2.68	287	1.7	91	0.3	192	435	979.2	NA	0.0000		9999	0	0	0	0
2019/01/01 22:57:00	BASE	2.16	314	2.68	287	1.6	91	0.4	174	405	979.2	NA	0.0000		9999	0	0	0	0
2019/01/01 22:58:00	BASE	2.07	321	2.68	287	1.6	92	0.4	255	545	979.2	NA	0.0000		9999	0	0	0	0
2019/01/01 22:59:00	BASE	1.69	329	2.68	287	1.7	93	0.6	296	616	979.2	NA	0.0000		9999	0	0	0	0
2019/01/01 23:00:00	BASE	1.80	333	2.68	287	1.7	93	0.6	199	450	979.2	NA	0.0000		9999	0	0	0	0
2019/01/01 23:01:00	BASE	2.05	330	2.68	287	1.7	92	0.4	136	339	979.3	NA	0.0000		9999	0	0	0	0
2019/01/01 23:02:00	BASE	2.21	331	2.68	287	1.6	90	0.2	66	212	979.3	NA	0.0000		9999	0	0	0	0
2019/01/01 23:03:00	BASE	2.40	335	2.68	287	1.5	89	-0.1	111	295	979.3	NA	0.0000		9999	0	0	0	0
2019/01/01 23:04:00	BASE	2.54	332	2.73	332	1.4	87	-0.5	120	310	979.3	NA	0.0000		9999	0	0	0	0
2019/01/01 23:05:00	BASE	2.62	328	2.78	329	1.3	86	-0.8	158	375	979.3	NA	0.0000		9999	0	0	0	0
2019/01/01 23:06:00	BASE	2.43	327	2.78	329	1.2	86	-0.9	255	540	979.3	NA	0.0000		9999	0	0	0	0
2019/01/01 23:07:00	BASE	2.12	326	2.78	329	1.3	86	-0.8	269	564	979.3	NA	0.0000		9999	0	0	0	0
2019/01/01 23:08:00	BASE	2.19	325	2.78	329	1.4	86	-0.7	270	563	979.3	NA	0.0000		9999	0	0	0	0
2019/01/01 23:09:00	BASE	2.47	328	2.78	329	1.4	86	-0.7	263	551	979.3	NA	0.0000		9999	0	0	0	0
2019/01/01 23:10:00	BASE	2.51	334	2.78	329	1.4	86	-0.6	260	545	979.3	NA	0.0000		9999	0	0	0	0
2019/01/01 23:11:00	BASE	2.61	335	2.98	333	1.5	87	-0.5	256	539	979.3	NA	0.0000		9999	0	0	0	0
2019/01/01 23:12:00	BASE	2.72	332	2.98	333	1.5	87	-0.4	225	487	979.3	NA	0.0000		9999	0	0	0	0
2019/01/01 23:13:00	BASE	2.70	332	2.98	333	1.5	88	-0.3	235	503	979.3	NA	0.0000		9999	0	0	0	0
2019/01/01 23:14:00	BASE	2.47	330	2.98	333	1.5	88	-0.2	178	406	979.3	NA	0.0000		9999	0	0	0	0
2019/01/01 23:15:00	BASE	2.32	330	2.98	333	1.6	88	-0.1	245	519	979.3	NA	0.0000		9999	0	0	0	0
2019/01/01 23:16:00	BASE	2.35	330	2.98	333	1.6	89	-0.1	256	536	979.3	NA	0.0000		9999	0	0	0	0
2019/01/01 23:17:00	BASE	2.24	329	2.98	333	1.6	89	-0.1	259	539	979.3	NA	0.0000		9999	0	0	0	0
2019/01/01 23:18:00	BASE	2.23	330	2.98	333	1.6	89	-0.1	256	533	979.3	NA	0.0000		9999	0	0	0	0
2019/01/01 23:19:00	BASE	2.25	332	2.98	333	1.5	89	-0.0	254	528	979.4	NA	0.0000		9999	0	0	0	0
2019/01/01 23:20:00	BASE	2.20	334	2.98	333	1.5	89	-0.1	252	524	979.5	NA	0.0000		9999	0	0	0	0
2019/01/01 23:21:00	BASE	2.25	336	2.83	331	1.4	90	-0.1	250	520	979.4	NA	0.0000		9999	0	0	0	0
2019/01/01 23:22:00	BASE	2.38	338	2.78	332	1.4	90	-0.1	247	515	979.4	NA	0.0000		9999	0	0	0	0
2019/01/01 23:23:00	BASE	2.31	338	2.62	328	1.3	90	-0.1	246	511	979.4	NA	0.0000		9999	0	0	0	0
2019/01/01 23:24:00	BASE	2.33	337	2.62	332	1.3	90	-0.1	245	508	979.3	NA	0.0000		9999	0	0	0	0
2019/01/01 23:25:00	BASE	2.53	338	2.83	340	1.3	90	-0.1	242	503	979.3	NA	0.0000		9999	0	0	0	0
2019/01/01 23:26:00	BASE	2.78	337	2.98	335	1.4	91	-0.0	240	499	979.3	NA	0.0000		9999	0	0	0	0
2019/01/01 23:27:00	BASE	2.81	331	3.04	322	1.4	91	0.0	238	494	979.4	NA	0.0000		9999	0	0	0	0
2019/01/01 23:28:00	BASE	2.43	328	3.04	322	1.4	91	0.1	236	490	979.5	NA	0.0000		9999	0	0	0	0
2019/01/01 23:29:00	BASE	2.24	328	3.04	322	1.5	91	0.2	234	484	979.5	NA	0.0000		9999	0	0	0	0
2019/01/01 23:30:00	BASE	2.40	326	3.04	322	1.5	91	0.3	231	480	979.5	NA	0.0000		9999	0	0	0	0
2019/01/01 23:31:00	BASE	2.57	326	3.04	322	1.5	91	0.3	229	475	979.5	NA	0.0000		9999	0	0	0	0
2019/01/01 23:32:00	BASE	2.69	331	3.04	322	1.6	91	0.3	227	471	979.5	NA	0.0000		9999	0	0	0	0
2019/01/01 23:33:00	BASE	2.72	336	3.04	322	1.5	92	0.3	226	467	979.5	NA	0.0000		9999	0	0	0	0
2019/01/01 23:34:00	BASE	2.71	339	3.04	322	1.5	92	0.3	224	463	979.5	NA	0.0000		9999	0	0	0	0
2019/01/01 23:35:00	BASE	2.66	340	3.04	322	1.5	92	0.3	222	458	979.5	NA	0.0000		9999	0	0	0	0
2019/01/01 23:36:00	BASE	2.54	342	3.04	322	1.5	92	0.3	220	454	979.5	NA	0.0000		9999	0	0	0	0
2019/01/01 23:37:00	BASE	2.44	341	2.83	339	1.5	92	0.3	218	450	979.5	NA	0.0000		9999	0	0	0	0
2019/01/01 23:38:00	BASE	2.43	344	2.83	339	1.5	92	0.3	216	445	979.5	NA	0.0000		9999	0	0	0	0
2019/01/01 23:39:00	BASE	2.43	347	2.83	339	1.5	92	0.3	214	442	979.5	NA	0.0000		9999	0	0	0	0
2019/01/01 23:40:00	BASE	2.42	344	2.83	339	1.5	92	0.4	212	438	979.5	NA	0.0000		9999	0	0	0	0
2019/01/01 23:41:00	BASE	2.48	342	2.83	339	1.5	92	0.4	211	434	979.5	NA	0.0000		9999	0	0	0	0
2019/01/01 23:42:00	BASE	2.53	339	2.83	339	1.5	93	0.5	209	429	979.5	NA	0.0000		9999	0	0	0	0
2019/01/01 23:43:00	BASE	2.52	338	2.78	339	1.5	93	0.5	207	425	979.5	NA	0.0000		9999	0	0	0	0
2019/01/01 23:44:00	BASE	2.62	337	2.88	338	1.5	93	0.5	205	422	979.5	NA	0.0000		9999	0	0	0	0
2019/01/01 23:45:00	BASE	2.78	335	2.98	327	1.5	93	0.5	203	417	979.5	NA	0.0000		9999	0	0	0	0
2019/01/01 23:46:00	BASE	2.89	334	3.19	333	1.4	93	0.5	201	414	979.5	NA	0.0000		9999	0	0	0	0
2019/01/01 23:47:00	BASE	2.98	334	3.19	333	1.4	94	0.5	200	409	979.5	NA	0.0000		9999	0	0	0	0
2019/01/01 23:48:00	BASE	3.09	334	3.24	336	1.4	94	0.5	198	405	979.5	NA	0.0000		9999	0	0	0	0
2019/01/01 23:49:00	BASE	3.14	332	3.29	332	1.5	94	0.6	196	402	979.5	NA	0.0000		9999	0	0	0	0
2019/01/01 23:50:00	BASE	3.17	331	3.40	332	1.5	94	0.6	194	398	979.6	NA	0.0000		9999	0	0	0	0
2019/01/01 23:51:00	BASE	3.26	331	3.45	331	1.5	94	0.6	193	394	979.6	NA	0.0000		9999	0	0	0	0
2019/01/01 23:52:00	BASE	3.28	332	3.45	331	1.4	94	0.6	191	390	979.6	NA	0.0000		9999	0	0	0	0
2019/01/01 23:53:00	BASE	3.31	332	3.55	334	1.4	94	0.6	190	388	979.6	NA	0.0000		9999	0	0	0	0
2019/01/01 23:54:00	BASE	3.23	333	3.55	334	1.4	94	0.6	189	384	979.6	NA	0.0000		9999	0	0	0	0
2019/01/01 23:55:00	BASE	3.15	332	3.55	334	1.4	94	0.6	187	380	979.6	NA	0.0000		9999	0	0	0	0
2019/01/01 23:56:00	BASE	3.24	332	3.55	334	1.4	94	0.5	186	376	979.6	NA	0.0000		9999	0	0	0	0
2019/01/01 23:57:00	BASE	3.17	332	3.55	334	1.4	94	0.5	184	373	979.6	NA	0.0000		9999	0	0	0	0
2019/01/01 23:58:00	BASE	2.96	332	3.55	334	1.4	94	0.5	182	368	979.6	NA	0.0000		9999	0	0	0	0
2019/01/01 23:59:00	BASE	2.73	333	3.55	334	1.4	94	0.5	180	365	979.6	NA	0.0000		9999	0	0	0	0